     2              OBSERVATION DATA    G (GPS)             RINEX VERSION / TYPE
ASRINEXO V2.9.7 UX USGS/MENLO_PARK 23-JUL-01 17:13          PGM / RUN BY / DATE
                                                            COMMENT
National Earthquake Hazard Reduction Program                COMMENT
Crustal Strain Project                                      COMMENT
345 Middlefield Road, MS/977                                COMMENT
U.S. Geological Survey, Menlo Park, California 94025        COMMENT
Contact: kwendt@usgs.gov (Ph: 650-329-4866)                 COMMENT
HI's are vertical to base of antenna                        COMMENT
BIT 2 OF LLI (+4) FLAGS DATA COLLECTED UNDER "AS" CONDITION COMMENT
knee Kneeland_1932_2672_USGS                                MARKER NAME
JMS                                                         OBSERVER / AGENCY
lp019992804 ASHTECH Z-XII3 CD00                             REC # / TYPE / VERS
CR14329 ASH700936D_M NONE                                   ANT # / TYPE
 -2705316.0000 -4014599.0000  4139977.0000                  APPROX POSITION XYZ
        1.3217        0.0000        0.0000                  ANTENNA: DELTA H/E/N
     1     1                                                WAVELENGTH FACT L1/2
     5    C1    L1    L2    P1    P2                        # / TYPES OF OBSERV
    30                                                      INTERVAL
  2001     7    17    15    48   30.000000                  TIME OF FIRST OBS
                                                            END OF HEADER
 01  7 17 15 48 30.0000000  0  7 23 18 17 10 30 06 15
  21512722.515    -1837724.009 8  -1421014.94847  21512722.122    21512725.3334
  22804477.470    -1962797.204 8  -1510964.71046  22804477.879    22804480.5444
  20916951.712    -1697314.129 9  -1314666.28647  20916950.806    20916953.8814
  22928949.162    -1172437.662 8   -924949.00546  22928947.181    22928950.8614
  23301562.436    -1165520.950 8   -926673.23345  23301560.835    23301563.3214
  20328820.075    -1491590.542 9  -1162484.95747  20328819.671    20328821.8194
  21795682.560    -1812079.928 8  -1400919.55646  21795680.944    21795684.2894
 01  7 17 15 49  0.0000000  0  7 23 18 17 10 30 06 15
  21499840.545    -1905420.460 8  -1473765.38847  21499839.861    21499843.1544
  22785124.162    -2064500.325 8  -1590213.84946  22785124.018    22785127.0454
  20909972.904    -1733987.999 8  -1343243.32347  20909972.018    20909975.0714
  22946531.546    -1080036.164 8   -852947.87346  22946530.487    22946534.3354
  23321773.756    -1059305.138 8   -843907.76045  23321772.973    23321775.9884
  20331505.131    -1477480.603 9  -1151490.21047  20331504.682    20331506.9234
  21783260.592    -1877355.395 8  -1451783.52246  21783259.424    21783262.9004
 01  7 17 15 49 30.0000000  0  8 23 18 17 10 30 06 15 22
  21487037.205    -1972701.464 8  -1526192.10047  21487036.644    21487040.0434
  22765817.593    -2165956.743 8  -1669270.72546  22765817.552    22765820.3634
  20903043.974    -1770399.620 8  -1371616.01447  20903043.174    20903046.1494
  22964169.540     -987347.064 8   -780722.60546  22964168.537    22964172.5814
  23342011.316     -952952.407 8   -761035.63346  23342011.112    23342014.5394
  20334272.388    -1462938.200 9  -1140158.47447  20334272.006    20334274.2754
  21770884.770    -1942388.985 8  -1502459.02146  21770883.870    21770887.4354
  23287150.723    -1664257.31618  -1285269.55055  23287150.661    23287154.6814
 01  7 17 15 50  0.0000000  0  9 23 18 17 10 30 06 15 22 26
  21474313.017    -2039567.536 8  -1578295.48947  21474312.473    21474315.8664
  22746558.330    -2267166.010 8  -1748135.03946  22746558.156    22746560.8494
  20896164.542    -1806551.008 8  -1399785.92147  20896163.787    20896166.7994
  22981861.578     -894375.272 8   -708277.10446  22981860.519    22981864.5754
  23362274.560     -846467.856 8   -678060.77045  23362274.424    23362278.0944
  20337121.841    -1447964.600 9  -1128490.74847  20337121.444    20337123.7144
  21758554.992    -2007182.421 8  -1552947.37446  21758554.057    21758557.6814
  23277322.970    -1715901.212 8  -1325511.47945  23277322.626    23277326.9594
  23042325.027    -1730274.64017  -1329021.20555  23042324.770    23042330.0134
 01  7 17 15 50 30.0000000  0  9 23 18 17 10 30 06 15 22 26
  21461667.737    -2106019.478 8  -1630076.19147  21461667.146    21461670.4114
  22727345.997    -2368128.449 8  -1826807.00546  22727345.746    22727348.3794
  20889334.243    -1842444.694 8  -1427755.02847  20889333.495    20889336.4114
  22999606.469     -801125.666 8   -635615.11646  22999605.394    22999609.4424
  23382562.163     -739856.440 8   -594987.06945  23382561.989    23382565.5134
  20340052.895    -1432561.708 9  -1116488.49947  20340052.505    20340054.8184
  21746270.508    -2071737.764 8  -1603250.22846  21746269.671    21746273.0994
  23267591.376    -1767042.373 8  -1365361.72045  23267590.692    23267594.9454
  23028865.320    -1801022.129 8  -1384149.08345  23028863.779    23028867.7664
 01  7 17 15 51  0.0000000  0  9 23 18 17 10 30 06 15 22 26
  21449101.890    -2172053.765 8  -1681531.44547  21449101.236    21449104.2594
  22708181.306    -2468839.375 8  -1905282.99246  22708181.063    22708183.7194
  20882553.340    -1878078.336 8  -1455521.49147  20882552.650    20882555.6454
  23017404.080     -707598.936 8   -562737.16846  23017403.143    23017407.0604
  23402873.366     -633118.705 8   -511814.91745  23402873.278    23402876.8054
  20343066.297    -1416726.542 9  -1104149.41847  20343065.878    20343068.2314
  21734031.802    -2136052.462 8  -1653365.56046  21734030.933    21734034.3684
  23257955.761    -1817676.867 7  -1404817.12145  23257954.973    23257959.9364
  23015471.615    -1871404.633 8  -1438992.54345  23015470.662    23015474.4844
 01  7 17 15 51 30.0000000  0  9 23 18 17 10 30 06 15 22 26
  21436616.149    -2237666.603 8  -1732658.29547  21436615.560    21436618.4954
  22689065.489    -2569294.328 8  -1983559.52646  22689065.038    22689067.9234
  20875822.372    -1913449.718 8  -1483083.61047  20875821.669    20875824.5854
  23035254.089     -613795.334 8   -489643.48246  23035253.156    23035257.1824
  23423208.966     -526255.320 8   -428544.88945  23423208.800    23423212.2964
  20346162.428    -1400456.294 9  -1091471.31347  20346162.015    20346164.3834
  21721839.473    -2200123.870 8  -1703291.28946  21721838.624    21721842.0184
  23248417.944    -1867800.289 7  -1443874.29245  23248416.957    23248421.2524
  23002148.508    -1941416.670 8  -1493547.33745  23002147.735    23002151.5774
 01  7 17 15 52  0.0000000  0  9 23 18 17 10 30 06 15 22 26
  21424210.855    -2302856.784 8  -1783455.79247  21424210.238    21424213.2484
  22669998.656    -2669491.311 8  -2061635.03246  22669998.147    22670001.0224
  20869141.313    -1948559.106 8  -1510441.56447  20869140.575    20869143.5904
  23053156.355     -519718.031 8   -416336.51446  23053155.592    23053159.5694
  23443567.790     -419269.346 7   -345179.31945  23443567.637    23443571.0764
  20349341.537    -1383750.458 9  -1078453.78247  20349341.104    20349343.4534
  21709693.416    -2263951.948 8  -1753027.43347  21709692.622    21709696.0094
  23238977.354    -1917411.166 7  -1482532.09045  23238976.432    23238980.5634
  22988897.062    -2011055.198 8  -1547811.09045  22988896.177    22988899.7634
 01  7 17 15 52 30.0000000  0  9 23 18 17 10 30 06 15 22 26
  21411886.044    -2367623.604 8  -1833923.41147  21411885.430    21411888.5964
  22650981.141    -2769428.783 8  -2139508.30846  22650980.702    22650983.5964
  20862509.933    -1983407.245 8  -1537595.96347  20862509.255    20862512.2034
  23071110.469     -425370.287 8   -342818.82946  23071109.524    23071113.5564
  23463949.054     -312164.324 8   -261720.98445  23463949.095    23463952.8464
  20352603.492    -1366609.070 9  -1065096.86247  20352603.026    20352605.3224
  21697593.625    -2327537.044 8  -1802574.21846  21697592.720    21697596.2184
  23229634.233    -1966508.987 8  -1520790.12045  23229633.339    23229637.3044
  22975716.832    -2080317.510 8  -1601781.67545  22975715.863    22975719.8334
 01  7 17 15 53  0.0000000  0  9 23 18 17 10 30 06 15 22 26
  21399642.204    -2431965.073 8  -1884059.59347  21399641.586    21399644.8634
  22632013.493    -2869103.977 8  -2217177.23846  22632013.073    22632015.8954
  20855928.296    -2017993.536 8  -1564546.30747  20855927.632    20855930.6424
  23089115.180     -330754.241 8   -269092.07246  23089114.319    23089118.4154
  23484352.901     -204942.527 8   -178171.66345  23484352.871    23484356.7154
  20355948.510    -1349030.952 9  -1051399.63447  20355948.060    20355950.3504
  21685540.074    -2390878.260 8  -1851931.01446  21685539.213    21685542.7044
  23220389.169    -2015092.191 7  -1558647.12745  23220388.071    23220392.1934
  22962608.535    -2149199.985 8  -1655456.26645  22962607.908    22962611.9084
 01  7 17 15 53 30.0000000  0  9 23 18 17 10 30 06 15 22 26
  21387479.627    -2495880.147 8  -1933863.51947  21387478.986    21387482.1804
  22613096.279    -2968515.126 8  -2294640.38146  22613095.760    22613098.5754
  20849396.438    -2052318.549 8  -1591293.06047  20849395.844    20849398.8544
  23107170.692     -235873.074 8   -195158.72046  23107169.739    23107173.6454
  23504777.614      -97607.574 8    -94534.15545  23504777.871    23504781.7954
  20359376.551    -1331016.074 9  -1037362.07247  20359376.167    20359378.4494
  21673533.064    -2453975.714 8  -1901097.82047  21673532.196    21673535.5684
  23211242.154    -2063159.114 8  -1596101.83945  23211241.392    23211245.2074
  22949573.140    -2217699.756 7  -1708832.70845  22949572.831    22949576.6944
 01  7 17 15 54  0.0000000  0  9 23 18 17 10 30 06 15 22 26
  21375398.389    -2559367.519 9  -1983334.15047  21375397.760    21375400.8894
  22594229.569    -3067659.868 8  -2371895.98346  22594229.100    22594231.9774
  20842914.296    -2086382.342 9  -1617836.28947  20842913.711    20842916.7324
  23125275.798     -140729.638 8   -121021.02246  23125274.866    23125278.9244
  23525224.124        9838.040 8    -10810.42545  23525224.286    23525228.2074
  20362887.765    -1312563.974 9  -1022983.82347  20362887.436    20362889.7954
  21661572.414    -2516829.490 8  -1950074.76447  21661571.566    21661574.9644
  23202193.834    -2110708.022 8  -1633152.94145  23202193.165    23202196.9964
  22936611.596    -2285813.726 8  -1761908.48245  22936611.354    22936615.1534
 01  7 17 15 54 30.0000000  0  9 23 18 17 10 30 06 15 22 26
  21363398.640    -2622426.652 8  -2032471.10347  21363398.037    21363401.1634
  22575413.916    -3166536.880 8  -2448942.93846  22575413.347    22575416.2554
  20836481.774    -2120185.854 8  -1644176.67847  20836481.164    20836484.1254
  23143430.189      -45327.436 8    -46681.71346  23143429.366    23143433.3844
  23545690.877      117390.632 8     72996.62945  23545691.216    23545695.0454
  20366482.243    -1293674.988 9  -1008265.14247  20366481.888    20366484.2404
  21649657.896    -2579439.958 8  -1998862.07246  21649657.005    21649660.6534
  23193244.164    -2157738.556 7  -1669800.07145  23193243.582    23193247.2364
  22923723.807    -2353539.509 7  -1814681.78245  22923723.536    22923727.4064
 01  7 17 15 55  0.0000000  0  9 23 18 17 10 30 06 15 22 26
  21351480.802    -2685055.050 8  -2081272.43147  21351480.188    21351483.3784
  22556649.540    -3265143.107 8  -2525778.90446  22556649.117    22556652.0864
  20830099.029    -2153728.101 9  -1670313.48147  20830098.353    20830101.2654
  23161633.456       50331.979 8     27858.05746  23161632.755    23161636.8564
  23566177.618      225047.976 8    156885.33845  23566177.775    23566181.6104
  20370160.273    -1274347.332 9   -993204.63547  20370159.852    20370162.2244
  21637790.080    -2641805.362 8  -2047458.50646  21637789.330    21637792.7934
  23184393.718    -2204248.490 8  -1706041.53345  23184393.119    23184396.7904
  22910910.513    -2420873.01618  -1867149.39945  22910910.436    22910914.2114
 01  7 17 15 55 30.0000000  0  9 23 18 17 10 30 06 15 22 26
  21339644.998    -2747252.638 8  -2129738.05947  21339644.401    21339647.6134
  22537937.114    -3363477.198 8  -2602402.81246  22537936.681    22537939.7584
  20823765.707    -2187010.018 8  -1696247.44747  20823765.087    20823767.9594
  23179885.155      146244.872 7    102595.33646  23179884.380    23179888.6404
  23586683.518      332806.504 8    240852.89545  23586683.659    23586687.5434
  20373921.549    -1254581.502 9   -977802.70647  20373921.178    20373923.5564
  21625968.920    -2703926.698 8  -2095864.70846  21625968.054    21625971.3584
  23175642.645    -2250237.416 8  -1741877.06545  23175641.736    23175645.2844
  22898172.267    -2487811.945 7  -1919309.55845  22898172.345    22898176.3254
 01  7 17 15 56  0.0000000  0  9 23 18 17 10 30 06 15 22 26
  21327891.597    -2809017.277 8  -2177866.31547  21327890.959    21327894.1144
  22519276.932    -3461536.232 8  -2678812.40046  22519276.549    22519279.7184
  20817481.998    -2220031.055 8  -1721978.12947  20817481.348    20817484.2994
  23198184.423      242409.299 8    177528.61945  23198183.821    23198188.1854
  23607208.020      440664.323 7    324897.78045  23607208.210    23607212.0354
  20377766.553    -1234376.180 9   -962058.30147  20377766.206    20377768.5614
  21614194.194    -2765802.860 8  -2144079.85447  21614193.356    21614196.8784
  23166990.625    -2295702.897 7  -1777304.68445  23166989.917    23166993.6674
  22885509.941    -2554352.240 7  -1971159.12545  22885510.161    22885514.0634
 01  7 17 15 56 30.0000000  0  9 23 18 17 10 30 06 15 22 26
  21316220.883    -2870347.728 8  -2225656.23847  21316220.178    21316223.2524
  22500669.748    -3559318.172 8  -2755006.06646  22500669.281    22500672.3524
  20811247.958    -2252791.288 8  -1747505.57947  20811247.313    20811250.2344
  23216531.441      338822.284 8    252655.57445  23216530.641    23216534.8984
  23627751.244      548618.370 7    409017.67145  23627751.477    23627755.2034
  20381695.163    -1213731.036 9   -945971.19047  20381694.826    20381697.1944
  21602466.171    -2827433.630 8  -2192103.79246  21602465.295    21602468.8654
  23158438.490    -2340643.169 7  -1812323.04745  23158437.817    23158441.7064
  22872924.022    -2620491.030 7  -2022695.80845  22872924.334    22872928.0964
 01  7 17 15 57  0.0000000  0  9 23 18 17 10 30 06 15 22 26
  21304632.847    -2931243.414 8  -2273107.41347  21304632.230    21304635.1064
  22482115.436    -3656821.592 8  -2830982.70646  22482114.975    22482117.7974
  20805063.274    -2285291.484 8  -1772830.40047  20805062.675    20805065.6614
  23234925.013      435480.764 8    327973.82546  23234924.276    23234928.5904
  23648311.949      656665.122 7    493209.84345  23648312.094    23648316.1444
  20385707.444    -1192646.340 9   -929541.56347  20385707.099    20385709.5084
  21590784.856    -2888819.484 8  -2239936.93247  21590784.111    21590787.4534
  23149986.603    -2385058.115 7  -1846932.08645  23149985.918    23149989.9104
  22860415.249    -2686225.941 8  -2073917.77545  22860415.443    22860419.1104
 01  7 17 15 57 30.0000000  0  9 23 18 17 10 30 06 15 22 26
  21293127.772    -2991702.927 8  -2320218.69147  21293127.125    21293130.0784
  22463614.754    -3754044.359 8  -2906740.61546  22463614.204    22463616.8434
  20798928.286    -2317531.541 8  -1797952.52847  20798927.642    20798930.6044
  23253364.662      532382.140 8    403481.34046  23253364.120    23253368.2664
  23668889.370      764801.885 7    577472.10145  23668889.689    23668894.1004
  20389803.432    -1171121.601 9   -912769.04947  20389803.123    20389805.5414
  21579150.284    -2949959.939 8  -2287578.82247  21579149.456    21579152.7614
  23141635.037    -2428946.598 7  -1881130.85245  23141634.331    23141638.1854
  22847983.848    -2751553.512 8  -2124822.34345  22847983.860    22847987.6244
 01  7 17 15 58  0.0000000  0  9 23 18 17 10 30 06 15 22 26
  21281705.730    -3051725.634 8  -2366989.59647  21281705.102    21281708.2114
  22445167.609    -3850984.424 8  -2982278.25946  22445167.124    22445169.6704
  20792842.675    -2349512.038 8  -1822872.39447  20792841.995    20792844.9344
  23271850.292      629523.265 8    479175.68245  23271849.514    23271853.6554
  23689484.188      873025.341 7    661801.89245  23689484.491    23689488.5484
  20393983.216    -1149156.585 9   -895653.47547  20393982.949    20393985.2874
  21567562.140    -3010855.331 8  -2335029.72547  21567561.328    21567564.8944
  23133383.736    -2472307.448 7  -1914918.51345  23133382.983    23133386.9054
  22835630.696    -2816471.206 7  -2175407.50145  22835630.522    22835634.2064
 01  7 17 15 58 30.0000000  0  9 23 18 17 10 30 06 15 22 26
  21270367.510    -3111308.862 8  -2413418.07247  21270366.842    21270369.8994
  22426774.959    -3947638.345 8  -3057592.93946  22426774.397    22426777.0434
  20786806.614    -2381231.726 8  -1847589.02147  20786805.924    20786808.8414
  23290380.929      726902.487 8    555055.57445  23290380.085    23290384.2784
  23710094.422      981333.877 7    746198.02345  23710094.563    23710099.0564
  20398247.225    -1126749.505 9   -878193.42247  20398246.908    20398249.2634
  21556021.091    -3071504.070 8  -2382288.46247  21556020.327    21556023.8494
  23125233.266    -2515137.527 8  -1948292.55545  23125232.635    23125236.8064
  22823356.203    -2880974.450 7  -2225669.72045  22823355.920    22823359.5984
 01  7 17 15 59  0.0000000  0  9 23 18 17 10 30 06 15 22 26
  21259112.980    -3170451.826 8  -2459503.47347  21259112.333    21259115.2724
  22408436.770    -4044004.464 8  -3132683.37546  22408436.313    22408439.1684
  20780820.080    -2412690.865 8  -1872102.63947  20780819.468    20780822.3944
  23308956.628      824516.968 8    631118.74546  23308955.815    23308959.8194
  23730720.817     1089724.562 7    830658.12545  23730720.874    23730725.3464
  20402595.123    -1103900.397 9   -860388.92747  20402594.898    20402597.3384
  21544527.045    -3131906.288 8  -2429355.13247  21544526.245    21544529.6134
  23117184.146    -2557436.044 8  -1981252.42945  23117183.676    23117187.7724
  22811160.734    -2945060.748 8  -2275607.03945  22811160.632    22811164.3734
 01  7 17 15 59 30.0000000  0  9 23 18 17 10 30 06 15 22 26
  21247942.241    -3229153.922 8  -2505245.33147  21247941.656    21247944.5784
  22390153.716    -4140081.360 8  -3207548.46246  22390153.379    22390156.4004
  20774883.030    -2443890.352 8  -1896413.92947  20774882.388    20774885.3574
  23327576.337      922363.253 8    707362.55145  23327575.356    23327579.4544
  23751361.692     1198193.599 7    915179.33645  23751361.952    23751366.8584
  20407027.160    -1080609.519 8   -842240.20147  20407026.969    20407029.5184
  21533079.602    -3192062.354 8  -2476229.94747  21533078.810    21533082.2524
  23109236.127    -2599202.877 8  -2013798.03445  23109235.698    23109239.7404
  22799045.188    -3008727.581 7  -2325217.51645  22799045.099    22799048.8974
 01  7 17 16  0  0.0000000  0  9 23 18 17 10 30 06 15 22 26
  21236855.733    -3287413.583 8  -2550642.45647  21236855.201    21236858.1784
  22371926.584    -4235866.470 8  -3282186.16346  22371926.108    22371929.1584
  20768995.422    -2474829.896 8  -1920522.65747  20768994.814    20768997.8164
  23346239.503     1020438.913 7    783785.13245  23346238.516    23346242.7534
  23772017.539     1306738.689 7    999759.75745  23772017.784    23772022.3234
  20411543.544    -1056876.071 9   -823746.62347  20411543.382    20411545.8384
  21521679.369    -3251971.524 8  -2522912.40647  21521678.592    21521681.8824
  23101389.743    -2640436.567 7  -2045928.12245  23101389.093    23101393.4634
  22787010.294    -3071971.578 8  -2374498.52145  22787010.211    22787013.9114
 01  7 17 16  0 30.0000000  0  9 23 18 17 10 30 06 15 22 26
  21225853.710    -3345229.734 8  -2595693.98447  21225853.117    21225856.0954
  22353755.403    -4331357.730 8  -3356594.89046  22353754.847    22353757.7324
  20763157.357    -2505509.516 9  -1944428.85847  20763156.696    20763159.6314
  23364945.945     1118741.416 8    860384.42645  23364944.995    23364949.0844
  23792686.997     1415356.714 7   1084397.04845  23792687.195    23792691.6954
  20416144.342    -1032699.613 9   -804907.84347  20416144.097    20416146.4894
  21510326.244    -3311633.478 8  -2569402.22347  21510325.402    21510328.6764
  23093644.740    -2681135.296 8  -2077641.37245  23093644.332    23093648.5684
  22775056.513    -3134789.656 7  -2423447.59945  22775056.357    22775059.9754
 01  7 17 16  1  0.0000000  0  9 23 18 17 10 30 06 15 22 26
  21214936.266    -3402600.820 8  -2640398.69247  21214935.716    21214938.6834
  22335640.635    -4426552.463 8  -3430772.53646  22335639.988    22335642.6064
  20757368.770    -2535928.961 8  -1968132.31547  20757368.083    20757371.0634
  23383695.046     1217268.519 8    937158.74045  23383694.056    23383697.9934
  23813370.145     1524045.451 7   1169089.33645  23813370.406    23813374.2864
  20420829.457    -1008079.610 9   -785723.44047  20420829.194    20420831.5454
  21499019.854    -3371047.686 8  -2615698.96247  21499019.059    21499022.5534
  23086002.305    -2721297.394 8  -2108936.54145  23086001.723    23086006.0854
  22763184.044    -3197178.450 8  -2472062.21445  22763184.096    22763187.7784
 01  7 17 16  1 30.0000000  0  9 23 18 17 10 30 06 15 22 26
  21204103.664    -3459526.986 8  -2684756.72047  21204103.075    21204106.0114
  22317582.230    -4521449.864 8  -3504718.50746  22317581.590    22317584.0034
  20751629.367    -2566089.400 8  -1991633.97147  20751628.806    20751631.7394
  23402486.353     1316016.359 7   1014105.05445  23402485.237    23402489.1754
  23834065.770     1632800.866 7   1253833.69145  23834065.958    23834070.2434
  20425598.691     -983016.939 8   -766194.09247  20425598.373    20425600.7974
  21487760.758    -3430214.885 8  -2661803.25947  21487760.023    21487763.2534
  23078461.771    -2760923.127 7  -2139813.69045  23078461.105    23078465.3214
  22751394.116    -3259136.133 8  -2520340.84845  22751394.088    22751397.4824
 01  7 17 16  2  0.0000000  0  9 23 18 17 10 30 06 15 22 26
  21193356.243    -3516005.388 8  -2728765.83747  21193355.615    21193358.5344
  22299581.143    -4616046.111 8  -3578429.78546  22299580.472    22299582.7794
  20745939.647    -2595989.137 8  -2014932.46047  20745939.025    20745941.9934
  23421318.973     1414984.091 8   1091222.73945  23421317.938    23421322.1234
  23854773.939     1741622.184 7   1338629.34245  23854774.153    23854778.5474
  20430452.596     -957509.198 9   -746317.94847  20430452.312    20430454.8294
  21476549.150    -3489133.126 8  -2707713.58247  21476548.364    21476551.5124
  23071023.487    -2800009.863 8  -2170270.84145  23071023.093    23071027.3454
  22739686.552    -3320657.726 8  -2568279.71745  22739686.902    22739690.4724
 01  7 17 16  2 30.0000000  0  9 23 18 17 10 30 06 15 22 26
  21182693.820    -3572035.671 8  -2772425.77447  21182693.297    21182696.3634
  22281637.343    -4710340.076 8  -3651905.59246  22281636.724    22281639.3464
  20740299.434    -2625629.137 8  -2038028.55947  20740298.810    20740301.6784
  23440193.387     1514168.183 8   1168508.98945  23440192.372    23440196.2654
  23875493.694     1850505.292 7   1423473.15045  23875494.049    23875498.6574
  20435391.106     -931557.096 9   -726095.54347  20435390.813    20435393.3764
  21465384.612    -3547803.197 8  -2753430.46547  21465383.675    21465387.0244
  23063688.271    -2838557.087 8  -2200307.64345  23063687.840    23063692.1304
  22728062.765    -3381741.365 8  -2615877.31745  22728063.050    22728066.6174
 01  7 17 16  3  0.0000000  0  9 23 18 17 10 30 06 15 22 26
  21172117.025    -3627617.557 8  -2815736.30547  21172116.479    21172119.5524
  22263751.674    -4804330.164 8  -3725144.57646  22263751.036    22263753.6774
  20734708.386    -2655010.105 9  -2060922.81747  20734707.810    20734710.6814
  23459108.269     1613565.161 7   1245961.11445  23459107.208    23459111.1784
  23896224.760     1959447.140 7   1508362.71745  23896224.778    23896229.7594
  20440414.232     -905160.807 9   -705527.01047  20440413.936    20440416.5464
  21454267.100    -3606225.319 8  -2798954.17247  21454266.380    21454269.6334
  23056456.017    -2876564.098 8  -2229923.49145  23056455.428    23056459.4374
  22716522.944    -3442384.551 8  -2663131.72245  22716523.147    22716526.5514
 01  7 17 16  3 30.0000000  0  9 23 18 17 10 30 06 15 22 26
  21161625.717    -3682749.558 8  -2858696.28047  21161625.191    21161628.2904
  22245924.253    -4898014.049 8  -3798144.96746  22245923.667    22245926.3914
  20729166.793    -2684131.742 8  -2083614.99747  20729166.117    20729169.0684
  23478062.640     1713172.860 8   1323577.43445  23478061.826    23478066.0294
  23916966.396     2068445.326 7   1593296.15845  23916966.499    23916971.4644
  20445521.972     -878319.808 9   -684611.96847  20445521.670    20445524.2114
  21443197.121    -3664398.942 8  -2844284.25947  21443196.284    21443199.4874
  23049326.585    -2914029.280 8  -2259117.12245  23049325.884    23049329.9964
  22705067.668    -3502583.975 8  -2710040.31145  22705067.599    22705070.9474
 01  7 17 16  4  0.0000000  0  9 23 18 17 10 30 06 15 22 26
  21151220.512    -3737429.303 8  -2901303.85447  21151219.965    21151222.9594
  22228155.775    -4991388.427 8  -3870904.18046  22228155.189    22228157.8424
  20723674.740    -2712992.887 8  -2106104.20047  20723674.139    20723676.9184
  23497057.618     1812989.798 7   1401356.79945  23497056.536    23497060.4664
  23937718.597     2177498.049 7   1678272.10345  23937718.801    23937723.6794
  20450714.587     -851032.556 9   -663349.17947  20450714.345    20450716.7914
  21432174.683    -3722322.737 8  -2889419.66147  21432173.775    21432176.9444
  23042300.992    -2950950.827 8  -2287887.11245  23042300.069    23042303.8544
  22693697.233    -3562335.541 8  -2756599.95345  22693697.169    22693700.6974
 01  7 17 16  4 30.0000000  0  9 23 18 17 10 30 06 15 22 26
  21140901.110    -3791658.254 8  -2943560.17347  21140900.579    21140903.5344
  22210445.919    -5084453.757 8  -3943422.55846  22210445.438    22210448.0094
  20718231.652    -2741596.130 8  -2128392.44347  20718231.037    20718233.9254
  23516090.892     1913010.927 7   1479295.29045  23516089.900    23516093.8904
  23958480.466     2286600.118 7   1763286.49145  23958480.539    23958485.1834
  20455991.687     -823301.390 9   -641740.50147  20455991.442    20455993.8284
  21421199.131    -3779998.774 8  -2934361.98747  21421198.293    21421201.6054
  23035378.342    -2987330.349 8  -2316234.79945  23035377.520    23035381.1924
  22682412.414    -3621638.712 8  -2802810.12945  22682412.243    22682415.6064
 01  7 17 16  5  0.0000000  0  9 23 18 17 10 30 06 15 22 26
  21130668.055    -3845433.784 8  -2985463.16647  21130667.434    21130670.4054
  22192795.884    -5177206.094 8  -4015697.04746  22192795.159    22192797.6764
  20712838.138    -2769939.840 8  -2150478.44247  20712837.501    20712840.2704
  23535162.858     2013235.441 7   1557392.27345  23535161.757    23535166.0264
  23979251.201     2395750.541 7   1848338.58945  23979251.390    23979256.3204
  20461353.714     -795124.118 9   -619784.20947  20461353.519    20461355.7414
  21410271.229    -3837425.013 8  -2979109.69247  21410270.518    21410273.7604
  23028558.863    -3023164.587 8  -2344157.58445  23028558.191    23028562.1044
  22671213.338    -3680488.829 8  -2848667.35945  22671213.306    22671216.7494
 01  7 17 16  5 30.0000000  0  9 23 18 17 10 30 06 15 22 26
  21120521.573    -3898754.159 8  -3027011.48047  21120520.918    21120523.8074
  22175205.359    -5269643.071 8  -4087725.85346  22175204.885    22175207.4344
  20707493.996    -2798023.436 8  -2172361.76347  20707493.350    20707496.1854
  23554273.191     2113661.016 7   1635645.88045  23554272.106    23554276.4114
  24000030.521     2504947.044 7   1933426.62145  24000030.714    24000036.0384
  20466800.743     -766499.910 9   -597479.64447  20466800.569    20466802.7214
  21399391.172    -3894600.626 8  -3023662.10447  21399390.400    21399393.4664
  23021844.089    -3058451.752 7  -2371654.05145  23021843.141    23021846.9774
  22660101.437    -3738882.464 7  -2894168.83145  22660101.319    22660104.6434
 01  7 17 16  6  0.0000000  0  9 23 18 17 10 30 06 15 22 26
  21110461.431    -3951619.902 8  -3068205.54747  21110460.852    21110463.8014
  22157675.588    -5361763.775 8  -4159508.16346  22157675.021    22157677.2884
  20702199.143    -2825848.223 8  -2194043.41447  20702198.476    20702201.3144
  23573421.645     2214283.762 8   1714053.13445  23573420.370    23573424.2674
  24020818.300     2614185.499 7   2018547.28345  24020818.323    24020823.5154
  20472332.686     -737429.871 9   -574827.68547  20472332.479    20472334.6034
  21388558.339    -3951526.791 8  -3068020.12047  21388557.590    21388560.7384
  23015233.214    -3093192.215 8  -2398724.53045  23015232.386    23015235.9634
  22649076.370    -3796818.050 8  -2939313.41445  22649076.450    22649079.9344
 01  7 17 16  6 30.0000000  0  9 23 18 17 10 30 06 15 22 26
  21100488.177    -4004029.906 8  -3109044.48547  21100487.576    21100490.5224
  22140206.294    -5453566.129 8  -4231042.41646  22140205.694    22140207.8884
  20696953.500    -2853414.324 8  -2215523.49047  20696952.877    20696955.6534
  23592606.662     2315101.186 7   1792612.13145  23592605.269    23592609.2914
  24041613.490     2723463.209 7   2103698.53545  24041613.398    24041618.3614
  20477949.411     -707913.556 8   -551827.97447  20477949.221    20477951.4354
  21377773.214    -4008203.214 8  -3112183.55047  21377772.516    21377775.6274
  23008726.012    -3127385.656 8  -2425368.78445  23008725.430    23008729.2494
  22638139.296    -3854292.531 8  -2984098.67445  22638139.473    22638142.9274
 01  7 17 16  7  0.0000000  0  9 23 18 17 10 30 06 15 22 26
  21090601.841    -4055981.971 8  -3149526.59547  21090601.270    21090604.2664
  22122798.036    -5545046.775 8  -4302326.00346  22122797.526    22122799.8234
  20691757.241    -2880720.534 8  -2236801.05547  20691756.595    20691759.4724
  23611828.143     2416112.081 7   1871321.86345  23611827.002    23611831.1444
  24062415.324     2832778.458 7   2188879.09245  24062415.536    24062420.5484
  20483651.294     -677949.688 9   -528479.51747  20483651.084    20483653.4294
  21367036.055    -4064628.080 8  -3156150.96547  21367035.259    21367038.4134
  23002324.215    -3161029.575 8  -2451584.80645  23002323.224    23002327.0734
  22627290.620    -3911301.924 8  -3028521.53645  22627290.933    22627294.2264
 01  7 17 16  7 30.0000000  0  9 23 18 17 10 30 06 15 22 26
  21080802.761    -4107476.626 8  -3189652.29447  21080802.144    21080805.1564
  22105451.103    -5636205.168 8  -4373358.47446  22105450.525    22105452.9624
  20686610.280    -2907768.439 8  -2257877.34547  20686609.628    20686612.4514
  23631086.029     2517312.414 7   1950179.19145  23631084.910    23631088.9584
  24083224.075     2942127.231 7   2274085.69145  24083224.150    24083228.9814
  20489438.219     -647539.580 8   -504783.35747  20489437.967    20489440.2724
  21356346.186    -4120802.910 8  -3199923.51347  21356345.400    21356348.7304
  22996026.937    -3194124.087 8  -2477372.71745  22996025.963    22996029.4324
  22616530.864    -3967844.853 8  -3072580.91945  22616531.162    22616534.5974
 01  7 17 16  8  0.0000000  0  9 23 18 17 10 30 06 15 22 26
  21071091.020    -4158512.442 8  -3229420.44047  21071090.418    21071093.3404
  22088165.902    -5727038.831 8  -4444137.90946  22088165.422    22088167.9374
  20681512.546    -2934557.282 8  -2278751.77247  20681511.937    20681514.6694
  23650379.483     2618700.306 7   2029182.66945  23650378.354    23650382.4054
  24104038.305     3051507.424 7   2359316.78845  24104038.590    24104043.8144
  20495310.280     -616682.353 9   -480738.77947  20495309.952    20495312.1684
  21345704.205    -4176726.755 8  -3243500.52147  21345703.456    21345706.7394
  22989833.629    -3226667.547 8  -2502731.27845  22989832.950    22989836.4614
  22605860.697    -4023917.555 8  -3116273.94145  22605860.808    22605864.2254
 01  7 17 16  8 30.0000000  0  9 23 18 17 10 30 06 15 22 26
  21061466.702    -4209088.504 8  -3268830.33747  21061466.060    21061468.9704
  22070943.066    -5817545.778 8  -4514662.76446  22070942.544    22070945.0274
  20676464.117    -2961087.257 8  -2299424.47347  20676463.402    20676466.1914
  23669708.269     2720273.016 7   2108330.17545  23669706.943    23669711.3624
  24124858.224     3160916.191 7   2444570.14345  24124858.340    24124863.5574
  20501267.403     -585377.851 8   -456345.67847  20501267.058    20501269.1624
  21335110.247    -4232399.289 8  -3286881.72947  21335109.491    21335112.4274
  22983745.653    -3258659.423 8  -2527659.99245  22983744.905    22983748.7764
  22595280.409    -4079517.515 7  -3159598.52245  22595280.473    22595283.7664
 01  7 17 16  9  0.0000000  0  9 23 18 17 10 30 06 15 22 26
  21051930.031    -4259204.075 8  -3307881.40747  21051929.373    21051932.2234
  22053782.673    -5907723.973 8  -4584931.43546  22053782.164    22053784.6364
  20671464.855    -2987358.438 8  -2319895.52647  20671464.223    20671466.9514
  23689071.687     2822027.902 7   2187619.66845  23689070.327    23689074.7994
  24145683.208     3270350.806 7   2529843.64145  24145683.251    24145688.3914
  20507309.597     -553625.966 9   -431603.96647  20507309.265    20507311.3754
  21324563.698    -4287820.620 8  -3330067.11547  21324562.952    21324566.2534
  22977762.816    -3290099.360 8  -2552158.64046  22977762.225    22977766.3434
  22584790.563    -4134641.908 8  -3202552.60245  22584790.465    22584794.0544
 01  7 17 16  9 30.0000000  0  9 23 18 17 10 30 06 15 22 26
  21042480.901    -4308858.667 8  -3346573.29247  21042480.314    21042483.2714
  22036685.117    -5997572.094 8  -4654942.92346  22036684.670    22036687.0944
  20666514.762    -3013371.401 9  -2340165.36847  20666514.130    20666516.8814
  23708468.937     2923961.720 8   2267048.51345  23708467.779    23708472.0084
  24166512.284     3379808.320 7   2615135.02645  24166512.261    24166517.6454
  20513436.769     -521426.979 9   -406513.85847  20513436.493    20513438.7144
  21314065.314    -4342990.697 8  -3373056.76947  21314064.521    21314067.7744
  22971885.567    -3320986.347 8  -2576226.41046  22971884.735    22971888.6474
  22574391.877    -4189288.460 8  -3245134.28645  22574391.764    22574394.9134
 01  7 17 16 10  0.0000000  0  9 23 18 17 10 30 06 15 22 26
  21033119.771    -4358051.885 8  -3384905.63847  21033119.155    21033122.1764
  22019650.716    -6087088.635 8  -4724696.02046  22019650.163    22019652.6744
  20661613.736    -3039126.512 9  -2360234.28347  20661613.043    20661615.8504
  23727899.830     3026071.647 7   2346614.64145  23727898.867    23727902.9474
  24187345.505     3489285.458 7   2700441.59345  24187345.368    24187351.0714
  20519648.973     -488781.157 9   -381075.57347  20519648.753    20519651.1634
  21303614.694    -4397909.457 8  -3415850.62047  21303613.955    21303616.9784
  22966113.327    -3351319.811 8  -2599862.88346  22966112.431    22966116.5634
  22564084.170    -4243454.690 8  -3287341.73145  22564084.249    22564087.5304
 01  7 17 16 10 30.0000000  0  9 23 18 17 10 30 06 15 22 26
  21023846.780    -4406781.989 8  -3422877.12947  21023846.164    21023849.1564
  22002679.932    -6176270.317 8  -4794188.20746  22002679.422    22002681.9304
  20656761.923    -3064623.152 8  -2380101.78847  20656761.242    20656764.0114
  23747363.573     3128355.828 7   2426316.53345  23747362.702    23747366.9854
  24208181.594     3598780.028 7   2785761.85145  24208181.754    24208187.4074
  20525946.663     -455687.689 9   -355288.48147  20525946.353    20525948.6604
  21293211.785    -4452576.247 8  -3458448.08647  21293210.957    21293214.2274
  22960446.692    -3381098.309 8  -2623066.87446  22960445.954    22960449.5444
  22553868.869    -4297137.251 8  -3329172.24845  22553868.931    22553872.0494
 01  7 17 16 11  0.0000000  0  9 23 18 17 10 30 06 15 22 26
  21014662.193    -4455047.777 8  -3460486.82047  21014661.503    21014664.5314
  21985773.236    -6265115.188 8  -4863417.95746  21985772.716    21985775.3234
  20651959.294    -3089860.857 8  -2399767.54647  20651958.686    20651961.3994
  23766860.654     3230812.294 8   2506152.65145  23766859.934    23766863.7814
  24229021.190     3708289.646 7   2871093.73845  24229021.137    24229026.2094
  20532329.576     -422145.980 9   -329152.10747  20532329.214    20532331.4574
  21282857.206    -4506990.316 8  -3500848.64047  21282856.455    21282859.5064
  22954885.797    -3410321.084 8  -2645837.88246  22954885.014    22954888.9394
  22543746.340    -4350332.766 8  -3370623.29945  22543746.099    22543749.2694
 01  7 17 16 11 30.0000000  0  9 23 18 17 10 30 06 15 22 26
  21005565.847    -4502849.359 8  -3497734.78547  21005565.220    21005568.2134
  21968931.008    -6353622.092 8  -4932384.33946  21968930.446    21968932.9354
  20647205.813    -3114840.614 8  -2419232.27747  20647205.177    20647207.9324
  23786390.148     3333437.675 7   2586120.40745  23786389.305    23786392.6674
  24249862.434     3817811.146 7   2956434.97945  24249862.459    24249867.4574
  20538797.572     -388156.714 9   -302666.98647  20538797.216    20538799.3614
  21272550.630    -4561152.145 8  -3543052.64347  21272549.850    21272552.9074
  22949430.593    -3438988.073 8  -2668175.76045  22949429.790    22949433.4764
  22533716.645    -4403039.404 8  -3411693.36446  22533716.543    22533719.5984
 01  7 17 16 12  0.0000000  0  9 23 18 17 10 30 06 15 22 26
  20996557.971    -4550185.982 8  -3534620.45047  20996557.336    20996560.2574
  21952153.492    -6441789.311 8  -5001086.01646  21952152.940    21952155.0794
  20642501.382    -3139562.596 8  -2438496.17847  20642500.734    20642503.4634
  23805950.685     3436229.439 7   2666217.80245  23805949.894    23805953.5454
  24270705.431     3927341.618 7   3041783.14945  24270705.401    24270710.6334
  20545350.662     -353720.042 9   -275833.23447  20545350.320    20545352.4304
  21262291.824    -4615061.864 8  -3585060.21147  21262291.042    21262294.0744
  22944081.626    -3467098.283 8  -2690079.84546  22944080.663    22944084.4934
  22523780.011    -4455254.593 8  -3452380.51345  22523780.181    22523783.2874
 01  7 17 16 12 30.0000000  0  9 23 18 17 10 30 06 15 22 26
  20987638.916    -4597055.856 8  -3571142.41047  20987638.320    20987641.2174
  21935441.185    -6529613.544 8  -5069520.44446  21935440.600    21935442.5384
  20637846.220    -3164025.684 8  -2457558.31347  20637845.617    20637848.3284
  23825542.449     3539185.636 7   2746443.34545  23825541.641    23825545.5424
  24291550.284     4036879.396 7   3127137.01645  24291550.419    24291555.5574
  20551989.142     -318834.610 9   -248649.79747  20551988.834    20551990.9074
  21252081.519    -4668718.017 8  -3626870.18147  21252080.711    21252083.7494
  22938838.712    -3494649.709 8  -2711548.44146  22938837.913    22938841.5874
  22513938.146    -4506974.508 8  -3492681.72645  22513938.195    22513941.3164
 01  7 17 16 13  0.0000000  0  9 23 18 17 10 30 06 15 22 26
  20978808.737    -4643458.859 8  -3607300.58247  20978808.113    20978811.0644
  21918794.153    -6617093.536 8  -5137686.63446  21918793.665    21918795.6694
  20633240.148    -3188230.575 8  -2476419.27147  20633239.516    20633242.2404
  23845164.776     3642303.575 7   2826794.92545  23845164.126    23845168.3024
  24312395.333     4146421.030 7   3212493.86045  24312395.389    24312401.1924
  20558712.833     -283501.331 9   -221117.39447  20558712.549    20558714.6784
  21241919.203    -4722121.030 8  -3668482.90447  21241918.456    21241921.4454
  22933701.949    -3521642.767 8  -2732581.99846  22933701.139    22933705.1514
  22504190.734    -4558197.201 8  -3532595.47045  22504190.773    22504193.8464
 01  7 17 16 13 30.0000000  0  9 23 18 17 10 30 06 15 22 26
  20970067.571    -4689393.963 8  -3643094.14947  20970066.875    20970069.8914
  21902213.136    -6704227.329 8  -5205583.07546  21902212.584    21902214.7594
  20628683.326    -3212177.035 8  -2495078.85447  20628682.680    20628685.4294
  23864818.051     3745580.914 7   2907270.67245  23864817.361    23864821.5494
  24333240.921     4255964.274 7   3297851.99545  24333240.998    24333246.5904
  20565521.857     -247719.611 9   -193235.55747  20565521.605    20565523.7534
  21231805.326    -4775270.174 8  -3709897.82047  21231804.548    21231807.4714
  22928671.953    -3548076.777 8  -2753179.93145  22928670.971    22928674.8144
  22494538.533    -4608919.708 8  -3572119.49445  22494538.704    22494541.5734
 01  7 17 16 14  0.0000000  0  9 23 18 17 10 30 06 15 22 26
  20961415.268    -4734861.888 8  -3678523.67747  20961414.635    20961417.5524
  21885697.986    -6791014.023 8  -5273209.04346  21885697.527    21885699.8504
  20624175.361    -3235866.360 8  -2513538.06447  20624174.711    20624177.4804
  23884500.571     3849013.896 7   2987867.75245  23884499.726    23884504.3404
  24354086.315     4365505.024 7   3383208.15845  24354086.296    24354091.7174
  20572416.071     -211490.792 8   -165005.31047  20572415.753    20572417.9244
  21221739.349    -4828166.352 8  -3751115.58647  21221738.646    21221741.7024
  22923748.220    -3573952.094 8  -2773342.51845  22923747.200    22923750.7314
  22484981.394    -4659140.647 8  -3611252.66145  22484981.790    22484984.8934
 01  7 17 16 14 30.0000000  0  9 23 18 17 10 30 06 15 22 26
  20952852.615    -4779859.556 8  -3713586.78947  20952851.962    20952854.8004
  21869249.908    -6877449.645 8  -5340561.44046  21869249.324    21869251.6484
  20619716.872    -3259296.268 8  -2531795.12747  20619716.188    20619718.9704
  23904213.054     3952602.417 7   3068585.97545  23904212.038    23904216.7664
  24374930.726     4475043.285 7   3468562.40945  24374930.887    24374936.5004
  20579395.776     -174812.354 8   -136424.74247  20579395.431    20579397.6584
  21211722.285    -4880807.344 8  -3792134.55947  21211721.540    21211724.4024
  22918931.152    -3599265.188 8  -2793066.99345  22918930.234    22918933.7394
  22475521.112    -4708854.891 8  -3649991.01845  22475521.401    22475524.5394
 01  7 17 16 15  0.0000000  0  9 23 18 17 10 30 06 15 22 26
  20944378.734    -4824390.365 8  -3748286.10247  20944378.069    20944380.8594
  21852868.231    -6963536.293 8  -5407641.90646  21852867.624    21852869.8614
  20615306.825    -3282470.970 8  -2549853.34447  20615306.181    20615308.9524
  23923953.579     4056339.719 7   3149420.17545  23923952.512    23923957.0934
  24395773.956     4584572.030 7   3553909.14145  24395774.076    24395779.5744
  20586460.126     -137688.628 9   -107497.18347  20586459.850    20586462.1124
  21201752.879    -4933196.835 8  -3832957.50547  21201752.063    21201755.0764
  22914220.640    -3624019.783 8  -2812356.30445  22914219.596    22914223.1264
  22466156.854    -4758064.217 8  -3688335.90945  22466157.113    22466160.2794
 01  7 17 16 15 30.0000000  0  9 23 18 17 10 30 06 15 22 26
  20935994.349    -4868450.179 8  -3782618.40847  20935993.733    20935996.4654
  21836553.940    -7049268.933 8  -5474446.51546  21836553.289    21836555.3454
  20610946.078    -3305387.003 8  -2567709.99647  20610945.439    20610948.2574
  23943723.014     4160226.783 7   3230371.10945  23943721.946    23943726.3424
  24416614.774     4694091.886 7   3639249.09545  24416614.939    24416620.4814
  20593609.974     -100116.281 9    -78220.04547  20593609.650    20593611.8864
  21191831.955    -4985331.161 8  -3873581.63047  21191831.181    21191834.2774
  22909617.127    -3648212.472 7  -2831207.71145  22909615.924    22909619.1984
  22456889.706    -4806762.532 8  -3726282.60945  22456890.209    22456893.4624
 01  7 17 16 16  0.0000000  0  9 23 18 17 10 30 06 15 22 26
  20927699.948    -4912037.827 8  -3816582.79947  20927699.315    20927702.0734
  21820307.339    -7134644.568 8  -5540972.94446  21820306.776    21820308.8074
  20606634.685    -3328043.765 8  -2585364.62047  20606634.034    20606636.7484
  23963520.268     4264261.821 7   3311437.24645  23963519.231    23963523.8704
  24437454.042     4803600.945 7   3724580.50845  24437453.893    24437459.8934
  20600845.389      -62094.661 8    -48592.83347  20600844.992    20600847.1604
  21181959.795    -5037209.505 8  -3914006.31647  21181959.064    21181962.0504
  22905120.072    -3671841.949 8  -2849620.31246  22905119.176    22905122.9044
  22447720.742    -4854946.573 8  -3763828.60746  22447721.036    22447724.3494
 01  7 17 16 16 30.0000000  0  9 23 18 17 10 30 06 15 22 26
  20919494.878    -4955156.025 8  -3850181.38547  20919494.176    20919496.9794
  21804128.322    -7219665.173 8  -5607222.74146  21804127.816    21804129.8994
  20602371.935    -3350444.837 8  -2602819.99547  20602371.275    20602374.0434
  23983344.619     4368438.894 7   3392614.14145  23983343.646    23983347.7264
  24458289.905     4913093.009 7   3809898.73845  24458289.897    24458295.3104
  20608165.455      -23627.278 9    -18618.27847  20608165.084    20608167.2764
  21172135.913    -5088834.999 8  -3954233.98247  21172135.096    21172138.0014
  22900730.313    -3694910.649 8  -2867595.92646  22900729.494    22900732.9964
  22438649.697    -4902617.328 8  -3800974.60646  22438649.726    22438652.9164
 01  7 17 16 17  0.0000000  0  9 23 18 17 10 30 06 15 22 26
  20911379.603    -4997801.293 8  -3883411.43847  20911378.974    20911381.7804
  21788017.974    -7304325.859 8  -5673192.07346  21788017.450    21788019.4704
  20598158.359    -3372587.340 8  -2620073.91347  20598157.712    20598160.4314
  24003195.930     4472758.447 7   3473902.01845  24003194.983    24003199.6854
  24479122.851     5022568.532 7   3895203.97245  24479122.634    24479128.2764
  20615570.724       15288.668 9     11705.81247  20615570.437    20615572.7814
  21162360.464    -5140204.719 8  -3994262.28147  21162359.663    21162362.8494
  22896447.963    -3717415.174 8  -2885131.93946  22896447.000    22896450.7724
  22429676.962    -4949769.410 8  -3837716.46246  22429676.888    22429680.1804
 01  7 17 16 17 30.0000000  0  9 23 18 17 10 30 06 15 22 26
  20903354.228    -5039974.951 8  -3916274.01847  20903353.590    20903356.3784
  21771975.948    -7388626.769 8  -5738881.07546  21771975.455    21771977.5654
  20593993.533    -3394473.238 8  -2637127.85247  20593992.945    20593995.6674
  24023073.782     4577215.684 7   3555297.13245  24023072.912    24023077.3274
  24499950.933     5132022.590 7   3980492.66345  24499951.307    24499956.0704
  20623061.157       54651.305 9     42377.98847  20623060.882    20623063.3624
  21152633.576    -5191320.158 8  -4034092.49847  21152632.767    21152635.9144
  22892272.218    -3739357.263 8  -2902229.65345  22892271.331    22892275.0074
  22420802.967    -4996402.162 8  -3874053.64346  22420802.961    22420806.2024
 01  7 17 16 18  0.0000000  0  9 23 18 17 10 30 06 15 22 26
  20895419.159    -5081674.179 8  -3948766.90247  20895418.503    20895421.3394
  21756003.295    -7472563.853 8  -5804286.56447  21756002.683    21756004.8394
  20589878.078    -3416100.348 8  -2653980.14647  20589877.444    20589880.1744
  24042977.238     4681811.015 7   3636799.98445  24042976.574    24042980.9844
  24520775.633     5241455.088 7   4065764.33345  24520775.889    24520781.4554
  20630637.121       94462.885 8     73399.97047  20630636.837    20630639.3344
  21142955.520    -5242178.865 8  -4073722.65447  21142954.657    21142957.6374
  22888204.418    -3760734.316 7  -2918887.12146  22888203.547    22888207.2744
  22412028.882    -5042510.836 8  -3909982.48146  22412028.675    22412032.0134
 01  7 17 16 18 30.0000000  0  9 23 18 17 10 30 06 15 22 26
  20887573.681    -5122901.480 8  -3980892.05647  20887573.104    20887575.9954
  21740099.633    -7556138.267 8  -5869409.43147  21740099.033    21740101.1684
  20585811.346    -3437471.678 8  -2670633.12947  20585810.650    20585813.3604
  24062906.574     4786538.852 7   3718405.97845  24062905.837    24062910.3264
  24541595.296     5350860.373 7   4151014.98545  24541595.317    24541600.8734
  20638297.750      134720.180 9    104769.26447  20638297.564    20638300.0764
  21133325.717    -5292783.704 8  -4113154.98547  21133324.884    21133327.8484
  22884243.543    -3781548.752 8  -2935106.15246  22884242.629    22884246.4464
  22403354.536    -5088095.945 8  -3945503.29146  22403354.111    22403357.4064
 01  7 17 16 19  0.0000000  0  9 23 18 17 10 30 06 15 22 26
  20879818.863    -5163653.745 8  -4012647.05647  20879818.252    20879821.0354
  21724265.905    -7639345.780 8  -5934246.42347  21724265.244    21724267.2704
  20581793.677    -3458584.639 8  -2687084.79247  20581793.021    20581795.6934
  24082860.977     4891399.207 7   3800115.24545  24082860.232    24082864.4434
  24562409.150     5460238.370 7   4236244.27945  24562409.387    24562415.4284
  20646043.730      175425.527 8    136487.70447  20646043.521    20646046.0474
  21123744.624    -5343131.696 8  -4152387.15047  21123743.837    21123746.9904
  22880390.240    -3801797.233 8  -2950884.21045  22880389.385    22880393.3044
  22394780.433    -5133152.537 8  -3980612.30746  22394780.087    22394783.4174
 01  7 17 16 19 30.0000000  0  9 23 18 17 10 30 06 15 22 26
  20872154.338    -5203930.929 9  -4044031.86047  20872153.758    20872156.5694
  21708502.093    -7722184.867 8  -5998796.33347  21708501.497    21708503.5664
  20577825.095    -3479439.765 9  -2703335.53847  20577824.389    20577827.1234
  24102840.114     4996389.051 7   3881925.47145  24102839.231    24102843.0844
  24583217.421     5569586.077 7   4321449.91345  24583217.592    24583223.6634
  20653875.027      216578.477 9    168554.91547  20653874.740    20653877.1604
  21114212.742    -5393222.988 8  -4191419.34047  21114211.995    21114214.9154
  22876645.069    -3821479.789 8  -2966221.28845  22876644.119    22876647.7414
  22386307.454    -5177678.611 8  -4015307.91946  22386307.122    22386310.3974
 01  7 17 16 20  0.0000000  0  9 23 18 17 10 30 06 15 22 26
  20864579.959    -5243734.866 9  -4075047.90847  20864579.362    20864582.1284
  21692808.202    -7804655.993 8  -6063059.52247  21692807.602    21692809.8304
  20573905.111    -3500039.423 8  -2719387.21847  20573904.423    20573907.1414
  24122842.986     5101503.731 7   3963832.94945  24122841.945    24122846.2924
  24604019.305     5678898.195 7   4406627.89145  24604019.233    24604024.9614
  20661790.924      258176.575 9    200968.99247  20661790.660    20661793.0454
  21104728.995    -5443059.703 8  -4230253.12247  21104728.201    21104731.1674
  22873006.971    -3840598.972 8  -2981119.32246  22873006.018    22873009.6504
  22377935.364    -5221674.151 8  -4049590.10946  22377934.948    22377938.1664
 01  7 17 16 20 30.0000000  0  9 23 18 17 10 30 06 15 22 26
  20857096.418    -5283061.376 8  -4105691.92747  20857095.843    20857098.5954
  21677185.333    -7886753.866 8  -6127031.86947  21677184.748    21677187.0174
  20570034.398    -3520379.884 8  -2735236.94147  20570033.782    20570036.5154
  24142869.440     5206744.724 7   4045838.80345  24142868.390    24142872.7074
  24624814.302     5788176.194 7   4491779.20645  24624814.304    24624820.6614
  20669792.164      300223.412 9    233732.73647  20669791.931    20669794.2514
  21095294.599    -5492637.900 8  -4268885.48647  21095293.822    21095296.7534
  22869476.432    -3859150.693 8  -2995575.22946  22869475.650    22869479.3124
  22369665.482    -5265132.937 8  -4083454.07246  22369665.043    22369668.3384
 01  7 17 16 21  0.0000000  0  9 23 18 17 10 30 06 15 22 26
  20849703.252    -5321912.772 8  -4135965.72347  20849702.621    20849705.2894
  21661633.483    -7968479.541 8  -6190714.19347  21661632.913    21661635.0704
  20566212.523    -3540463.925 8  -2750886.84547  20566211.878    20566214.6124
  24162919.509     5312106.744 7   4127939.06145  24162918.299    24162922.2544
  24645602.003     5897414.579 7   4576899.74945  24645602.293    24645607.6374
  20677878.142      342715.914 9    266843.75547  20677877.893    20677880.4024
  21085908.833    -5541960.160 8  -4307318.40547  21085908.110    21085911.0844
  22866054.068    -3877136.927 8  -3009590.51946  22866053.061    22866056.6534
  22361497.540    -5308055.408 8  -4116900.13346  22361497.087    22361500.3684
 01  7 17 16 21 30.0000000  0  9 23 18 17 10 30 06 15 22 26
  20842400.493    -5360288.393 8  -4165868.79747  20842399.917    20842402.6354
  21646152.794    -8049831.136 8  -6254105.01047  21646152.181    21646154.2724
  20562439.487    -3560291.553 8  -2766336.95347  20562438.820    20562441.5184
  24182991.572     5417587.638 7   4210131.80445  24182990.365    24182995.0254
  24666382.148     6006610.805 7   4661987.35145  24666381.919    24666387.8724
  20686049.055      385654.044 8    300302.00647  20686048.767    20686051.3384
  21076571.898    -5591026.165 8  -4345551.65247  21076571.174    21076574.1384
  22862738.853    -3894557.148 8  -3023164.69446  22862737.927    22862741.5244
  22353431.919    -5350439.287 8  -4149926.48746  22353431.721    22353434.8834
 01  7 17 16 22  0.0000000  0  9 23 18 17 10 30 06 15 22 26
  20835188.811    -5398185.918 8  -4195399.31947  20835188.219    20835191.0224
  21630743.999    -8130804.872 8  -6317201.39247  21630743.378    21630745.4654
  20558715.593    -3579860.831 8  -2781585.74747  20558714.968    20558717.6634
  24203086.447     5523186.831 7   4292416.85145  24203085.133    24203089.6034
  24687153.671     6115764.353 7   4747041.69545  24687153.440    24687159.3364
  20694305.121      429039.240 8    334108.63747  20694304.811    20694307.3234
  21067284.072    -5639833.798 8  -4383583.56747  21067283.353    21067286.2974
  22859531.837    -3911409.495 8  -3036296.39846  22859531.125    22859534.8544
  22345469.971    -5392280.149 8  -4182529.73446  22345469.674    22345472.8964
 01  7 17 16 22 30.0000000  0  9 23 18 17 10 30 06 15 22 26
  20828067.835    -5435606.646 8  -4224558.30447  20828067.279    20828070.1094
  21615406.986    -8211400.798 8  -6380003.37547  21615406.406    21615408.5874
  20555040.514    -3599173.493 8  -2796634.57847  20555039.892    20555042.5654
  24223203.255     5628900.388 7   4374791.02545  24223201.796    24223205.9704
  24707915.676     6224870.784 7   4832059.40045  24707915.644    24707922.2584
  20702645.736      472869.789 9    368262.29147  20702645.496    20702647.8594
  21058045.262    -5688384.440 8  -4421415.24547  21058044.529    21058047.4784
  22856432.754    -3927695.768 8  -3048987.01346  22856432.011    22856435.5584
  22337611.372    -5433577.531 8  -4214709.49346  22337611.133    22337614.2134
 01  7 17 16 23  0.0000000  0  9 23 18 17 10 30 06 15 22 26
  20821037.704    -5472550.297 8  -4253345.54847  20821037.116    20821039.9264
  21600142.251    -8291617.123 8  -6442509.58847  21600141.753    21600143.9774
  20551414.268    -3618229.555 8  -2811483.45147  20551413.632    20551416.3584
  24243341.317     5734725.639 7   4457252.11245  24243339.954    24243344.4994
  24728668.849     6333927.503 7   4917038.29844  24728668.669    24728675.3764
  20711071.081      517145.581 8    402762.88947  20711070.834    20711073.3014
  21048855.222    -5736677.842 8  -4459046.44847  21048854.521    21048857.5374
  22853441.263    -3943415.429 8  -3061236.11546  22853440.492    22853444.2894
  22329856.523    -5474329.078 8  -4246463.92146  22329856.242    22329859.3064
 01  7 17 16 23 30.0000000  0  9 23 18 17 10 30 06 15 22 26
  20814098.727    -5509015.156 8  -4281759.72047  20814098.190    20814100.9104
  21584950.453    -8371451.115 8  -6504717.87247  21584949.840    21584952.1024
  20547837.143    -3637027.691 8  -2826131.36647  20547836.489    20547839.1634
  24263499.934     5840661.707 7   4539799.73445  24263498.920    24263503.3834
  24749412.278     6442933.626 7   5001977.79244  24749412.147    24749419.2584
  20719581.424      561867.573 8    437611.15647  20719581.193    20719583.7084
  21039714.590    -5784712.396 8  -4496475.97147  21039713.879    21039716.8914
  22850558.319    -3958566.603 8  -3073042.22346  22850557.578    22850561.0744
  22322206.308    -5514531.156 8  -4277790.19346  22322206.059    22322209.0894
 01  7 17 16 24  0.0000000  0  9 23 18 17 10 30 06 15 22 26
  20807250.594    -5545002.738 8  -4309801.97547  20807249.961    20807252.6704
  21569831.225    -8450902.885 8  -6566628.31147  21569830.637    21569832.8574
  20544308.744    -3655569.902 8  -2840579.83647  20544308.072    20544310.7714
  24283679.332     5946704.418 7   4622430.30845  24283678.208    24283682.6724
  24770144.902     6551884.092 7   5086873.89245  24770145.044    24770151.5464
  20728176.312      607033.590 8    472805.40947  20728176.122    20728178.5494
  21030622.927    -5832489.908 8  -4533705.19547  21030622.153    21030625.0624
  22847783.292    -3973151.039 8  -3084406.73146  22847782.409    22847785.6164
  22314660.717    -5554183.651 8  -4308688.20246  22314660.492    22314663.4494
 01  7 17 16 24 30.0000000  0  9 23 18 17 10 30 06 15 22 26
  20800493.534    -5580511.071 8  -4337470.78847  20800492.899    20800495.6734
  21554785.362    -8529968.839 8  -6628238.12247  21554784.823    21554787.0874
  20540829.288    -3673854.482 8  -2854827.57347  20540828.630    20540831.2974
  24303879.154     6052852.842 7   4705143.32945  24303877.985    24303882.3244
  24790866.266     6660778.401 7   5171726.22145  24790866.910    24790874.2504
  20736856.034      652645.080 9    508346.80647  20736855.793    20736858.2534
  21021580.377    -5880008.556 8  -4570732.70847  21021579.643    21021582.5884
  22845115.877    -3987167.289 8  -3095328.51346  22845115.095    22845118.4864
  22307220.296    -5593282.548 8  -4339154.86046  22307220.192    22307223.2664
 01  7 17 16 25  0.0000000  0  9 23 18 17 10 30 06 15 22 26
  20793827.513    -5615540.757 8  -4364766.62947  20793826.923    20793829.7704
  21539813.108    -8608648.359 8  -6689546.79147  21539812.568    21539814.6984
  20537398.687    -3691882.374 8  -2868875.28847  20537398.025    20537400.7234
  24324097.944     6159104.176 7   4787936.47945  24324096.938    24324101.4444
  24811577.304     6769613.069 7   5256532.05644  24811578.051    24811584.9284
  20745620.242      698700.780 8    544234.33547  20745619.926    20745622.2604
  21012587.109    -5927268.760 8  -4607558.83647  21012586.299    21012589.2024
  22842556.672    -4000616.353 8  -3105808.31446  22842555.738    22842559.2244
  22299885.606    -5631826.639 8  -4369189.15746  22299885.421    22299888.5444
 01  7 17 16 25 30.0000000  0  8 23 18 17 10 06 15 22 26
  20787253.538    -5650087.498 9  -4391686.15647  20787252.934    20787255.7094
  21524915.481    -8686935.826 8  -6750549.97747  21524914.932    21524917.0894
  20534017.727    -3709649.680 8  -2882719.94447  20534017.016    20534019.7024
  24344336.995     6265459.729 7   4870810.91645  24344335.926    24344339.8064
  20754469.593      745204.273 9    580470.80447  20754469.270    20754471.6724
  21003643.846    -5974266.466 8  -4644180.41447  21003642.991    21003645.9464
  22840106.057    -4013493.733 8  -3115842.62446  22840105.285    22840108.9764
  22292657.724    -5669809.714 8  -4398786.37246  22292657.514    22292660.7244
 01  7 17 16 26  0.0000000  0  8 23 18 17 10 06 15 22 26
  20780770.585    -5684155.858 8  -4418232.91747  20780769.932    20780772.7094
  21510091.825    -8764834.398 8  -6811250.14747  21510091.323    21510093.4414
  20530685.352    -3727161.191 8  -2896365.28947  20530684.683    20530687.4054
  24364594.315     6371912.543 7   4953761.11845  24364593.194    24364597.5474
  20763403.063      792150.358 8    617052.15047  20763402.775    20763405.2064
  20994749.512    -6021006.185 8  -4680600.96347  20994748.688    20994751.6474
  22837763.413    -4025803.867 8  -3125434.96546  22837762.725    22837766.2074
  22285536.259    -5707234.361 8  -4427948.41746  22285535.885    22285539.0514
 01  7 17 16 26 30.0000000  0  8 23 18 17 10 06 15 22 26
  20774378.575    -5717746.202 8  -4444407.20247  20774377.957    20774380.6434
  21495342.460    -8842343.184 8  -6871646.59447  21495341.984    21495344.0444
  20527401.561    -3744417.556 8  -2909811.81247  20527400.916    20527403.6144
  24384869.124     6478459.664 7   5036784.67945  24384868.177    24384873.2024
  20772420.692      839538.130 8    653977.66447  20772420.373    20772422.7874
  20985904.216    -6067488.533 8  -4716820.98547  20985903.372    20985906.3034
  22835528.901    -4037547.680 8  -3134586.00746  22835528.013    22835531.4294
  22278520.687    -5744099.373 8  -4456674.36146  22278520.542    22278523.7224
 01  7 17 16 27  0.0000000  0  8 23 18 17 10 06 15 22 26
  20768077.688    -5750857.168 8  -4470207.93847  20768077.049    20768079.8114
  21480667.866    -8919459.532 8  -6931737.23647  21480667.313    21480669.2714
  20524166.562    -3761417.771 8  -2923058.73547  20524165.875    20524168.5524
  24405162.416     6585099.279 7   5119880.58645  24405161.138    24405165.1554
  20781522.442      887368.355 8    691247.93547  20781522.122    20781524.6054
  20977108.120    -6113712.090 8  -4752839.32747  20977107.381    20977110.2944
  22833402.052    -4048724.493 8  -3143295.20346  22833401.135    22833404.3724
  22271612.380    -5780401.508 8  -4484961.71846  22271612.454    22271615.7124
 01  7 17 16 27 30.0000000  0  8 23 18 17 10 06 15 22 26
  20761868.030    -5783488.927 8  -4495635.26747  20761867.408    20761870.1454
  21466067.929    -8996182.318 8  -6991521.17947  21466067.391    21466069.3634
  20520980.205    -3778162.277 8  -2936106.40147  20520979.512    20520982.2484
  24425472.436     6691829.297 7   5203046.80445  24425471.110    24425475.7494
  20790708.208      935640.202 8    728862.32047  20790707.972    20790710.4684
  20968361.254    -6159676.984 8  -4788656.12247  20968360.446    20968363.5414
  22831383.370    -4059334.478 8  -3151562.76046  22831382.303    22831385.4974
  22264811.647    -5816139.086 8  -4512809.18146  22264811.762    22264814.9644
 01  7 17 16 28  0.0000000  0  8 23 18 17 10 06 15 22 26
  20755749.984    -5815640.018 8  -4520688.04847  20755749.324    20755752.0094
  21451543.407    -9072508.364 8  -7050995.99547  21451542.916    21451544.9604
  20517842.791    -3794649.618 8  -2948953.68947  20517842.103    20517844.7854
  24445799.149     6798648.690 7   5286282.49245  24445798.085    24445803.5964
  20799978.301      984354.765 8    766821.70347  20799978.005    20799980.6284
  20959664.037    -6205381.476 8  -4824270.00947  20959663.277    20959666.1954
  22829472.501    -4069375.688 8  -3159387.05946  22829471.446    22829474.6254
  22258119.391    -5851308.530 8  -4540213.92946  22258119.315    22258122.3294
 01  7 17 16 28 30.0000000  0  8 23 18 17 10 06 15 22 26
  20749723.163    -5847311.321 8  -4545366.97447  20749722.496    20749725.2524
  21437094.687    -9148437.158 8  -7110161.25647  21437094.118    21437096.0814
  20514754.042    -3810880.838 8  -2961601.39947  20514753.392    20514756.1344
  24466142.589     6905554.253 7   5369585.55045  24466141.823    24466146.7854
  20809332.317     1033510.429 8    805124.78747  20809332.009    20809334.6364
  20951016.108    -6250826.472 8  -4859681.68647  20951015.334    20951018.2994
  22827669.658    -4078849.482 8  -3166769.26446  22827668.623    22827672.1194
  22251535.233    -5885909.099 8  -4567175.41246  22251535.023    22251537.9594
 01  7 17 16 29  0.0000000  0  8 23 18 17 10 06 15 22 26
  20743787.671    -5878502.068 8  -4569671.44447  20743787.025    20743789.7724
  21422721.819    -9223966.788 8  -7169015.48647  21422721.299    21422723.2624
  20511714.178    -3826855.515 8  -2974049.20747  20511713.516    20511716.2464
  24486502.259     7012544.180 7   5452954.33645  24486501.287    24486506.3514
  20818770.297     1083107.293 8    843771.64747  20818770.065    20818772.5144
  20942417.811    -6296011.229 8  -4894890.59647  20942417.016    20942419.8964
  22825974.747    -4087755.688 8  -3173709.18046  22825973.828    22825977.1294
  22245059.788    -5919938.234 8  -4593691.61146  22245059.486    22245062.4644
 01  7 17 16 29 30.0000000  0  8 23 18 17 10 06 15 22 26
  20737943.720    -5909212.078 8  -4593601.29747  20737943.101    20737945.7974
  21408425.285    -9299095.595 8  -7227557.36847  21408424.766    21408426.6864
  20508723.069    -3842573.671 8  -2986297.11847  20508722.397    20508725.2074
  24506877.466     7119616.021 7   5536386.81145  24506876.342    24506881.6544
  20828292.191     1133144.824 8    882761.91047  20828291.963    20828294.4044
  20933868.996    -6340935.739 8  -4929896.68347  20933868.135    20933871.0754
  22824387.708    -4096094.760 8  -3180207.15746  22824386.746    22824390.3914
  22238693.139    -5953393.995 8  -4619760.99146  22238693.024    22238696.0824
 01  7 17 16 30  0.0000000  0  8 23 18 17 10 06 15 22 26
  20732191.705    -5939439.350 8  -4617155.00547  20732191.053    20732193.6894
  21394205.570    -9373820.492 8  -7285784.53347  21394205.110    21394207.0054
  20505781.155    -3858033.544 8  -2998343.77647  20505780.534    20505783.2564
  24527267.793     7226768.982 7   5619882.57245  24527266.927    24527271.9504
  20837898.087     1183624.317 8    922096.55647  20837897.853    20837900.4394
  20925369.981    -6385597.747 8  -4964698.25647  20925369.188    20925372.0924
  22822909.477    -4103864.400 8  -3186261.43646  22822908.538    22822911.7344
  22232436.231    -5986272.651 8  -4645380.71346  22232436.454    22232439.5214
 01  7 17 16 30 30.0000000  0  8 23 18 17 10 06 15 22 26
  20726530.978    -5969186.529 9  -4640334.61647  20726530.322    20726533.0624
  21380062.601    -9448142.410 8  -7343697.68147  21380062.041    21380064.0024
  20502887.902    -3873237.813 8  -3010191.25847  20502887.266    20502890.0224
  24547672.759     7333998.475 7   5703438.06745  24547671.710    24547676.4074
  20847587.706     1234542.918 9    961773.36447  20847587.455    20847589.9744
  20916920.701    -6429999.775 8  -4999297.23447  20916919.838    20916922.6604
  22821538.881    -4111067.275 8  -3191874.09546  22821537.808    22821541.2314
  22226289.350    -6018574.896 8  -4670551.30246  22226289.440    22226292.4604
 01  7 17 16 31  0.0000000  0  8 23 18 17 10 06 15 22 26
  20720961.736    -5998452.904 8  -4663139.56147  20720961.127    20720963.8234
  21365996.641    -9522059.149 8  -7401295.11747  21365996.139    21365998.0394
  20500043.402    -3888185.820 9  -3021839.07247  20500042.736    20500045.5134
  24568092.449     7441303.221 7   5787052.02245  24568091.663    24568096.5044
  20857360.980     1285900.658 8   1001792.34847  20857360.610    20857362.9384
  20908520.744    -6474140.781 8  -5033692.80647  20908519.963    20908522.9874
  22820276.008    -4117703.007 8  -3197044.77846  22820274.973    22820278.4284
  22220252.427    -6050298.247 8  -4695270.79746  22220252.599    22220255.7754
 01  7 17 16 31 30.0000000  0  8 23 18 17 10 06 15 22 26
  20715484.022    -6027238.428 8  -4685569.82747  20715483.389    20715486.1034
  21352008.055    -9595569.344 8  -7458575.75847  21352007.583    21352009.5854
  20497247.715    -3902877.480 8  -3033287.10747  20497247.011    20497249.8024
  24588525.817     7548680.651 7   5870722.72045  24588525.069    24588529.9574
  20867217.400     1337696.968 8   1042153.09147  20867217.077    20867219.4844
  20900170.724    -6518020.880 8  -5067885.09447  20900169.913    20900172.8344
  22819121.074    -4123772.329 8  -3201774.15146  22819120.181    22819123.6234
  22214326.294    -6081440.789 8  -4719537.66946  22214326.512    22214329.5124
 01  7 17 16 32  0.0000000  0  8 23 18 17 10 06 15 22 26
  20710097.787    -6055542.919 8  -4707625.26147  20710097.198    20710099.9244
  21338097.174    -9668671.410 8  -7515538.36847  21338096.683    21338098.6974
  20494500.686    -3917312.725 8  -3044535.35647  20494500.083    20494502.8404
  24608972.502     7656128.618 7   5954448.42345  24608971.644    24608976.4594
  20877157.179     1389931.415 9   1082855.21947  20877156.985    20877159.3884
  20891870.498    -6561639.361 8  -5101873.50747  20891869.670    20891872.5554
  22818073.674    -4129275.237 8  -3206062.14146  22818072.657    22818076.4404
  22208511.081    -6112000.669 8  -4743350.52746  22208511.178    22208514.1504
 01  7 17 16 32 30.0000000  0  8 23 18 17 10 06 15 22 26
  20704803.150    -6083366.306 8  -4729305.81547  20704802.574    20704805.3184
  21324264.237    -9741363.966 8  -7572181.88247  21324263.730    21324265.8274
  20491802.608    -3931491.684 9  -3055583.89347  20491801.931    20491804.6804
  24629432.390     7763645.044 7   6038227.34245  24629431.398    24629436.6434
  20887180.495     1442603.397 9   1123898.28947  20887180.226    20887182.7594
  20883619.927    -6604996.167 8  -5135658.01947  20883619.091    20883622.0204
  22817134.579    -4134211.564 8  -3209908.62346  22817133.577    22817137.2864
  22202806.832    -6141975.995 8  -4766707.92046  22202806.967    22202810.0564
 01  7 17 16 33  0.0000000  0  8 23 18 17 10 06 15 22 26
  20699599.973    -6110709.171 9  -4750611.91847  20699599.386    20699602.0904
  21310509.554    -9813646.054 8  -7628505.56047  21310509.041    21310510.9434
  20489153.132    -3945414.877 8  -3066433.13247  20489152.445    20489155.1314
  24649905.021     7871227.198 7   6122057.60245  24649904.106    24649908.6274
  20897286.857     1495711.864 8   1165281.48447  20897286.520    20897288.9834
  20875419.155    -6648091.407 8  -5169238.71447  20875418.348    20875421.2524
  22816302.784    -4138581.993 8  -3213314.17446  22816301.883    22816305.6354
  22197214.384    -6171365.678 8  -4789608.97346  22197214.399    22197217.3244
 01  7 17 16 33 30.0000000  0  8 23 18 17 10 06 15 22 26
  20694488.302    -6137571.538 9  -4771543.62147  20694487.704    20694490.3374
  21296833.224    -9885516.133 8  -7684508.19147  21296832.630    21296834.4164
  20486552.264    -3959082.330 9  -3077083.10647  20486551.645    20486554.2744
  24670389.600     7978872.579 7   6205937.12545  24670388.475    24670392.7044
  20907475.914     1549256.140 8   1207004.26547  20907475.586    20907478.0044
  20867268.207    -6690925.018 8  -5202615.54147  20867267.372    20867270.2444
  22815578.656    -4142387.324 8  -3216279.39046  22815577.644    22815581.5584
  22191733.731    -6200167.861 8  -4812052.23246  22191733.513    22191736.4194
 01  7 17 16 34  0.0000000  0  8 23 18 17 10 06 15 22 26
  20689468.052    -6163952.758 8  -4792100.39947  20689467.450    20689470.1904
  21283235.451    -9956972.226 8  -7740188.21147  21283234.873    21283236.8244
  20484000.330    -3972493.329 9  -3087533.23447  20483999.692    20484002.3074
  24690885.511     8086579.874 7   6289864.71245  24690884.586    24690889.1474
  20917748.028     1603236.404 9   1249066.77147  20917747.764    20917750.1104
  20859167.105    -6733496.093 8  -5235787.80147  20859166.349    20859169.2824
  22814962.404    -4145627.447 8  -3218804.14846  22814961.381    22814964.8964
  22186365.244    -6228380.200 8  -4834035.85346  22186364.870    22186367.8434
 01  7 17 16 34 30.0000000  0  8 23 18 17 10 06 15 22 26
  20684539.496    -6189852.315 8  -4812281.86447  20684538.941    20684541.5874
  21269717.043   -10028012.024 8  -7795543.86147  21269716.452    21269718.3064
  20481497.238    -3985647.153 8  -3097782.97147  20481496.585    20481499.2004
  24711393.314     8194347.481 7   6373839.45045  24711392.179    24711396.6074
  20928103.422     1657652.715 8   1291469.06047  20928103.015    20928105.2964
  20851116.187    -6775803.927 8  -5268754.94147  20851115.403    20851118.3074
  22814453.043    -4148301.604 8  -3220887.92346  22814452.273    22814456.1204
  22181109.192    -6256000.274 8  -4855557.94346  22181109.008    22181111.8724
 01  7 17 16 35  0.0000000  0  8 23 18 17 10 06 15 22 26
  20679702.715    -6215270.224 8  -4832088.00847  20679702.110    20679704.7334
  21256278.083   -10098634.338 8  -7850574.21847  21256277.465    21256279.3624
  20479043.060    -3998543.987 9  -3107832.44547  20479042.414    20479045.0554
  24731912.345     8302173.308 7   6457859.59645  24731910.915    24731914.7734
  20938541.332     1712504.506 8   1334210.69247  20938540.930    20938543.3714
  20843115.472    -6817848.216 9  -5301516.70947  20843114.732    20843117.6064
  22814052.084    -4150409.880 8  -3222530.75246  22814051.112    22814054.9384
  22175966.066    -6283026.332 8  -4876617.20746  22175965.958    22175968.9274
 01  7 17 16 35 30.0000000  0  7 23 18 17 06 15 22 26
  20674957.866    -6240204.732 8  -4851517.47047  20674957.235    20674959.8164
  21242918.935   -10168836.306 8  -7905277.02547  21242918.354    21242920.3104
  20476638.124    -4011181.988 8  -3117680.22947  20476637.459    20476640.0544
  20949062.224     1767792.860 8   1377292.48947  20949061.836    20949064.3504
  20835165.218    -6859627.088 8  -5334071.66547  20835164.426    20835167.2964
  22813758.851    -4151951.103 8  -3223731.70446  22813758.004    22813761.7684
  22170936.573    -6309455.230 8  -4897211.11846  22170936.760    22170939.5414
 01  7 17 16 36  0.0000000  0  7 23 18 17 06 15 22 26
  20670304.382    -6264658.700 8  -4870572.50347  20670303.806    20670306.3994
  21229639.719   -10238618.977 8  -7959653.10147  21229639.236    21229641.1094
  20474281.897    -4023563.949 8  -3127328.51347  20474281.230    20474283.8974
  20959665.834     1823514.414 8   1420711.83347  20959665.465    20959667.7204
  20827265.002    -6901142.890 8  -5366421.63647  20827264.205    20827267.1104
  22813572.832    -4152928.807 8  -3224493.57846  22813571.953    22813575.6434
  22166020.853    -6335287.774 8  -4917340.41946  22166020.953    22166023.7344
 01  7 17 16 36 30.0000000  0  7 23 18 17 06 15 22 26
  20665742.042    -6288634.057 8  -4889254.58147  20665741.405    20665743.9884
  21216440.322   -10307982.944 9  -8013702.91647  21216439.764    21216441.6184
  20471974.048    -4035691.618 9  -3136778.64747  20471973.418    20471976.0594
  20970351.206     1879666.612 8   1464466.76947  20970350.829    20970353.2574
  20819414.544    -6942397.276 9  -5398567.90247  20819413.800    20819416.6814
  22813493.760    -4153345.394 8  -3224818.19146  22813492.768    22813496.2724
  22161218.733    -6360524.549 8  -4937005.41146  22161218.589    22161221.2904
 01  7 17 16 37  0.0000000  0  7 23 18 17 06 15 22 26
  20661271.244    -6312127.887 9  -4907561.44747  20661270.630    20661273.2634
  21203321.259   -10376923.804 8  -8067423.03147  21203320.687    21203322.5774
  20469715.173    -4047562.004 9  -3146028.28847  20469714.541    20469717.2054
  20981118.859     1936252.012 9   1508559.28347  20981118.564    20981121.3784
  20811614.462    -6983386.912 9  -5430507.87447  20811613.640    20811616.5504
  22813521.477    -4153197.723 8  -3224703.14146  22813520.688    22813524.2614
  22156530.603    -6385160.666 8  -4956202.37446  22156530.513    22156533.2064
 01  7 17 16 37 30.0000000  0  7 23 18 17 06 15 22 26
  20656891.911    -6335141.462 8  -4925494.08747  20656891.292    20656893.9184
  21190282.636   -10445441.389 8  -8120813.31647  21190282.083    21190283.9954
  20467505.153    -4059176.106 8  -3155078.23747  20467504.432    20467507.1044
  20991969.007     1993268.504 9   1552987.68447  20991968.662    20991971.3164
  20803864.657    -7024112.733 8  -5462242.26047  20803863.845    20803866.6944
  22813656.855    -4152487.323 8  -3224149.59046  22813655.905    22813659.5634
  22151956.819    -6409195.921 8  -4974931.11746  22151956.729    22151959.4054
 01  7 17 16 38  0.0000000  0  7 23 18 17 06 15 22 26
  20652603.721    -6357676.354 8  -4943053.73247  20652603.080    20652605.6784
  21177324.800   -10513535.629 8  -8173873.73147  21177324.214    21177326.0574
  20465343.548    -4070535.428 8  -3163929.66647  20465342.868    20465345.4974
  21002900.770     2050713.973 8   1597750.34147  21002900.345    21002902.6934
  20796164.676    -7064575.894 8  -5493771.99747  20796163.875    20796166.7664
  22813898.858    -4151216.397 8  -3223159.26646  22813897.877    22813901.3934
  22147497.617    -6432630.079 8  -4993191.50546  22147497.417    22147500.1274
 01  7 17 16 38 30.0000000  0  7 23 18 17 06 15 22 26
  20648406.981    -6379730.174 8  -4960238.50947  20648406.336    20648408.9724
  21164448.182   -10581202.979 8  -8226601.50347  21164447.598    21164449.2604
  20463230.894    -4081637.422 8  -3172580.56447  20463230.240    20463232.8944
  21013913.966     2108590.295 8   1642848.74947  21013913.621    21013916.1004
  20788515.272    -7104773.930 8  -5525095.13747  20788514.511    20788517.3294
  22814247.625    -4149383.402 8  -3221730.97646  22814246.635    22814250.2044
  22143153.236    -6455459.104 8  -5010980.33946  22143153.234    22143155.8844
 01  7 17 16 39  0.0000000  0  7 23 18 17 06 15 22 26
  20644301.731    -6401303.424 8  -4977048.82047  20644301.098    20644303.7114
  21151652.867   -10648442.265 8  -8278995.71347  21151652.286    21151654.0454
  20461167.220    -4092482.309 9  -3181031.10947  20461166.499    20461169.1684
  21025009.117     2166896.415 8   1688282.08247  21025008.799    21025011.4024
  20780916.305    -7144706.729 9  -5556211.58247  20780915.581    20780918.3914
  22814703.287    -4146988.861 8  -3219865.10446  22814702.320    22814705.8324
  22138924.206    -6477681.889 8  -5028296.76346  22138924.202    22138927.0564
 01  7 17 16 39 30.0000000  0  7 23 18 17 06 15 22 26
  20640287.762    -6422396.821 8  -4993485.22647  20640287.107    20640289.7664
  21138939.103   -10715252.693 8  -8331055.75147  21138938.587    21138940.4324
  20459152.291    -4103070.614 8  -3189281.74747  20459151.644    20459154.3304
  21036186.383     2225631.211 9   1734049.41047  21036185.951    21036188.3444
  20773367.896    -7184374.408 8  -5587121.45747  20773367.048    20773369.9064
  22815265.699    -4144033.373 8  -3217562.14346  22815264.711    22815268.5004
  22134810.806    -6499297.492 8  -5045140.08846  22134810.809    22134813.8224
 01  7 17 16 40  0.0000000  0  7 23 18 17 06 15 22 26
  20636365.070    -6443010.680 8  -5009547.96547  20636364.423    20636367.0424
  21126307.307   -10781633.292 8  -8382780.86147  21126306.772    21126308.4864
  20457186.203    -4113402.587 8  -3197332.64047  20457185.565    20457188.1954
  21047444.877     2284793.652 8   1780149.97747  21047444.298    21047446.6244
  20765869.812    -7223776.845 8  -5617824.66247  20765869.038    20765871.7944
  22815934.649    -4140517.891 8  -3214822.80846  22815933.698    22815937.3434
  22130813.296    -6520304.655 8  -5061509.29146  22130813.246    22130816.2884
 01  7 17 16 40 30.0000000  0  7 23 18 17 06 15 22 26
  20632533.325    -6463146.216 9  -5025237.96847  20632532.755    20632535.2974
  21113757.387   -10847583.761 8  -8434170.79747  21113756.850    21113758.6274
  20455268.697    -4123479.014 8  -3205184.38847  20455268.033    20455270.6954
  21058783.970     2344382.226 8   1826582.62147  21058783.448    21058785.9364
  20758421.996    -7262914.998 9  -5648321.90147  20758421.214    20758424.1254
  22816709.607    -4136444.411 8  -3211648.68646  22816708.851    22816712.4034
  22126932.054    -6540702.882 8  -5077404.00946  22126931.783    22126934.6354
 01  7 17 16 41  0.0000000  0  7 23 18 17 06 15 22 26
  20628792.695    -6482803.178 9  -5040555.07747  20628792.114    20628794.7344
  21101289.556   -10913102.364 9  -8485224.21947  21101289.072    21101290.8604
  20453399.951    -4133299.376 8  -3212836.61547  20453399.306    20453401.9234
  21070204.296     2404396.570 8   1873347.00947  21070203.881    21070206.3054
  20751024.672    -7301788.061 8  -5678612.57447  20751023.886    20751026.7874
  22817591.195    -4131813.200 8  -3208039.95546  22817590.231    22817593.7354
  22123166.910    -6560490.346 8  -5092822.81646  22123166.441    22123169.1944
 01  7 17 16 41 30.0000000  0  7 23 18 17 06 15 22 26
  20625143.376    -6501980.707 8  -5055498.58947  20625142.751    20625145.3534
  21088904.451   -10978186.518 9  -8535939.11347  21088903.965    21088905.7024
  20451580.140    -4142862.453 8  -3220288.35947  20451579.506    20451582.1484
  21081705.789     2464836.981 8   1920443.39347  21081705.389    21081707.7964
  20743678.206    -7340394.361 8  -5708695.40647  20743677.431    20743680.2674
  22818578.609    -4126623.296 8  -3203995.89446  22818577.788    22818581.4044
  22119517.745    -6579664.559 8  -5107763.72646  22119517.587    22119520.2964
 01  7 17 16 42  0.0000000  0  8 23 18 17 06 21 15 22 26
  20621585.215    -6520678.825 8  -5070068.54247  20621584.584    20621587.1544
  21076602.289   -11042834.885 9  -8586314.44847  21076601.782    21076603.4864
  20449809.363    -4152167.836 8  -3227539.31247  20449808.732    20449811.4194
  21093288.107     2525703.033 8   1967871.45547  21093287.701    21093290.2454
  24016829.088     -427521.83755                  24016829.315    24016835.1144
  20736382.470    -7378733.380 8  -5738569.96247  20736381.702    20736384.5284
  22819672.436    -4120874.771 8  -3199516.54646  22819671.620    22819675.2234
  22115985.782    -6598223.893 8  -5122225.52646  22115985.841    22115988.6474
 01  7 17 16 42 30.0000000  0  8 23 18 17 06 21 15 22 26
  20618118.035    -6538898.874 9  -5084265.97447  20618117.434    20618120.0204
  21064383.051   -11107047.573 9  -8636350.27447  21064382.511    21064384.2194
  20448087.449    -4161216.663 9  -3234590.34747  20448086.784    20448089.4804
  21104951.108     2586992.741 8   2015629.63747  21104950.757    21104953.1364
  23999172.760     -664381.58818   -499827.76145  23999171.839    23999176.6664
  20729137.494    -7416806.054 9  -5768236.96447  20729136.707    20729139.6304
  22820872.418    -4114569.829 8  -3194603.62046  22820871.530    22820875.1984
  22112570.881    -6616168.197 8  -5136208.11646  22112570.886    22112574.0644
 01  7 17 16 43  0.0000000  0  8 23 18 17 06 21 15 22 26
  20614741.877    -6556640.878 9  -5098090.89047  20614741.242    20614743.8674
  21052246.999   -11170822.727 8  -8686045.15447  21052246.444    21052248.0844
  20446414.381    -4170008.561 9  -3241441.16147  20446413.762    20446416.4444
  21116694.782     2648705.442 8   2063717.42447  21116694.426    21116696.8514
  23981544.988     -757000.539 7   -571998.35145  23981545.641    23981551.7684
  20721943.257    -7454612.099 9  -5797696.20647  20721942.458    20721945.2704
  22822177.816    -4107709.410 8  -3189257.85746  22822176.935    22822180.5584
  22109273.472    -6633495.987 8  -5149710.24746  22109273.549    22109276.4854
 01  7 17 16 43 30.0000000  0  8 23 18 17 06 21 15 22 26
  20611456.605    -6573904.799 9  -5111543.28747  20611455.986    20611458.5874
  21040194.443   -11234158.949 8  -8735398.01547  21040193.868    21040195.6494
  20444790.382    -4178543.056 9  -3248091.40447  20444789.717    20444792.3944
  21128518.683     2710840.862 8   2112134.59647  21128518.381    21128520.9944
  23963954.145     -849443.669 8   -644031.82945  23963954.729    23963960.3454
  20714799.875    -7492150.553 9  -5826946.94047  20714799.123    20714802.0334
  22823589.140    -4100293.507 8  -3183479.25246  22823588.210    22823591.8644
  22106093.896    -6650205.383 8  -5162730.55946  22106093.839    22106096.8504
 01  7 17 16 44  0.0000000  0  8 23 18 17 06 21 15 22 26
  20608261.752    -6590693.890 9  -5124625.68047  20608261.158    20608263.7094
  21028225.159   -11297057.840 8  -8784410.09847  21028224.653    21028226.3254
  20443214.813    -4186822.899 8  -3254543.23647  20443214.108    20443216.7664
  21140422.291     2773395.342 8   2160878.31647  21140422.051    21140424.6804
  23946396.825     -941712.235 7   -715929.35345  23946396.584    23946402.4524
  20707706.868    -7529424.108 9  -5855991.25147  20707706.133    20707709.0114
  22825105.141    -4092325.276 8  -3177270.23346  22825104.459    22825108.2194
  22103031.844    -6666298.319 8  -5175270.49746  22103031.659    22103034.4994
 01  7 17 16 44 30.0000000  0  8 23 18 17 06 21 15 22 26
  20605157.437    -6607007.076 9  -5137337.24047  20605156.807    20605159.4224
  21016339.483   -11359516.872 8  -8833079.44347  21016338.981    21016340.6774
  20441687.872    -4194846.805 9  -3260795.62347  20441687.214    20441689.8844
  21152405.671     2836369.290 8   2209948.89247  21152405.475    21152408.1624
  23928872.401    -1033803.264 7   -787688.54845  23928872.137    23928878.0054
  20700664.736    -7566431.065 9  -5884827.84147  20700663.989    20700666.8734
  22826726.922    -4083804.198 8  -3170630.48446  22826725.997    22826729.9024
  22100087.313    -6681772.043 8  -5187327.91246  22100087.168    22100089.9754
 01  7 17 16 45  0.0000000  0  9 23 18 17 06 21 15 03 22 26
  20602143.911    -6622843.594 9  -5149677.38047  20602143.263    20602145.8164
  21004537.935   -11421533.980 8  -8881404.45047  21004537.471    21004539.2984
  20440209.889    -4202613.517 9  -3266847.59247  20440209.227    20440211.8894
  21164469.054     2899762.914 8   2259346.49647  21164468.843    21164471.7644
  23911382.465    -1125714.207 7   -859307.36945  23911382.085    23911387.8944
  20693673.536    -7603169.913 9  -5913455.49847  20693672.768    20693675.6824
  24591816.476     -735605.44017   -537188.95155  24591817.489    24591821.3944
  22828453.523    -4074730.564 8  -3163560.10446  22828452.631    22828456.3494
  22097261.071    -6696624.345 8  -5198901.12246  22097260.864    22097263.6584
 01  7 17 16 45 30.0000000  0  9 23 18 17 06 21 15 03 22 26
  20599220.693    -6638205.315 9  -5161647.53147  20599220.067    20599222.5954
  20992820.655   -11483109.402 9  -8929385.25247  20992820.103    20992821.8764
  20438780.659    -4210124.440 8  -3272700.24947  20438779.937    20438782.5844
  21176612.063     2963574.005 8   2309069.38747  21176611.816    21176614.5834
  23893926.783    -1217445.847 7   -930786.49345  23893926.229    23893932.0104
  20686733.045    -7639642.353 9  -5941875.56647  20686732.263    20686735.2104
  24572209.469     -838644.949 7   -617479.41345  24572209.144    24572214.0534
  22830284.948    -4065106.692 8  -3156061.01346  22830284.032    22830287.9254
  22094552.869    -6710855.611 8  -5209990.40546  22094552.700    22094555.4414
 01  7 17 16 46  0.0000000  0  9 23 18 17 06 21 15 03 22 26
  20596387.869    -6653091.778 9  -5173247.35947  20596387.228    20596389.7734
  20981187.776   -11544241.229 8  -8977020.40847  20981187.117    20981188.7544
  20437400.188    -4217378.689 8  -3278352.91347  20437399.483    20437402.1484
  21188834.552     3027802.547 8   2359117.55647  21188834.265    21188836.7914
  23876505.481    -1308996.127 8  -1002124.32945  23876504.830    23876510.4954
  20679843.619    -7675846.978 8  -5970086.95847  20679842.803    20679845.7084
  24552615.855     -941608.711 7   -697710.84145  24552616.007    24552621.0394
  22832221.170    -4054932.286 8  -3148132.91946  22832220.193    22832223.9674
  22091963.244    -6724463.871 8  -5220594.22046  22091963.172    22091965.7874
 01  7 17 16 46 30.0000000  0  9 23 18 17 06 21 15 03 22 26
  20593645.639    -6667502.341 9  -5184476.36447  20593645.006    20593647.5494
  20969639.384   -11604927.431 8  -9024308.33247  20969638.801    20969640.5384
  20436068.716    -4224375.207 9  -3283804.74347  20436068.084    20436070.7824
  21201136.223     3092448.300 8   2409490.85347  21201135.939    21201138.7374
  23859118.984    -1400362.659 7  -1073318.93245  23859118.426    23859123.8784
  20673005.272    -7711782.551 9  -5998088.68947  20673004.457    20673007.3314
  24533038.034    -1044493.787 7   -777880.95345  24533037.502    24533042.4384
  22834262.087    -4044207.027 8  -3139775.58346  22834261.170    22834264.9214
  22089492.551    -6737447.099 8  -5230710.99446  22089492.483    22089495.2384
 01  7 17 16 47  0.0000000  0  9 23 18 17 06 21 15 03 22 26
  20590993.708    -6681438.560 9  -5195335.73547  20590993.062    20590995.5414
  20958175.955   -11665168.021 8  -9071249.02147  20958175.367    20958177.1014
  20434786.224    -4231114.927 9  -3289056.46547  20434785.562    20434788.2534
  21213516.982     3157509.342 8   2460187.74647  21213516.658    21213519.5474
  23841767.943    -1491545.171 7  -1144370.19445  23841766.949    23841772.3224
  20666218.025    -7747449.873 9  -6025881.40047  20666217.166    20666220.0474
  24513474.909    -1147298.924 7   -857988.77745  24513474.534    24513479.3784
  22836407.499    -4032933.010 8  -3130990.65846  22836406.565    22836410.3474
  22087140.821    -6749805.280 8  -5240340.75946  22087140.760    22087143.5484
 01  7 17 16 47 30.0000000  0  9 23 18 17 06 21 15 03 22 26
  20588432.152    -6694899.281 8  -5205824.59847  20588431.496    20588433.9784
  20946797.997   -11724960.271 8  -9117840.35147  20946797.374    20946798.9044
  20433552.906    -4237596.207 8  -3294106.80547  20433552.256    20433554.8954
  21225976.827     3222986.232 8   2511208.69047  21225976.472    21225979.1974
  23824451.878    -1582539.784 7  -1215275.04045  23824451.106    23824456.6274
  20659482.212    -7782846.862 9  -6053463.45647  20659481.379    20659484.1764
  24493927.964    -1250020.803 7   -938031.70945  24493927.387    24493931.8324
  22838657.286    -4021110.180 8  -3121778.07046  22838656.327    22838660.0714
  22084908.844    -6761535.851 8  -5249481.44046  22084908.675    22084911.1254
 01  7 17 16 48  0.0000000  0  9 23 18 17 06 21 15 03 22 26
  20585960.692    -6707886.956 8  -5215944.85947  20585960.046    20585962.5334
  20935504.984   -11784304.883 8  -9164082.88247  20935504.442    20935506.0244
  20432368.411    -4243820.707 8  -3298957.06847  20432367.786    20432370.3974
  21238515.346     3288876.181 8   2562551.47347  21238514.992    21238517.5874
  23807171.650    -1673347.608 7  -1286034.29345  23807170.819    23807176.2974
  20652797.479    -7817975.306 9  -6080836.27047  20652796.646    20652799.4734
  24474396.400    -1352658.868 7  -1018009.36145  24474395.888    24474400.6434
  22841011.114    -4008741.083 8  -3112139.84146  22841010.149    22841013.8854
  22082795.841    -6772639.662 8  -5258133.75746  22082795.679    22082798.1784
 01  7 17 16 48 30.0000000  0  9 23 18 17 06 21 15 03 22 26
  20583579.441    -6720400.404 9  -5225695.57247  20583578.795    20583581.3274
  20924297.640   -11843199.625 8  -9209974.84347  20924297.110    20924298.7414
  20431233.029    -4249787.060 8  -3303606.16947  20431232.392    20431235.0154
  21251132.591     3355179.732 8   2614216.53447  21251132.167    21251134.7614
  23789927.851    -1763965.914 7  -1356645.86045  23789926.787    23789932.1114
  20646164.166    -7852833.529 8  -6107998.49847  20646163.319    20646166.1444
  24454881.563    -1455209.545 7  -1097918.90045  24454881.119    24454885.6914
  22843468.759    -3995824.786 8  -3102075.19246  22843467.896    22843471.7384
  22080802.253    -6783114.395 8  -5266295.86246  22080802.339    22080805.0364
 01  7 17 16 49  0.0000000  0  9 23 18 17 06 21 15 03 22 26
  20581288.156    -6732441.127 8  -5235077.95647  20581287.471    20581290.0464
  20913175.968   -11901644.162 9  -9255516.01547  20913175.420    20913177.0654
  20430146.731    -4255495.941 8  -3308054.63647  20430146.024    20430148.6634
  21263828.120     3421894.996 8   2666202.42147  21263827.718    21263830.3574
  23772719.697    -1854394.221 7  -1427109.46145  23772718.659    23772724.1034
  20639582.135    -7887422.171 9  -6134950.68347  20639581.325    20639584.1454
  24435383.291    -1557671.933 7  -1177759.67745  24435382.966    24435387.5004
  22846030.718    -3982363.111 8  -3091585.60946  22846029.673    22846033.5054
  22078928.874    -6792959.848 8  -5273967.61046  22078928.786    22078931.4954
 01  7 17 16 49 30.0000000  0  9 23 18 17 06 21 15 03 22 26
  20579086.570    -6744010.415 9  -5244092.96147  20579085.935    20579088.4284
  20902140.159   -11959638.034 9  -9300706.02347  20902139.540    20902141.1254
  20429109.231    -4260947.912 9  -3312302.91947  20429108.553    20429111.1614
  21276601.604     3489020.303 8   2718507.82247  21276601.246    21276604.0204
  23755547.662    -1944632.617 7  -1497425.02845  23755546.828    23755552.3174
  20633051.416    -7921741.476 8  -6161692.97747  20633050.567    20633053.3914
  24415902.548    -1660044.450 7  -1257530.38045  24415902.183    24415906.8254
  22848695.796    -3968358.312 8  -3080672.78846  22848694.848    22848698.3754
  22077175.267    -6802175.900 8  -5281148.92546  22077174.980    22077177.7174
 01  7 17 16 50  0.0000000  0  9 23 18 17 06 21 15 03 22 26
  20576974.925    -6755107.264 8  -5252739.85547  20576974.247    20576976.7964
  20891190.460   -12017179.037 8  -9345543.13947  20891189.831    20891191.4704
  20428120.893    -4266141.491 8  -3316349.86047  20428120.237    20428122.8204
  21289453.117     3556556.107 8   2771133.09847  21289452.828    21289455.7314
  23738412.360    -2034677.614 7  -1567589.88845  23738411.710    23738417.2604
  20626572.185    -7955789.746 9  -6188224.09547  20626571.421    20626574.1494
  24396438.931    -1762323.596 7  -1337228.35145  24396438.717    24396443.5384
  22851464.089    -3953810.080 8  -3069336.52846  22851463.092    22851466.9424
  22075541.668    -6810760.305 8  -5287838.01046  22075541.481    22075544.1114
 01  7 17 16 50 30.0000000  0  9 23 18 17 06 21 15 03 22 26
  20574952.884    -6765732.798 9  -5261019.47747  20574952.257    20574954.7714
  20880326.981   -12074266.914 8  -9390027.15947  20880326.321    20880327.9344
  20427181.660    -4271077.206 9  -3320195.86547  20427180.997    20427183.5834
  21302382.608     3624500.863 8   2824077.03847  21302382.277    21302385.1194
  23721314.014    -2124528.700 7  -1637603.64345  23721313.476    23721319.0894
  20620144.604    -7989567.235 9  -6214544.20847  20620143.742    20620146.5734
  24376994.315    -1864507.887 7  -1416852.38645  24376993.769    24376997.9034
  22854335.788    -3938719.691 8  -3057577.78846  22854334.853    22854338.6684
  22074027.942    -6818712.575 8  -5294034.59046  22074027.998    22074030.8134
 01  7 17 16 51  0.0000000  0  9 23 18 17 06 21 15 03 22 26
  20573020.219    -6775888.979 9  -5268933.37347  20573019.585    20573022.0874
  20869549.737   -12130901.721 9  -9434158.14747  20869549.152    20869550.7424
  20426291.277    -4275756.331 9  -3323841.93047  20426290.613    20426293.1834
  21315389.357     3692852.079 8   2877337.69147  21315389.113    21315391.8704
  23704252.838    -2214185.627 8  -1707466.06445  23704252.338    23704257.8084
  20613768.330    -8023074.930 9  -6240654.08547  20613767.456    20613770.2924
  24357567.391    -1966596.386 7  -1496401.76245  24357566.698    24357571.2054
  22857310.234    -3923089.243 8  -3045398.24446  22857309.144    22857312.9874
  22072635.130    -6826033.357 8  -5299739.05046  22072635.033    22072637.7434
 01  7 17 16 51 30.0000000  0  9 23 18 17 06 21 15 03 22 26
  20571176.993    -6785575.470 9  -5276481.27047  20571176.351    20571178.7974
  20858858.960   -12187081.875 9  -9477934.86047  20858858.383    20858859.9924
  20425449.904    -4280177.745 9  -3327287.18047  20425449.236    20425451.8034
  21328473.315     3761609.531 8   2930914.90447  21328473.106    21328475.9854
  23687229.231    -2303645.546 8  -1777175.03945  23687228.693    23687234.0314
  20607443.560    -8056311.661 9  -6266552.83847  20607442.744    20607445.4974
  24338159.032    -2068586.311 7  -1575874.39345  24338158.534    24338163.0634
  22860387.378    -3906919.291 8  -3032798.28046  22860386.294    22860389.9994
  22071362.369    -6832721.093 8  -5304950.28846  22071362.284    22071365.1644
 01  7 17 16 52  0.0000000  0  9 23 18 17 06 21 15 03 22 26
  20569422.924    -6794792.797 9  -5283663.61247  20569422.285    20569424.8254
  20848254.923   -12242806.576 9  -9521356.67747  20848254.304    20848255.8814
  20424657.583    -4284341.447 8  -3330531.63047  20424656.914    20424659.4734
  21341634.478     3830772.043 8   2984807.72647  21341634.254    21341637.1874
  23670242.943    -2392908.528 8  -1846730.48845  23670242.462    23670247.6824
  20601170.422    -8089277.316 9  -6292240.33847  20601169.547    20601172.3984
  24318769.908    -2170475.546 7  -1655268.53845  24318769.646    24318774.4894
  22863566.621    -3890211.356 8  -3019779.15846  22863565.602    22863569.4774
  22070210.410    -6838774.999 8  -5309667.62746  22070210.271    22070213.1414
 01  7 17 16 52 30.0000000  0  9 23 18 17 06 21 15 03 22 26
  20567758.028    -6803541.950 9  -5290481.11147  20567757.388    20567759.8884
  20837737.575   -12298075.105 9  -9564423.04147  20837737.045    20837738.6464
  20423914.242    -4288247.699 9  -3333575.45647  20423913.579    20423916.1004
  21354872.934     3900338.271 8   3039015.13047  21354872.589    21354875.3394
  23653294.585    -2481973.654 8  -1916131.77745  23653294.015    23653299.1284
  20594948.822    -8121971.849 9  -6317716.59547  20594947.994    20594950.8124
  24299400.235    -2272262.370 7  -1734582.87945  24299400.006    24299405.4544
  22866848.254    -3872966.954 8  -3006341.93546  22866847.231    22866850.9614
  22069179.048    -6844194.746 8  -5313890.74746  22069178.896    22069181.7514
 01  7 17 16 53  0.0000000  0  9 23 18 17 06 21 15 03 22 26
  20566182.200    -6811823.001 9  -5296933.87947  20566181.579    20566184.0644
  20827307.334   -12352886.007 9  -9607132.80847  20827306.805    20827308.4544
  20423220.100    -4291895.849 9  -3336418.16347  20423219.390    20423221.8614
  21368187.762     3970307.617 8   3093536.66747  21368187.382    21368190.3394
  23636383.908    -2570839.169 8  -1985377.55245  23636383.332    23636388.5954
  20588779.008    -8154394.524 9  -6342981.00547  20588778.126    20588780.9294
  24280050.283    -2373943.848 7  -1813815.14445  24280050.401    24280055.8594
  22870231.631    -3855186.123 8  -2992486.80546  22870230.648    22870234.7404
  22068268.471    -6848979.014 8  -5317618.69946  22068268.525    22068271.3544
 01  7 17 16 53 30.0000000  0  9 23 18 17 06 21 15 03 22 26
  20564695.117    -6819637.513 9  -5303023.09447  20564694.468    20564696.9934
  20816964.175   -12407239.432 8  -9649486.10147  20816963.676    20816965.3194
  20422574.820    -4295286.680 9  -3339060.37047  20422574.146    20422576.6754
  21381578.529     4040678.047 8   3148370.74247  21381578.261    21381581.3214
  23619511.520    -2659504.220 8  -2054467.10345  23619510.853    23619516.2094
  20582660.771    -8186545.919 9  -6368034.03247  20582659.951    20582662.7394
  24260721.713    -2475518.821 7  -1892964.40945  24260721.402    24260726.5844
  22873717.120    -3836871.138 8  -2978215.36946  22873716.106    22873719.7774
  22067479.048    -6853128.168 8  -5320851.80646  22067479.012    22067481.7424
 01  7 17 16 54  0.0000000  0  9 23 18 17 06 21 15 03 22 26
  20563296.754    -6826985.888 9  -5308749.08947  20563296.136    20563298.6634
  20806708.335   -12461134.046 8  -9691481.86947  20806707.786    20806709.4244
  20421978.496    -4298419.950 9  -3341501.88447  20421977.849    20421980.4364
  21395045.982     4111448.786 8   3203516.75847  21395045.678    21395048.5794
  23602677.545    -2747967.605 8  -2123399.51045  23602676.787    23602682.0614
  20576594.177    -8218425.661 9  -6392875.38347  20576593.381    20576596.2444
  24241413.495    -2576984.949 7  -1972028.87745  24241413.129    24241417.7244
  22877303.726    -3818023.198 8  -2963528.71846  22877302.703    22877306.5854
  22066810.759    -6856641.237 8  -5323589.26946  22066810.575    22066813.2024
 01  7 17 16 54 30.0000000  0  9 23 18 17 06 21 15 03 22 26
  20561987.114    -6833867.942 9  -5314111.72147  20561986.493    20561989.0004
  20796540.190   -12514568.247 9  -9733118.88747  20796539.635    20796541.2184
  20421431.523    -4301294.419 9  -3343741.72247  20421430.848    20421433.4844
  21408589.406     4182619.539 8   3258974.46447  21408589.063    21408591.8464
  23585882.184    -2836226.911 8  -2192172.91745  23585881.485    23585886.6994
  20570579.701    -8250032.372 9  -6417503.97647  20570578.944    20570581.7554
  24222126.569    -2678339.049 7  -2051006.04145  24222126.300    24222130.6714
  22880991.724    -3798643.033 8  -2948427.28646  22880990.680    22880994.5204
  22066263.362    -6859516.718 8  -5325829.90646  22066263.224    22066265.9164
 01  7 17 16 55  0.0000000  0  9 23 18 17 06 21 15 03 22 26
  20560766.089    -6840284.665 9  -5319111.75947  20560765.488    20560767.9414
  20786459.687   -12567541.534 8  -9774396.74847  20786459.134    20786460.7274
  20420933.692    -4303910.435 9  -3345780.17747  20420933.062    20420935.6294
  21422208.379     4254188.763 8   3314742.65447  21422208.114    21422211.0824
  23569125.851    -2924281.732 8  -2260786.96145  23569125.214    23569130.4884
  20564616.990    -8281366.167 9  -6441919.92347  20564616.173    20564619.0284
  24202860.879    -2779579.553 7  -2129894.67945  24202860.798    24202865.6764
  22884780.726    -3778731.659 8  -2932911.95446  22884779.726    22884783.4094
  22065837.205    -6861754.401 8  -5327573.49846  22065837.348    22065840.0564
 01  7 17 16 55 30.0000000  0  9 23 18 17 06 21 15 03 22 26
  20559633.510    -6846236.859 9  -5323749.82447  20559632.862    20559635.2864
  20776467.054   -12620053.202 8  -9815314.89947  20776466.482    20776467.9944
  20420485.115    -4306267.852 8  -3347617.11747  20420484.463    20420487.0264
  21435903.292     4326155.231 8   3370820.36247  21435903.033    21435905.8014
  23552408.691    -3012130.635 8  -2329240.57045  23552407.978    23552413.3754
  20558706.459    -8312426.729 9  -6466122.94747  20558705.644    20558708.4294
  24183617.753    -2880704.198 7  -2208693.06045  24183617.639    24183622.1154
  22888670.706    -3758290.277 8  -2916983.63846  22888669.704    22888673.5614
  22065533.008    -6863353.872 8  -5328819.80046  22065532.990    22065535.7094
 01  7 17 16 56  0.0000000  0  9 23 18 17 06 21 15 03 22 26
  20558588.831    -6851726.464 9  -5328027.42947  20558588.186    20558590.6254
  20766562.098   -12672103.818 8  -9855873.78847  20766561.539    20766563.0524
  20420085.413    -4308367.866 9  -3349253.49547  20420084.809    20420087.4074
  21449673.457     4398516.489 8   3427205.71447  21449673.071    21449676.0144
  23535730.513    -3099774.314 8  -2397534.24346  23535729.954    23535735.1764
  20552847.512    -8343215.087 9  -6490113.86547  20552846.710    20552849.5374
  24164397.251    -2981712.161 7  -2287400.46145  24164396.598    24164400.8404
  22892660.922    -3737321.583 8  -2900644.42946  22892660.010    22892663.5084
  22065350.048    -6864315.827 8  -5329569.36346  22065349.916    22065352.6824
 01  7 17 16 56 30.0000000  0  9 23 18 17 06 21 15 03 22 26
  20557632.305    -6856753.081 9  -5331944.26947  20557631.698    20557634.0874
  20756745.234   -12723691.403 9  -9896071.89647  20756744.735    20756746.2694
  20419734.992    -4310209.433 9  -3350688.48547  20419734.372    20419736.9714
  21463518.068     4471272.383 8   3483898.59247  21463517.816    21463520.9534
  23519092.372    -3187209.243 7  -2465665.26845  23519091.711    23519096.7724
  20547040.837    -8373729.870 9  -6513891.62147  20547040.030    20547042.7614
  24145198.329    -3082600.061 7  -2366014.38245  24145197.996    24145202.5264
  22896751.214    -3715826.424 8  -2883894.95346  22896750.281    22896754.0654
  22065288.548    -6864638.828 8  -5329821.04346  22065288.539    22065291.2894
 01  7 17 16 57  0.0000000  0  9 23 18 17 06 21 15 03 22 26
  20556763.945    -6861316.429 9  -5335500.11647  20556763.309    20556765.6894
  20747016.969   -12774814.147 9  -9935907.77147  20747016.459    20747017.8804
  20419434.011    -4311791.176 9  -3351921.01347  20419433.380    20419435.9884
  21477438.250     4544422.976 8   3540899.01547  21477437.979    21477440.9474
  23502493.975    -3274433.104 7  -2533631.78245  23502493.374    23502498.4824
  20541286.264    -8403969.820 9  -6537455.20047  20541285.504    20541288.2964
  24126023.723    -3183364.501 7  -2444532.05345  24126023.202    24126027.6004
  22900941.804    -3693804.941 8  -2866735.42246  22900940.977    22900944.6774
  22065348.862    -6864321.113 8  -5329573.46746  22065348.858    22065351.6964
 01  7 17 16 57 30.0000000  0  9 23 18 17 06 21 15 03 22 26
  20555983.290    -6865418.535 9  -5338696.55947  20555982.669    20555985.0734
  20737376.981   -12825472.644 9  -9975381.90947  20737376.463    20737377.8814
  20419182.300    -4313114.178 8  -3352951.92547  20419181.635    20419184.2114
  21491433.298     4617965.682 8   3598204.96847  21491432.940    21491435.6204
  23485935.485    -3361446.823 7  -2601434.61545  23485934.986    23485940.1734
  20535584.015    -8433935.637 9  -6560805.19147  20535583.242    20535585.9604
  24106871.866    -3284004.573 7  -2522952.85145  24106871.800    24106876.2324
  22905232.234    -3671259.248 8  -2849167.32846  22905231.160    22905234.7534
  22065531.241    -6863363.661 8  -5328827.39146  22065531.100    22065533.8144
 01  7 17 16 58  0.0000000  0  9 23 18 17 06 21 15 03 22 26
  20555290.301    -6869060.370 9  -5341534.33747  20555289.689    20555292.0484
  20727825.425   -12875666.210 9 -10014493.76447  20727824.905    20727826.3874
  20418979.746    -4314178.536 8  -3353781.29747  20418979.085    20418981.6694
  21505502.435     4691899.108 8   3655815.39747  21505502.041    21505504.8224
  23469417.544    -3448249.253 7  -2669072.76445  23469417.111    23469422.1054
  20529933.902    -8463627.303 9  -6583941.53147  20529933.113    20529935.8334
  24087744.790    -3384518.208 7  -2601275.09045  24087744.711    24087748.9104
  22909621.948    -3648190.809 8  -2831191.97946  22909621.049    22909624.7664
  22065835.332    -6861766.237 8  -5327582.56046  22065835.130    22065837.8284
 01  7 17 16 58 30.0000000  0  9 23 18 17 06 21 15 03 22 26
  20554684.588    -6872243.613 9  -5344014.78647  20554683.929    20554686.2664
  20718362.331   -12925395.090 9 -10053243.51847  20718361.786    20718363.2884
  20418826.217    -4314985.114 8  -3354409.80547  20418825.551    20418828.1444
  21519645.294     4766221.059 8   3713728.56247  21519644.920    21519647.8554
  23452939.678    -3534839.995 7  -2736546.03845  23452939.318    23452944.3864
  20524335.725    -8493045.488 9  -6606864.79847  20524334.978    20524337.7014
  24068642.091    -3484904.187 7  -2679497.87345  24068641.666    24068646.2874
  22914110.706    -3624602.355 8  -2812811.37846  22914109.632    22914113.2934
  22066260.643    -6859529.264 8  -5325839.45046  22066260.666    22066263.4464
 01  7 17 16 59  0.0000000  0  9 23 18 17 06 21 15 03 22 26
  20554166.188    -6874967.556 9  -5346137.33247  20554165.577    20554167.9204
  20708988.055   -12974657.203 9 -10091629.54947  20708987.486    20708988.9944
  20418722.154    -4315532.186 9  -3354836.09347  20418721.463    20418724.0674
  21533862.066     4840931.547 8   3771944.49547  21533861.817    21533864.9414
  23436502.690    -3621216.980 8  -2803852.67345  23436502.327    23436507.1814
  20518790.093    -8522188.307 9  -6629573.46747  20518789.288    20518792.0034
  24049564.762    -3585158.982 7  -2757618.46145  24049564.043    24049568.1524
  22918698.439    -3600494.216 8  -2794025.82846  22918697.456    22918700.9824
  22066808.455    -6856651.096 8  -5323596.75046  22066808.406    22066811.1454
 01  7 17 16 59 30.0000000  0  9 23 18 17 06 21 15 03 22 26
  20553734.950    -6877233.906 9  -5347903.31347  20553734.326    20553736.6684
  20699702.569   -13023452.350 8 -10129651.72747  20699702.034    20699703.5534
  20418667.234    -4315820.462 8  -3355060.73147  20418666.611    20418669.2064
  21548152.726     4916028.803 8   3830461.78347  21548152.504    21548155.4124
  23420106.530    -3707378.567 8  -2870991.46645  23420106.238    23420111.0204
  20513296.583    -8551056.311 9  -6652068.02047  20513295.821    20513298.5374
  24030511.912    -3685281.098 7  -2835635.62145  24030511.194    24030515.3724
  22923384.486    -3575868.254 8  -2774836.82546  22923383.462    22923387.1064
  22067478.169    -6853132.283 8  -5320854.80046  22067477.973    22067480.7464
 01  7 17 17  0  0.0000000  0  9 23 18 17 06 21 15 03 22 26
  20553390.771    -6879042.355 9  -5349312.48947  20553390.164    20553392.5024
  20690506.301   -13071779.000 8 -10167308.83247  20690505.721    20690507.2914
  20418661.921    -4315848.747 8  -3355082.77147  20418661.255    20418663.8504
  21562516.920     4991512.553 8   3889280.24747  21562516.701    21562519.4484
  23403751.841    -3793323.802 8  -2937961.64945  23403751.361    23403756.0984
  20507855.772    -8579648.281 8  -6674347.46347  20507854.938    20507857.7424
  24011484.970    -3785266.984 7  -2913546.66445  24011484.505    24011488.9804
  22928169.341    -3550724.605 8  -2755244.36846  22928168.379    22928171.7824
  22068269.544    -6848971.441 8  -5317612.57246  22068269.605    22068272.4764
 01  7 17 17  0 30.0000000  0  9 23 18 17 06 21 15 03 22 26
  20553133.450    -6880394.361 9  -5350365.99747  20553132.842    20553135.2214
  20681399.181   -13119637.100 9 -10204600.84147  20681398.626    20681400.1794
  20418705.941    -4315617.423 9  -3354902.52247  20418705.265    20418707.9134
  21576954.063     5067380.863 8   3948398.37847  21576953.876    21576956.8354
  23387438.185    -3879051.698 8  -3004762.53645  23387437.744    23387442.5384
  20502467.380    -8607964.134 9  -6696411.76547  20502466.597    20502469.4034
  23992484.328    -3885115.044 7  -2991350.30645  23992484.059    23992488.5144
  22933052.032    -3525065.343 8  -2735250.19546  22933051.030    22933054.8504
  22069183.500    -6844168.776 8  -5313870.22446  22069183.632    22069186.3364
 01  7 17 17  1  0.0000000  0  9 23 18 17 06 21 15 03 22 26
  20552962.765    -6881291.383 9  -5351064.96947  20552962.130    20552964.5054
  20672381.268   -13167026.651 9 -10241527.73947  20672380.719    20672382.2234
  20418799.273    -4315126.914 9  -3354520.30547  20418798.560    20418801.2314
  21591464.221     5143631.811 8   4007814.66147  21591463.940    21591467.0804
  23371166.077    -3964561.996 8  -3071393.87746  23371165.599    23371170.4244
  20497131.592    -8636004.549 9  -6718261.42947  20497130.702    20497133.5034
  23973510.668    -3984823.797 7  -3069045.37145  23973510.174    23973514.5564
  22938032.571    -3498893.162 8  -2714856.29046  22938031.571    22938035.1334
  22070219.501    -6838724.905 8  -5309628.18646  22070219.525    22070222.2354
 01  7 17 17  1 30.0000000  0  9 23 18 17 06 21 15 03 22 26
  20552878.327    -6881734.948 9  -5351410.60347  20552877.709    20552880.0854
  20663452.473   -13213947.556 8 -10278089.46347  20663451.880    20663453.4044
  20418941.789    -4314377.810 9  -3353936.59447  20418941.121    20418943.7944
  21606047.000     5220263.438 8   4067527.55947  21606046.615    21606049.5054
  23354935.643    -4049853.791 8  -3137854.94846  23354935.045    23354939.9544
  20491847.956    -8663769.593 9  -6739896.51947  20491847.139    20491849.9454
  23954563.302    -4084391.617 7  -3146630.62145  23954562.892    23954567.2874
  22943110.384    -3472210.252 8  -2694064.46246  22943109.176    22943112.7134
  22071377.478    -6832640.043 8  -5304886.69846  22071377.453    22071380.2054
 01  7 17 17  2  0.0000000  0  9 23 18 17 06 21 15 03 22 26
  20552880.410    -6881723.968 9  -5351402.03947  20552879.768    20552882.2094
  20654613.270   -13260397.398 8 -10314284.11647  20654612.729    20654614.2784
  20419134.028    -4313367.812 8  -3353149.58647  20419133.368    20419135.9824
  21620702.143     5297276.372 8   4127537.58547  21620701.680    21620704.5074
  23338747.396    -4134923.675 8  -3204143.06946  23338746.792    23338751.7554
  20486617.323    -8691256.944 9  -6761315.23147  20486616.531    20486619.2564
  23935643.961    -4183814.163 7  -3224102.67345  23935643.389    23935647.6534
  22948285.092    -3445015.682 8  -2672873.93046  22948284.093    22948287.8044
  22072657.872    -6825912.078 8  -5299644.12846  22072657.857    22072660.5344
 01  7 17 17  2 30.0000000  0  9 23 18 17 06 21 15 03 22 26
  20552968.527    -6881260.804 9  -5351041.13747  20552967.907    20552970.3284
  20645863.716   -13306376.852 8 -10350112.25047  20645863.177    20645864.6714
  20419375.610    -4312098.530 9  -3352160.53347  20419374.941    20419377.4714
  21635428.909     5374667.696 8   4187842.49947  21635428.555    21635431.6314
  23322600.989    -4219772.468 8  -3270258.92846  23322600.450    23322605.5124
  20481439.262    -8718467.718 9  -6782518.42547  20481438.485    20481441.2574
  23916752.238    -4283090.412 7  -3301460.75445  23916751.677    23916755.9444
  22953556.960    -3417312.363 8  -2651286.94246  22953555.874    22953559.5794
  22074060.044    -6818542.423 8  -5293901.55746  22074060.117    22074062.8374
 01  7 17 17  3  0.0000000  0  9 23 18 17 06 21 15 03 22 26
  20553142.738    -6880345.454 9  -5350327.87847  20553142.096    20553144.5314
  20637203.872   -13351884.534 8 -10385572.77347  20637203.332    20637204.8194
  20419666.764    -4310568.598 9  -3350968.37747  20419666.079    20419668.6124
  21650227.938     5452437.186 8   4248442.04447  21650227.599    21650230.6394
  23306497.198    -4304398.245 8  -3336201.04846  23306496.659    23306501.7584
  20476314.090    -8745400.856 9  -6803505.28147  20476313.313    20476316.0034
  23897889.140    -4382217.258 7  -3378702.39345  23897888.526    23897892.6154
  22958925.185    -3389101.304 8  -2629304.34046  22958924.158    22958928.0684
  22075584.808    -6810530.074 8  -5287658.16546  22075584.900    22075587.4924
 01  7 17 17  3 30.0000000  0  9 23 18 17 06 21 15 03 22 26
  20553402.547    -6878979.908 9  -5349263.80847  20553401.936    20553404.4154
  20628633.721   -13396920.971 8 -10420666.07047  20628633.194    20628634.6964
  20420007.308    -4308779.054 9  -3349573.92747  20420006.634    20420009.1994
  21665098.578     5530582.283 8   4309334.29847  21665098.194    21665101.3014
  23290435.935    -4388800.815 8  -3401969.22046  23290435.258    23290440.3634
  20471241.448    -8772057.372 9  -6824276.57647  20471240.705    20471243.4894
  23879054.344    -4481193.695 7  -3455826.81645  23879053.816    23879057.9754
  22964389.801    -3360385.626 8  -2606928.53346  22964388.754    22964392.4354
  22077231.795    -6801876.107 8  -5280914.78346  22077231.701    22077234.2234
 01  7 17 17  4  0.0000000  0  9 23 18 17 06 21 15 03 22 26
  20553747.905    -6877165.140 9  -5347849.70347  20553747.267    20553749.7234
  20620153.321   -13441485.810 8 -10455391.89847  20620152.736    20620154.2514
  20420397.233    -4306729.793 9  -3347977.11847  20420396.584    20420399.1494
  21680040.401     5609101.609 8   4370518.12847  21680040.040    21680043.1674
  23274417.188    -4472979.329 8  -3467562.78946  23274416.527    23274421.5974
  20466221.794    -8798436.581 9  -6844831.80447  20466220.980    20466223.6194
  23860248.852    -4580017.421 7  -3532832.28345  23860248.284    23860252.6724
  22969949.963    -3331166.738 8  -2584160.57546  22969948.886    22969952.6264
  22079000.544    -6792580.401 8  -5273671.39046  22079000.506    22079003.1354
 01  7 17 17  4 30.0000000  0  9 23 18 17 06 21 15 03 22 26
  20554178.792    -6874900.550 9  -5346085.09447  20554178.178    20554180.6974
  20611763.007   -13485577.007 9 -10489748.65447  20611762.514    20611763.9744
  20420836.862    -4304419.188 9  -3346176.64747  20420836.229    20420838.8234
  21695053.209     5687995.292 8   4431993.68947  21695052.938    21695056.1354
  23258441.724    -4556931.302 8  -3532979.82646  23258441.037    23258445.9184
  20461254.939    -8824536.826 9  -6865169.65047  20461254.188    20461256.9064
  23841472.981    -4678684.598 7  -3609715.74045  23841472.403    23841476.7744
  22975605.812    -3301444.304 8  -2561000.29046  22975604.810    22975608.6864
  22080891.697    -6782641.585 8  -5265926.81146  22080891.826    22080894.4284
 01  7 17 17  5  0.0000000  0  9 23 18 17 06 21 15 03 22 26
  20554695.043    -6872187.637 9  -5343971.13247  20554694.421    20554696.9444
  20603462.923   -13529194.353 8 -10523736.17747  20603462.410    20603463.8414
  20421326.265    -4301847.518 9  -3344172.75447  20421325.591    20421328.1754
  21710136.815     5767261.391 8   4493759.42947  21710136.665    21710140.0194
  23242509.226    -4640656.081 8  -3598219.82646  23242508.636    23242513.4944
  20456341.382    -8850358.255 9  -6885290.23647  20456340.570    20456343.2534
  23822727.098    -4777193.694 7  -3686476.02945  23822726.680    23822730.9474
  22981357.401    -3271220.648 8  -2537449.41146  22981356.398    22981360.0474
  22082905.445    -6772060.140 8  -5257681.53146  22082905.422    22082908.0124
 01  7 17 17  5 30.0000000  0  9 23 18 17 06 21 15 03 22 26
  20555296.123    -6869029.089 9  -5341509.92347  20555295.505    20555297.9894
  20595252.748   -13572339.007 8 -10557355.37947  20595252.263    20595253.6384
  20421865.021    -4299016.272 9  -3341966.59547  20421864.397    20421866.9244
  21725291.276     5846896.917 8   4555813.02647  21725291.024    21725294.2534
  23226620.181    -4724153.529 8  -3663282.67846  23226619.566    23226624.2764
  20451480.486    -8875902.186 9  -6905194.58247  20451479.715    20451482.3754
  23804011.976    -4875543.613 7  -3763112.27545  23804011.396    23804015.5704
  22987203.576    -3240499.491 8  -2513510.86646  22987202.432    22987206.1124
  22085041.081    -6760837.753 8  -5248936.79846  22085040.934    22085043.6104
 01  7 17 17  6  0.0000000  0  9 23 18 17 06 21 15 03 22 26
  20555981.970    -6865424.881 9  -5338701.45947  20555981.370    20555983.8634
  20587132.817   -13615009.784 8 -10590605.32347  20587132.255    20587133.6554
  20422453.445    -4295924.351 9  -3339557.31147  20422452.810    20422455.3054
  21740515.554     5926901.073 8   4618153.86347  21740515.414    21740518.6504
  23210774.624    -4807421.918 8  -3728167.07646  23210773.956    23210778.7294
  20446672.707    -8901167.467 9  -6924881.82847  20446671.884    20446674.5704
  23785327.475    -4973731.372 7  -3839622.16045  23785326.960    23785331.1004
  22993143.758    -3209281.949 8  -2489185.56546  22993142.888    22993146.6654
  22087298.458    -6748973.569 8  -5239692.00746  22087298.521    22087301.3474
 01  7 17 17  6 30.0000000  0  9 23 18 17 06 21 15 03 22 26
  20556752.667    -6861375.168 9  -5335545.84247  20556752.047    20556754.4974
  20579103.234   -13657205.293 8 -10623484.91847  20579102.704    20579104.0944
  20423091.617    -4292570.814 9  -3336944.17147  20423090.968    20423093.5114
  21755809.955     6007273.366 8   4680781.57646  21755809.776    21755813.0764
  23194972.813    -4890460.274 8  -3792872.23246  23194972.275    23194977.0894
  20441918.069    -8926152.979 9  -6944351.03647  20441917.295    20441919.9694
  23766674.472    -5071753.958 7  -3916003.32645  23766674.004    23766677.9584
  22999178.884    -3177568.484 8  -2464473.78646  22999177.911    22999181.5244
  22089678.593    -6736467.000 8  -5229946.61646  22089678.544    22089681.1334
 01  7 17 17  7  0.0000000  0  9 23 18 17 06 21 15 03 22 26
  20557607.702    -6856882.084 9  -5332044.73147  20557607.045    20557609.4704
  20571164.062   -13698926.190 9 -10655994.69047  20571163.520    20571164.8734
  20423779.423    -4288956.503 9  -3334127.82647  20423778.742    20423781.3074
  21771173.985     6088011.494 8   4743694.35646  21771173.760    21771177.0464
  23179214.930    -4973267.999 8  -3857397.67246  23179214.494    23179219.2464
  20437216.719    -8950859.151 9  -6963602.60847  20437215.850    20437218.5684
  23748052.758    -5169609.893 7  -3992254.67245  23748052.486    23748056.6994
  23005307.404    -3145361.431 8  -2439377.43046  23005306.418    23005310.3754
  22092180.453    -6723319.060 8  -5219701.47546  22092180.482    22092182.9484
 01  7 17 17  7 30.0000000  0  9 23 18 17 06 21 15 03 22 26
  20558547.021    -6851945.921 9  -5328198.38447  20558546.394    20558548.7644
  20563315.338   -13740171.242 8 -10688133.68147  20563314.763    20563316.2184
  20424517.002    -4285080.427 8  -3331107.51647  20424516.332    20424518.9054
  21786607.341     6169114.447 8   4806891.41446  21786607.106    21786610.2404
  23163501.650    -5055842.609 8  -3921741.45246  23163501.121    23163505.7424
  20432568.566    -8975285.074 9  -6982635.78747  20432567.748    20432570.4304
  23729463.824    -5267296.062 7  -4068373.68945  23729463.385    23729467.5264
  23011529.986    -3112662.259 8  -2413897.59746  23011529.050    23011532.8694
  22094804.455    -6709529.378 8  -5208956.25546  22094804.525    22094807.0624
 01  7 17 17  8  0.0000000  0  9 23 18 17 06 21 15 03 22 26
  20559570.292    -6846568.898 9  -5324008.48447  20559569.616    20559571.9604
  20555557.125   -13780941.155 8 -10719902.42347  20555556.544    20555557.9514
  20425304.180    -4280943.619 9  -3327884.03647  20425303.547    20425306.1184
  21802109.805     6250579.776 8   4870370.82746  21802109.573    21802112.5334
  23147832.267    -5138185.248 8  -3985904.47046  23147831.809    23147836.4464
  20427973.595    -8999431.709 9  -7001451.33647  20427972.779    20427975.4064
  23710907.428    -5364811.340 8  -4144359.57245  23710906.960    23710911.0744
  23017845.617    -3079474.255 8  -2388036.84546  23017844.577    23017848.3594
  22097550.589    -6695099.046 8  -5197711.85746  22097550.565    22097553.1294
 01  7 17 17  8 30.0000000  0  9 23 18 17 06 21 15 03 22 26
  20560677.318    -6840751.465 9  -5319475.43147  20560676.650    20560678.9824
  20547889.478   -13821235.023 8 -10751300.22547  20547888.883    20547890.2364
  20426141.153    -4276545.345 8  -3324456.82447  20426140.517    20426143.1044
  21817680.937     6332406.411 8   4934131.77446  21817680.733    21817683.5984
  23132207.492    -5220294.212 8  -4049885.38546  23132206.847    23132211.5014
  20423432.025    -9023297.756 9  -7020048.26147  20423431.203    20423433.9374
  23692384.226    -5462152.729 7  -4220209.92445  23692383.485    23692387.3844
  23024253.676    -3045798.541 8  -2361796.04446  23024252.742    23024256.7644
  22100418.337    -6680028.036 8  -5185968.20246  22100418.289    22100421.1074
 01  7 17 17  9  0.0000000  0  9 23 18 17 06 21 15 03 22 26
  20561868.044    -6834494.092 9  -5314599.55847  20561867.376    20561869.7204
  20540312.487   -13861051.890 9 -10782326.35247  20540311.918    20540313.3184
  20427028.051    -4271884.724 9  -3320825.18647  20427027.433    20427029.9914
  21833320.561     6414593.605 8   4998173.69146  21833320.377    21833323.4634
  23116627.480    -5302167.361 8  -4113682.59646  23116626.803    23116631.4524
  20418944.021    -9046882.480 9  -7038425.96347  20418943.230    20418945.8224
  23673894.240    -5559317.326 7  -4295922.53745  23673893.774    23673897.8464
  23030754.780    -3011635.745 8  -2335175.77746  23030753.871    23030757.7294
  22103408.447    -6664315.714 8  -5173724.87646  22103408.328    22103411.1164
 01  7 17 17  9 30.0000000  0  9 23 18 17 06 21 15 03 22 26
  20563142.107    -6827798.659 9  -5309382.33847  20563141.473    20563143.8194
  20532826.299   -13900392.409 8 -10812981.28847  20532825.711    20532827.0644
  20427964.733    -4266962.543 9  -3316989.72147  20427964.085    20427966.6764
  21849028.632     6497138.885 8   5062494.61646  21849028.342    21849031.3234
  23101092.258    -5383805.370 8  -4177296.57046  23101091.577    23101096.2214
  20414509.413    -9070186.364 9  -7056584.83247  20414508.610    20414511.2904
  23655438.099    -5656303.822 7  -4371496.40645  23655437.651    23655441.8634
  23037347.777    -2976988.853 8  -2308178.19645  23037346.897    23037350.6764
  22106520.217    -6647963.423 8  -5160982.80746  22106520.175    22106522.8264
 01  7 17 17 10  0.0000000  0  9 23 18 17 06 21 15 03 22 26
  20564499.402    -6820666.003 9  -5303824.42947  20564498.754    20564501.1514
  20525430.805   -13939255.709 8 -10843264.36447  20525430.250    20525431.6124
  20428951.270    -4261778.395 8  -3312950.14047  20428950.622    20428953.1464
  21864804.487     6580040.939 8   5127093.56446  21864804.141    21864807.1224
  23085602.218    -5465206.230 8  -4240725.73046  23085601.521    23085606.1324
  20410128.411    -9093208.847 9  -7074524.43847  20410127.583    20410130.2474
  23637016.570    -5753109.660 8  -4446929.46245  23637016.204    23637020.2704
  23044032.540    -2941859.652 8  -2280804.85246  23044031.709    23044035.6494
  22109753.603    -6630971.219 8  -5147742.15646  22109753.636    22109756.3664
 01  7 17 17 10 30.0000000  0  9 23 18 17 06 21 15 03 22 26
  20565939.561    -6813097.848 9  -5297927.16947  20565938.907    20565941.3274
  20518126.065   -13977642.088 8 -10873175.81647  20518125.547    20518126.9344
  20429987.595    -4256332.465 8  -3308706.56547  20429986.944    20429989.4964
  21880647.868     6663297.713 8   5191968.91346  21880647.463    21880650.3234
  23070157.392    -5546369.630 8  -4303969.86246  23070156.683    23070161.2434
  20405800.815    -9115950.202 9  -7092244.96347  20405800.038    20405802.6904
  23618629.953    -5849732.673 7  -4522220.06645  23618629.393    23618633.6174
  23050808.764    -2906251.016 8  -2253057.90946  23050807.947    23050811.9874
  22113108.887    -6613339.985 8  -5134003.54446  22113108.793    22113111.4524
 01  7 17 17 11  0.0000000  0  9 23 18 17 06 21 15 03 22 26
  20567462.543    -6805094.351 9  -5291690.68347  20567461.912    20567464.3324
  20510912.358   -14015550.496 8 -10902714.82947  20510911.811    20510913.1434
  20431073.915    -4250623.857 8  -3304258.30547  20431073.262    20431075.8484
  21896558.637     6746908.553 8   5257120.12446  21896558.258    21896560.9124
  23054757.981    -5627294.100 8  -4367027.83346  23054757.164    23054761.7514
  20401527.046    -9138409.415 9  -7109745.65247  20401526.217    20401528.8964
  23600278.091    -5946169.793 7  -4597365.81745  23600277.699    23600282.1704
  23057676.001    -2870163.414 8  -2224937.74946  23057675.113    23057679.3604
  22116585.734    -6595069.175 8  -5119766.54946  22116585.657    22116588.2984
 01  7 17 17 11 30.0000000  0  9 23 18 17 06 21 15 03 22 26
  20569068.219    -6796656.370 9  -5285115.63847  20569067.601    20569070.0714
  20503789.696   -14052980.231 8 -10931880.84047  20503789.162    20503790.5564
  20432210.328    -4244651.884 8  -3299604.83147  20432209.686    20432212.2844
  21912536.382     6830872.354 8   5322546.40046  21912536.007    21912538.8934
  23039404.168    -5707977.794 8  -4429898.18346  23039403.433    23039408.0834
  20397307.024    -9160585.638 9  -7127025.83147  20397306.239    20397308.8294
  23581962.553    -6042418.206 7  -4672364.52845  23581962.049    23581966.2574
  23064634.394    -2833598.042 8  -2196445.29645  23064633.436    23064637.2554
  22120184.135    -6576158.928 8  -5105031.30946  22120184.125    22120186.8444
 01  7 17 17 12  0.0000000  0  9 23 18 17 06 21 15 03 22 26
  20570756.104    -6787786.245 9  -5278203.85947  20570755.522    20570757.9764
  20496757.986   -14089932.063 8 -10960674.47447  20496757.430    20496758.8104
  20433396.689    -4238417.692 8  -3294747.03647  20433396.034    20433398.6354
  21928580.842     6915186.221 8   5388245.43646  21928580.510    21928583.5404
  23024096.126    -5788421.595 8  -4492581.62846  23024095.421    23024100.1004
  20393140.748    -9182479.688 9  -7144086.11647  20393139.913    20393142.5834
  23563682.490    -6138476.748 7  -4747215.33745  23563682.343    23563686.6364
  23071682.770    -2796558.560 8  -2167583.39145  23071681.787    23071685.6834
  22123903.980    -6556610.933 8  -5089799.12246  22123903.930    22123906.7384
 01  7 17 17 12 30.0000000  0  9 23 18 17 06 21 15 03 22 26
  20572526.353    -6778483.766 9  -5270955.17747  20572525.747    20572528.1994
  20489817.547   -14126404.521 8 -10989094.56047  20489816.945    20489818.3784
  20434633.221    -4231919.590 9  -3289683.59247  20434632.608    20434635.1944
  21944691.558     6999849.981 8   5454217.13546  21944691.306    21944694.7664
  23008833.955    -5868623.664 8  -4555076.67946  23008833.356    23008838.1274
  20389028.496    -9204089.796 9  -7160925.17947  20389027.670    20389030.3174
  23545440.267    -6234341.771 8  -4821915.31745  23545440.100    23545444.2274
  23078821.383    -2759045.802 8  -2138352.74646  23078820.335    23078824.4454
  22127745.407    -6536424.197 8  -5074069.18646  22127745.420    22127748.1914
 01  7 17 17 13  0.0000000  0  9 23 18 17 06 21 15 03 22 26
  20574378.261    -6768752.089 9  -5263372.06147  20574377.635    20574380.0274
  20482967.933   -14162399.238 8 -11017142.37647  20482967.387    20482968.7844
  20435919.695    -4225159.326 8  -3284415.86547  20435919.028    20435921.6574
  21960868.972     7084860.156 8   5520458.74546  21960868.506    21960871.7374
  22993617.876    -5948583.993 8  -4617383.35746  22993617.330    22993621.9254
  20384969.940    -9225417.566 9  -7177544.21347  20384969.090    20384971.7264
  23527235.266    -6330012.537 7  -4896463.89345  23527234.605    23527238.5914
  23086049.517    -2721063.578 8  -2108756.24146  23086048.321    23086052.1644
  22131708.030    -6515601.012 8  -5057843.36046  22131707.917    22131710.6244
 01  7 17 17 13 30.0000000  0  9 23 18 17 06 21 15 03 22 26
  20576311.626    -6758592.206 9  -5255455.27647  20576311.026    20576313.4494
  20476209.269   -14197916.068 9 -11044817.83447  20476208.746    20476210.1704
  20437256.016    -4218136.762 9  -3278943.74747  20437255.402    20437257.9774
  21977111.832     7170215.095 8   5586969.01046  21977111.242    21977114.3434
  22978448.141    -6028301.719 8  -4679501.02246  22978447.512    22978452.1534
  20380965.252    -9246462.555 9  -7193942.90147  20380964.422    20380967.0424
  23509066.425    -6425487.095 7  -4970859.63245  23509066.172    23509070.6814
  23093366.231    -2682613.276 8  -2078795.02545  23093365.037    23093368.6594
  22135791.539    -6494142.065 8  -5041122.11646  22135791.441    22135794.2064
 01  7 17 17 14  0.0000000  0  9 23 18 17 06 21 15 03 22 26
  20578326.615    -6748003.319 9  -5247204.19647  20578326.011    20578328.4544
  20469542.045   -14232952.765 8 -11072119.13347  20469541.462    20469542.8314
  20438642.794    -4210849.638 8  -3273265.47547  20438642.133    20438644.7214
  21993420.008     7255915.156 8   5653748.20746  21993419.423    21993422.5034
  22963324.941    -6107773.826 8  -4741427.29646  22963324.402    22963329.0104
  20377014.713    -9267222.500 9  -7210119.49347  20377013.897    20377016.5644
  23490936.440    -6520760.861 8  -5045098.89945  23490936.153    23490940.7274
  23100771.982    -2643695.095 8  -2048469.21246  23100770.938    23100774.7004
  22139996.432    -6472045.914 8  -5023904.36046  22139996.350    22139998.9174
 01  7 17 17 14 30.0000000  0  9 23 18 17 06 21 15 03 22 26
  20580422.734    -6736988.163 8  -5238620.96247  20580422.110    20580424.5784
  20462965.816   -14267510.677 8 -11099047.36647  20462965.304    20462966.7114
  20440079.554    -4203299.218 8  -3267382.05047  20440078.918    20440081.5144
  22009793.148     7341957.104 8   5720793.78646  22009792.677    22009795.8224
  22948248.305    -6187001.526 8  -4803163.11946  22948247.769    22948252.3184
  20373118.307    -9287698.554 9  -7226074.84947  20373117.484    20373120.1084
  23472845.104    -6615832.961 7  -5119180.98045  23472844.658    23472848.8184
  23108266.449    -2604312.911 8  -2017781.83145  23108265.281    23108268.8874
  22144321.951    -6449314.605 8  -5006191.66446  22144321.885    22144324.5234
 01  7 17 17 15  0.0000000  0  9 23 18 17 06 21 15 03 22 26
  20582599.834    -6725547.073 9  -5229705.83547  20582599.253    20582601.7944
  20456481.048   -14301588.523 8 -11125601.53247  20456480.533    20456481.9164
  20441566.665    -4195484.349 8  -3261292.54947  20441566.008    20441568.6684
  22026231.211     7428340.240 8   5788105.25346  22026230.768    22026234.1384
  22933218.697    -6265982.785 8  -4864706.90146  22933218.173    22933222.7624
  20369276.051    -9307889.363 9  -7241807.94847  20369275.244    20369277.8914
  23454792.276    -6710699.873 7  -5193103.21445  23454792.005    23454796.4104
  23115848.500    -2564468.058 8  -1986733.96845  23115847.402    23115851.3994
  22148768.255    -6425947.906 8  -4987983.89346  22148768.337    22148770.8824
 01  7 17 17 15 30.0000000  0  9 23 18 17 06 21 15 03 22 26
  20584857.914    -6713681.081 9  -5220459.61647  20584857.320    20584859.8214
  20450087.592   -14335186.214 8 -11151781.53947  20450087.029    20450088.4304
  20443104.186    -4187404.717 8  -3254996.74947  20443103.524    20443106.1944
  22042734.367     7515063.396 8   5855681.64446  22042733.833    22042737.2404
  22918236.219    -6344716.248 8  -4926057.58846  22918235.666    22918240.1134
  20365488.336    -9327794.246 9  -7257318.25847  20365487.506    20365490.1674
  23436779.637    -6805359.056 8  -5266863.53845  23436779.116    23436783.3004
  23123518.405    -2524162.012 8  -1955326.71145  23123517.342    23123521.4604
  22153335.830    -6401946.082 8  -4969281.18546  22153335.814    22153338.2184
 01  7 17 17 16  0.0000000  0  9 23 18 17 06 21 15 03 22 26
  20587196.135    -6701393.870 9  -5210885.17347  20587195.531    20587198.0324
  20443785.188   -14368305.890 8 -11177589.07347  20443784.643    20443785.9534
  20444691.613    -4179062.544 8  -3248496.36547  20444690.975    20444693.6934
  22059300.919     7602122.155 8   5923519.57546  22059300.414    22059303.9764
  22903300.637    -6423203.553 8  -4987216.46346  22903300.075    22903304.5174
  20361754.484    -9347415.545 9  -7272607.57647  20361753.651    20361756.3284
  23418805.793    -6899810.596 8  -5340462.11845  23418805.348    23418809.6994
  23131275.325    -2483398.942 8  -1923563.33345  23131274.332    23131278.2794
  22158023.664    -6377312.397 8  -4950086.12246  22158023.559    22158025.7954
 01  7 17 17 16 30.0000000  0  9 23 18 17 06 21 15 03 22 26
  20589614.681    -6688684.164 9  -5200981.51947  20589614.087    20589616.5984
  20437574.178   -14400945.013 8 -11203022.14847  20437573.602    20437574.9254
  20446329.522    -4170455.311 8  -3241789.44547  20446328.861    20446331.5774
  22075931.626     7689517.313 8   5991619.60346  22075931.241    22075934.7404
  22888412.773    -6501440.495 8  -5048180.25946  22888412.112    22888416.5624
  20358075.234    -9366750.504 9  -7287673.78147  20358074.379    20358077.0234
  23400872.671    -6994049.815 8  -5413895.23245  23400872.293    23400876.4904
  23139119.404    -2442178.786 8  -1891443.77646  23139118.361    23139122.5094
  22162831.917    -6352045.091 8  -4930397.32046  22162831.791    22162834.0634
 01  7 17 17 17  0.0000000  0  9 23 18 17 06 21 15 03 22 26
  20592113.344    -6675554.217 9  -5190750.39347  20592112.697    20592115.1104
  20431454.388   -14433104.470 8 -11228081.46147  20431453.858    20431455.1404
  20448017.811    -4161583.415 8  -3234876.29147  20448017.172    20448019.8664
  22092625.999     7777246.507 8   6059979.92446  22092625.573    22092628.9804
  22873572.095    -6579428.548 8  -5108950.11646  22873571.476    22873575.8464
  20354450.228    -9385799.792 9  -7302517.38847  20354449.398    20354452.0594
  23382980.362    -7088075.020 8  -5487161.59545  23382980.049    23382983.9504
  23147049.785    -2400504.961 8  -1858970.72046  23147048.742    23147052.9404
  22167760.280    -6326145.781 8  -4910216.08846  22167760.189    22167762.6194
 01  7 17 17 17 30.0000000  0  9 23 18 17 06 21 15 03 22 26
  20594691.672    -6662004.910 9  -5180192.50347  20594691.022    20594693.4494
  20425426.120   -14464783.559 8 -11252766.45447  20425425.522    20425426.8294
  20449756.547    -4152446.434 9  -3227756.57747  20449755.899    20449758.5884
  22109383.499     7865308.319 8   6128599.42546  22109383.123    22109386.4874
  22858778.941    -6657166.325 8  -5169524.97146  22858778.367    22858782.7484
  20350879.782    -9404562.707 9  -7317137.84247  20350878.960    20350881.5574
  23365129.396    -7181883.652 8  -5560259.17145  23365129.018    23365132.6754
  23155065.824    -2358379.106 8  -1826145.45845  23155064.941    23155069.1374
  22172808.843    -6299614.854 8  -4889542.65146  22172808.814    22172811.3854
 01  7 17 17 18  0.0000000  0  9 23 18 17 06 21 15 03 22 26
  20597349.510    -6648037.671 9  -5169308.95447  20597348.902    20597351.3404
  20419489.105   -14495982.557 9 -11277077.35447  20419488.562    20419489.8754
  20451545.782    -4143044.195 9  -3220430.17147  20451545.120    20451547.7904
  22126203.923     7953700.855 8   6197476.64346  22126203.717    22126207.1324
  22844033.652    -6734652.846 8  -5229904.01646  22844033.165    22844037.4214
  20347363.902    -9423038.882 9  -7331534.85547  20347363.084    20347365.7304
  23347320.025    -7275473.270 8  -5633186.08245  23347319.468    23347322.8774
  23163167.992    -2315803.200 8  -1792969.45546  23163167.143    23163171.2164
  22177977.533    -6272453.327 8  -4868377.84346  22177977.525    22177980.1334
 01  7 17 17 18 30.0000000  0  9 23 18 17 06 21 15 03 22 26
  20600086.555    -6633654.825 9  -5158101.54547  20600085.897    20600088.2934
  20413643.246   -14526702.599 9 -11301015.04447  20413642.709    20413644.0194
  20453385.277    -4133377.771 9  -3212897.91147  20453384.616    20453387.2294
  22143086.968     8042421.328 8   6266609.39146  22143086.770    22143090.1614
  22829336.382    -6811887.894 8  -5290087.13646  22829335.850    22829340.0894
  20343902.408    -9441228.742 9  -7345708.78847  20343901.610    20343904.3054
  23329552.020    -7368842.606 8  -5705941.38445  23329551.597    23329555.2874
  23171354.900    -2272780.194 8  -1759445.11045  23171354.006    23171358.3364
  22183266.122    -6244662.970 8  -4846723.02446  22183265.924    22183268.5154
 01  7 17 17 19  0.0000000  0  9 23 18 17 06 21 15 03 22 26
  20602902.702    -6618855.513 9  -5146569.61847  20602902.098    20602904.5404
  20407889.000   -14556941.524 8 -11324577.83847  20407888.443    20407889.7474
  20455275.417    -4123444.732 9  -3205157.88747  20455274.768    20455277.4214
  22160032.578     8131470.067 8   6335997.92146  22160032.349    22160035.7674
  22814687.267    -6888869.129 8  -5350072.46346  22814686.771    22814691.0704
  20340495.949    -9459130.126 9  -7359657.90547  20340495.128    20340497.7654
  23311827.275    -7461987.079 8  -5778521.46345  23311826.947    23311830.3784
  23179626.889    -2229310.627 8  -1725572.78245  23179626.008    23179630.2604
  22188674.403    -6216242.538 8  -4824577.24246  22188674.200    22188676.7084
 01  7 17 17 19 30.0000000  0  9 23 18 17 06 21 15 03 22 26
  20605797.760    -6603641.802 9  -5134714.79047  20605797.154    20605799.6514
  20402226.177   -14586699.624 8 -11347765.95847  20402225.613    20402226.9724
  20457216.348    -4113245.404 9  -3197210.38047  20457215.665    20457218.2824
  22177040.181     8220844.717 8   6405640.42146  22177039.885    22177043.3774
  22800086.499    -6965596.150 8  -5409859.70246  22800086.019    22800090.3364
  20337144.307    -9476743.268 9  -7373382.43347  20337143.488    20337146.0774
  23294146.021    -7554904.940 8  -5850924.93345  23294145.369    23294148.7724
  23187983.700    -2185397.814 8  -1691355.04346  23187982.603    23187986.6524
  22194202.161    -6187193.668 8  -4801941.78746  22194202.034    22194204.4314
 01  7 17 17 20  0.0000000  0  9 23 18 17 06 21 15 03 22 26
  20608771.342    -6588015.609 9  -5122538.55447  20608770.725    20608773.2544
  20396654.772   -14615977.758 8 -11370580.08247  20396654.220    20396655.5264
  20459207.728    -4102780.435 9  -3189055.87647  20459207.105    20459209.7134
  22194109.254     8310542.969 8   6475535.05046  22194108.968    22194112.5834
  22785534.262    -7042068.850 8  -5469448.76146  22785533.693    22785537.9984
  20333847.338    -9494068.706 9  -7386882.78847  20333846.551    20333849.2324
  23276507.311    -7647594.254 8  -5923150.34545  23276506.860    23276510.6514
  23196423.675    -2141044.103 7  -1656793.80345  23196422.631    23196427.0554
  22199849.377    -6157517.747 8  -4778817.71646  22199849.194    22199851.4924
 01  7 17 17 20 30.0000000  0  9 23 18 17 06 21 15 03 22 26
  20611823.130    -6571978.454 9  -5110042.08147  20611822.502    20611824.9994
  20391174.605   -14644776.052 9 -11393020.30747  20391174.024    20391175.3744
  20461249.787    -4092049.570 9  -3180694.17947  20461249.142    20461251.7534
  22211239.411     8400562.857 8   6545680.31446  22211239.149    22211242.9334
  22771030.431    -7118286.789 8  -5528839.33846  22771029.884    22771034.1154
  20330605.308    -9511106.016 9  -7400158.61547  20330604.485    20330607.1264
  23258912.860    -7740053.014 8  -5995196.08345  23258912.351    23258915.9984
  23204947.467    -2096251.556 8  -1621890.58645  23204946.579    23204950.9654
  22205615.719    -6127215.880 8  -4755205.91646  22205615.442    22205617.7604
 01  7 17 17 21  0.0000000  0  9 23 18 17 06 21 15 03 22 26
  20614952.829    -6555531.768 9  -5097226.48047  20614952.215    20614954.6544
  20385785.733   -14673094.735 8 -11415086.81247  20385785.165    20385786.5184
  20463342.381    -4081052.975 9  -3172125.41347  20463341.723    20463344.3534
  22228430.340     8490902.220 8   6616074.52646  22228430.188    22228433.9744
  22756575.359    -7194248.647 8  -5588030.34546  22756574.761    22756579.0624
  20327418.136    -9527854.904 9  -7413209.69147  20327417.282    20327419.8794
  23241362.983    -7832278.785 8  -6067060.27445  23241362.549    23241365.9824
  23213554.750    -2051022.826 8  -1586647.42545  23213553.691    23213557.5404
  22211500.811    -6096289.493 8  -4731107.44246  22211500.598    22211502.9764
 01  7 17 17 21 30.0000000  0  9 23 18 17 06 21 15 03 22 26
  20618160.335    -6538676.530 9  -5084092.53347  20618159.715    20618162.1524
  20380488.150   -14700933.863 8 -11436779.62347  20380487.582    20380488.9254
  20465485.716    -4069790.030 9  -3163349.10947  20465485.049    20465487.6394
  22245681.858     8581559.802 8   6686716.71146  22245681.765    22245685.6304
  22742169.084    -7269953.699 8  -5647021.26246  22742168.514    22742172.6914
  20324285.804    -9544314.883 9  -7426035.65547  20324285.040    20324287.6934
  23223857.740    -7924268.729 8  -6138740.72245  23223857.338    23223860.9774
  23222243.572    -2005360.218 7  -1551066.26645  23222242.408    23222246.6804
  22217504.623    -6064739.132 8  -4706522.78146  22217504.392    22217506.7914
 01  7 17 17 22  0.0000000  0  9 23 18 17 06 21 15 03 22 26
  20621445.296    -6521414.116 9  -5070641.32247  20621444.631    20621447.0754
  20375281.743   -14728293.139 8 -11458098.54647  20375281.226    20375282.6244
  20467679.711    -4058260.444 9  -3154365.02247  20467679.061    20467681.6474
  22262994.124     8672533.969 8   6757605.56046  22262993.770    22262997.4694
  22727812.038    -7345400.857 8  -5705811.18946  22727811.384    22727815.5594
  20321208.673    -9560485.623 9  -7438636.23047  20321207.861    20321210.4984
  23206397.588    -8016020.286 8  -6210235.40445  23206397.236    23206401.4174
  23231015.045    -1959266.073 8  -1515148.79945  23231014.043    23231018.2784
  22223626.914    -6032565.670 8  -4681452.53046  22223626.803    22223629.2794
 01  7 17 17 22 30.0000000  0  9 23 18 17 06 21 15 03 22 26
  20624807.242    -6503746.416 9  -5056874.28747  20624806.654    20624809.1264
  20370166.637   -14755173.064 8 -11479043.92647  20370166.138    20370167.5074
  20469924.474    -4046464.453 9  -3145173.34847  20469923.787    20469926.3774
  22280365.814     8763822.315 8   6828739.21346  22280365.484    22280368.9604
  22713503.885    -7420590.191 8  -5764400.23846  22713503.289    22713507.5854
  20318186.542    -9576367.096 9  -7451011.40647  20318185.743    20318188.3984
  23188983.663    -8107531.914 8  -6281543.11645  23188983.380    23188987.1454
  23239868.641    -1912742.617 8  -1478896.79246  23239867.454    23239871.5104
  22229867.568    -5999770.691 8  -4655898.01246  22229867.493    22229869.9404
 01  7 17 17 23  0.0000000  0  9 23 18 17 06 21 15 03 22 26
  20628246.086    -6485675.344 9  -5042792.93647  20628245.463    20628247.9444
  20365142.634   -14781574.359 8 -11499616.37247  20365142.125    20365143.5264
  20472219.801    -4034402.325 8  -3135774.30147  20472219.128    20472221.7574
  22297797.024     8855422.735 8   6900116.07846  22297796.557    22297800.0754
  22699244.890    -7495521.370 8  -5822788.11846  22699244.340    22699248.6004
  20315219.381    -9591959.396 9  -7463161.24547  20315218.607    20315221.2424
  23171615.643    -8198801.621 8  -6352662.31545  23171615.205    23171619.1754
  23248802.762    -1865792.352 8  -1442312.29445  23248801.579    23248806.0594
  22236226.167    -5966355.678 8  -4629860.36946  22236226.221    22236228.6484
 01  7 17 17 23 30.0000000  0  9 23 18 17 06 21 15 03 22 26
  20631761.735    -6467200.519 9  -5028396.97847  20631761.099    20631763.6524
  20360210.050   -14807495.391 9 -11519814.56847  20360209.510    20360210.8684
  20474566.169    -4022072.035 8  -3126166.28547  20474565.513    20474568.1014
  22315287.108     8947335.118 8   6971736.03746  22315286.708    22315290.5544
  22685035.222    -7570192.250 8  -5880973.17446  22685034.848    22685039.2504
  20312307.720    -9607260.351 9  -7475084.06447  20312306.913    20312309.5764
  23154294.467    -8289825.003 8  -6423589.59245  23154293.956    23154298.1564
  23257818.398    -1818416.371 8  -1405395.98445  23257817.317    23257821.3244
  22242703.170    -5932319.918 8  -4603339.03846  22242703.147    22242705.4374
 01  7 17 17 24  0.0000000  0  9 23 18 17 06 21 15 03 22 26
  20635353.755    -6448324.505 9  -5013688.41647  20635353.102    20635355.6514
  20355368.679   -14832937.344 8 -11539639.46147  20355368.092    20355369.4404
  20476963.338    -4009474.777 8  -3116350.24947  20476962.664    20476965.3024
  22332836.346     9039556.084 8   7043596.41146  22332835.939    22332839.8304
  22670875.374    -7644602.655 8  -5938955.26846  22670874.890    22670879.2374
  20309451.274    -9622270.908 9  -7486780.61047  20309450.480    20309453.1544
  23137020.318    -8380600.870 8  -6494324.00345  23137019.784    23137023.9784
  23266913.958    -1770618.732 8  -1368151.07645  23266912.962    23266916.7984
  22249297.926    -5897666.081 8  -4576336.07046  22249297.692    22249299.8594
 01  7 17 17 24 30.0000000  0  9 23 18 17 06 21 15 03 22 26
  20639021.936    -6429048.360 9  -4998668.05147  20639021.283    20639023.7264
  20350618.356   -14857900.218 9 -11559091.05447  20350617.820    20350619.1904
  20479411.337    -3996609.915 8  -3106325.69347  20479410.689    20479413.4264
  22350444.030     9132084.090 8   7115696.04246  22350443.589    22350447.4184
  22656765.358    -7718751.435 8  -5996733.48246  22656764.838    22656769.2434
  20306650.217    -9636990.485 9  -7498250.40847  20306649.419    20306652.1034
  23119794.030    -8471126.546 8  -6564863.44645  23119793.420    23119797.6304
  23276089.383    -1722400.833 8  -1330578.78645  23276088.399    23276092.3814
  22256009.784    -5862394.687 8  -4548851.87346  22256009.655    22256011.8914
 01  7 17 17 25  0.0000000  0  9 23 18 17 06 21 15 03 22 26
  20642766.098    -6409372.721 9  -4983336.39047  20642765.421    20642767.8774
  20345959.467   -14882383.375 9 -11578168.83347  20345958.896    20345960.1664
  20481910.594    -3983476.383 8  -3096091.79447  20481909.959    20481912.7054
  22368110.223     9224918.245 8   7188034.22746  22368109.699    22368113.2984
  22642705.092    -7792638.246 8  -6054307.56646  22642704.572    22642708.9884
  20303904.775    -9651417.883 9  -7509492.54247  20303903.990    20303906.6664
  23102615.827    -8561398.531 8  -6635205.20945  23102615.292    23102619.4634
  23285344.737    -1673764.158 8  -1292680.10645  23285343.781    23285347.7144
  22262839.105    -5826506.287 8  -4520886.87846  22262839.037    22262841.3484
 01  7 17 17 25 30.0000000  0  9 23 18 17 06 21 15 03 22 26
  20646585.577    -6389301.093 9  -4967696.17147  20646584.917    20646587.3964
  20341391.340   -14906389.105 8 -11596874.59147  20341390.758    20341392.0734
  20484460.617    -3970076.025 9  -3085649.97147  20484459.973    20484462.7234
  22385833.601     9318054.654 8   7260607.92246  22385833.060    22385836.5984
  22628694.771    -7866263.628 8  -6111677.92346  22628694.131    22628698.6064
  20301214.611    -9665554.871 9  -7520508.38047  20301213.852    20301216.5234
  23085485.766    -8651416.557 7  -6705349.10245  23085485.122    23085489.5724
  23294678.739    -1624713.035 7  -1254458.49445  23294677.623    23294681.9644
  22269785.458    -5790004.090 8  -4492443.63046  22269785.289    22269787.4564
 01  7 17 17 26  0.0000000  0  9 23 18 17 06 21 15 03 22 26
  20650480.838    -6368831.389 9  -4951745.76247  20650480.210    20650482.6654
  20336914.750   -14929913.995 8 -11615205.67947  20336914.157    20336915.3994
  20487062.103    -3956405.116 8  -3074997.33147  20487061.483    20487064.2534
  22403614.981     9411495.120 8   7333418.56946  22403614.370    22403617.7864
  22614734.728    -7939623.474 8  -6168841.39946  22614734.196    22614738.6224
  20298580.447    -9679397.482 9  -7531294.82847  20298579.626    20298582.3564
  23068405.501    -8741174.707 8  -6775290.46945  23068405.194    23068408.8784
  23304091.296    -1575246.763 8  -1215913.46345  23304090.532    23304095.5694
  22276848.482    -5752885.755 8  -4463520.26846  22276848.509    22276850.8254
 01  7 17 17 26 30.0000000  0  9 23 18 17 06 21 15 03 22 26
  20654451.104    -6347967.734 9  -4935488.37547  20654450.462    20654452.9064
  20332529.026   -14952960.854 8 -11633164.26147  20332528.434    20332529.7224
  20489714.680    -3942466.039 9  -3064135.74047  20489714.026    20489716.7404
  22421452.959     9505234.924 8   7406462.46946  22421452.421    22421456.0184
  22600825.105    -8012719.895 8  -6225799.61646  22600824.425    22600828.6534
  20296001.850    -9692947.997 9  -7541853.68047  20296001.081    20296003.7614
  23051374.942    -8830673.254 8  -6845029.54746  23051374.156    23051378.0504
  23313582.852    -1525370.655 8  -1177049.01246  23313582.072    23313586.7494
  22284028.309    -5715155.299 8  -4434119.92946  22284028.338    22284030.7134
 01  7 17 17 27  0.0000000  0  9 23 18 17 06 21 15 03 22 26
  20658495.864    -6326712.268 9  -4918925.68247  20658495.231    20658497.6794
  20328234.165   -14975530.673 8 -11650751.13647  20328233.567    20328234.8274
  20492418.088    -3928259.404 9  -3053065.64847  20492417.464    20492420.1534
  22439347.602     9599271.388 8   7479737.51846  22439347.063    22439350.6404
  22586965.364    -8085552.504 8  -6282552.24945  22586964.840    22586968.9684
  20293478.821    -9706206.874 9  -7552185.26947  20293478.008    20293480.7804
  23034393.212    -8919910.535 8  -6914565.07545  23034392.861    23034396.6674
  23323152.026    -1475087.352 8  -1137867.23845  23323151.118    23323154.9954
  22291324.322    -5676814.698 8  -4404244.14346  22291324.267    22291326.6184
 01  7 17 17 27 30.0000000  0  9 23 18 17 06 21 15 03 22 26
  20662615.383    -6305064.128 9  -4902057.01347  20662614.730    20662617.2154
  20324030.343   -14997621.605 8 -11667964.85147  20324029.767    20324031.0914
  20495172.969    -3913782.629 9  -3041785.04747  20495172.337    20495174.9904
  22457298.685     9693604.998 8   7553244.11646  22457298.246    22457301.9044
  22573156.581    -8158118.370 8  -6339097.02645  22573155.939    22573160.1964
  20291011.676    -9719171.497 9  -7562287.58347  20291010.896    20291013.6554
  23017462.775    -9008881.718 8  -6983893.21745  23017462.203    23017465.8174
  23332798.010    -1424396.731 8  -1098368.07945  23332797.191    23332801.0324
  22298736.432    -5637862.997 8  -4373892.18146  22298736.506    22298738.9444
 01  7 17 17 28  0.0000000  0  9 23 18 17 06 21 15 03 22 26
  20666809.098    -6283025.985 9  -4884884.44247  20666808.446    20666810.9424
  20319917.439   -15019234.908 9 -11684806.37047  20319916.874    20319918.1984
  20497979.102    -3899036.680 9  -3030294.71047  20497978.415    20497981.0454
  22475305.545     9788232.693 8   7626979.88446  22475305.191    22475309.1324
  22559398.489    -8230418.331 8  -6395434.59845  22559397.774    22559402.0464
  20288600.412    -9731842.734 9  -7572161.27247  20288599.625    20288602.4294
  23000582.903    -9097585.323 8  -7053012.86946  23000582.598    23000586.0234
  23342520.618    -1373302.804 8  -1058554.69445  23342519.790    23342524.0714
  22306264.353    -5598302.686 8  -4343065.96146  22306264.485    22306267.0034
 01  7 17 17 28 30.0000000  0  9 23 18 17 06 21 15 03 22 26
  20671077.011    -6260598.135 9  -4867408.20347  20671076.362    20671078.8544
  20315895.588   -15040369.708 8 -11701275.05547  20315895.039    20315896.3314
  20500836.655    -3884020.009 8  -3018593.40247  20500835.977    20500838.6074
  22493368.159     9883153.983 8   7700944.40446  22493368.045    22493372.1554
  22545691.181    -8302450.544 7  -6451563.57645  22545690.463    22545694.7574
  20286245.347    -9744218.919 9  -7581805.05447  20286244.545    20286247.2394
  22983754.637    -9186017.775 8  -7121921.25346  22983754.368    22983757.9734
  23352320.159    -1321807.041 8  -1018428.19645  23352319.356    23352323.3894
  22313908.474    -5558133.839 8  -4311765.58446  22313908.443    22313910.9424
 01  7 17 17 29  0.0000000  0  9 23 18 17 06 21 15 03 22 26
  20675418.364    -6237784.339 9  -4849631.22547  20675417.696    20675420.1874
  20311964.335   -15061028.560 8 -11717372.85347  20311963.800    20311965.1094
  20503745.301    -3868734.740 9  -3006682.79947  20503744.673    20503747.3234
  22511486.239     9978364.494 8   7775134.29846  22511486.052    22511490.2304
  22532034.425    -8374216.812 7  -6507485.30245  22532033.699    22532038.0374
  20283946.008    -9756301.842 9  -7591220.31147  20283945.247    20283947.9524
  22966978.081    -9274179.246 8  -7190618.42546  22966977.793    22966981.2374
  23362194.712    -1269914.219 8   -977992.26645  23362194.020    23362198.3584
  22321667.444    -5517360.243 8  -4279993.96346  22321667.392    22321669.9224
 01  7 17 17 29 30.0000000  0  9 23 18 17 06 21 15 03 22 26
  20679833.210    -6214584.017 9  -4831553.05947  20679832.570    20679835.0564
  20308123.983   -15081209.447 8 -11733098.21647  20308123.449    20308124.7434
  20506705.621    -3853178.509 8  -2994561.06147  20506704.954    20506707.6604
  22529659.413    10073864.532 8   7849549.78346  22529659.181    22529663.4124
  22518428.696    -8445713.822 8  -6563197.26545  22518428.187    22518432.3704
  20281703.037    -9768088.994 9  -7600405.11147  20281702.230    20281704.9214
  22950253.706    -9362064.550 8  -7259100.45746  22950253.580    22950257.1004
  23372145.413    -1217624.081 8   -937246.76345  23372144.681    23372148.9744
  22329541.606    -5475981.140 8  -4247750.54846  22329541.451    22329544.2294
 01  7 17 17 30  0.0000000  0  9 23 18 17 06 21 15 03 22 26
  20684321.059    -6191000.213 9  -4813176.07647  20684320.403    20684322.9104
  20304374.301   -15100914.487 8 -11748452.79047  20304373.725    20304375.0184
  20509717.194    -3837352.654 9  -2982229.24347  20509716.529    20509719.2164
  22547887.076    10169650.485 8   7924188.05646  22547886.822    22547890.9784
  22504874.175    -8516942.999 7  -6618700.44645  22504873.660    22504878.0334
  20279516.028    -9779581.651 9  -7609360.43847  20279515.264    20279517.9564
  22933582.380    -9449672.863 8  -7327366.62846  22933582.132    22933585.8384
  23382171.111    -1164940.811 8   -896194.92045  23382170.239    23382174.5814
  22337530.161    -5433999.720 8  -4215037.76446  22337530.110    22337533.0874
 01  7 17 17 30 30.0000000  0  9 23 18 17 06 21 15 03 22 26
  20688881.619    -6167033.944 9  -4794501.07147  20688881.006    20688883.5644
  20300715.101   -15120143.625 8 -11763436.53247  20300714.548    20300715.8144
  20512780.170    -3821256.547 9  -2969686.84047  20512779.528    20512782.2444
  22566168.885    10265720.843 8   7999047.95746  22566168.516    22566172.6734
  22491370.877    -8587903.110 7  -6673993.96745  22491370.319    22491374.6854
  20277385.228    -9790779.093 9  -7618085.71547  20277384.429    20277387.1614
  22916964.446    -9537001.733 8  -7395415.04946  22916964.006    22916967.6604
  23392270.848    -1111866.931 7   -854838.70845  23392269.839    23392274.1734
  22345633.345    -5391416.690 8  -4181856.17846  22345633.340    22345636.3454
 01  7 17 17 31  0.0000000  0  9 23 18 17 06 21 15 03 22 26
  20693514.880    -6142686.183 9  -4775528.79947  20693514.258    20693516.8294
  20297146.453   -15138896.613 8 -11778049.24747  20297145.928    20297147.2594
  20515894.832    -3804889.365 9  -2956933.21447  20515894.162    20515896.8734
  22584504.357    10362074.035 8   8074128.24846  22584504.033    22584508.2364
  22477918.810    -8658593.045 7  -6729077.02745  22477918.351    22477922.8664
  20275310.758    -9801680.375 9  -7626580.22647  20275310.005    20275312.6774
  22900399.713    -9624048.031 8  -7463243.31346  22900399.503    22900402.8054
  23402444.197    -1058404.526 8   -813179.76745  23402443.235    23402447.6794
  22353850.770    -5348233.231 8  -4148206.76146  22353850.861    22353853.9014
 01  7 17 17 31 30.0000000  0  9 23 18 17 06 21 15 03 22 26
  20698220.275    -6117959.274 9  -4756261.08747  20698219.671    20698222.1934
  20293668.328   -15157174.546 8 -11792291.78047  20293667.756    20293669.0894
  20519060.862    -3788251.674 9  -2943968.80247  20519060.220    20519062.9314
  22602893.234    10458707.609 8   8149427.00846  22602892.862    22602897.1324
  22464518.549    -8729012.396 7  -6783949.22045  22464517.939    22464522.2524
  20273292.643    -9812285.838 9  -7634844.21947  20273291.862    20273294.5954
  22883889.469    -9710810.339 8  -7530850.25946  22883889.103    22883892.5794
  23412691.121    -1004556.508 8   -771220.30445  23412690.232    23412694.6344
  22362182.304    -5304451.451 8  -4114091.09546  22362182.233    22362185.3004
 01  7 17 17 32  0.0000000  0  9 23 18 17 06 21 15 03 22 26
  20702997.684    -6092854.159 9  -4736698.66847  20702997.023    20702999.5434
  20290280.576   -15174977.377 8 -11806164.11647  20290279.991    20290281.2874
  20522278.531    -3771342.700 9  -2930792.98847  20522277.893    20522280.5974
  22621335.366    10555620.120 8   8224943.11146  22621334.866    22621339.0814
  22451169.695    -8799160.650 7  -6838610.16545  22451168.989    22451173.4434
  20271330.995    -9822594.601 9  -7642877.02647  20271330.210    20271332.8734
  22867433.861    -9797285.265 8  -7598233.28146  22867433.326    22867437.0574
  23423011.111     -950324.588 7   -728961.72245  23423010.118    23423014.7614
  22370627.396    -5260072.542 8  -4079510.16146  22370627.357    22370630.3624
 01  7 17 17 32 30.0000000  0  9 23 18 17 06 21 15 03 22 26
  20707846.693    -6067372.303 9  -4716842.69047  20707846.047    20707848.5884
  20286983.201   -15192305.213 8 -11819666.32747  20286982.644    20286983.9624
  20525547.916    -3754161.967 8  -2917405.40747  20525547.259    20525549.9454
  22639830.082    10652809.521 8   8300674.99746  22639829.571    22639833.6144
  22437872.640    -8869037.492 7  -6893059.57845  22437871.865    22437876.3084
  20269425.803    -9832606.241 9  -7650678.30447  20269425.019    20269427.7514
  22851033.175    -9883470.337 8  -7665390.44646  22851032.859    22851036.2894
  23433403.419     -895711.461 8   -686406.12745  23433402.613    23433407.2764
  22379185.654    -5215097.837 8  -4044464.94746  22379185.762    22379188.8004
 01  7 17 17 33  0.0000000  0  9 23 18 17 06 21 15 03 22 26
  20712767.015    -6041515.547 9  -4696694.57547  20712766.410    20712768.9614
  20283776.036   -15209158.898 8 -11832799.06247  20283775.444    20283776.7724
  20528868.927    -3736709.754 8  -2903806.28647  20528868.280    20528871.0224
  22658376.831    10750273.374 8   8376620.74546  22658376.402    22658380.3694
  22424627.491    -8938642.259 7  -6947297.01145  22424626.814    22424631.1164
  20267577.245    -9842320.489 9  -7658247.85647  20267576.489    20267579.1534
  22834688.439    -9969363.289 8  -7732319.99746  22834687.885    22834691.6464
  23443867.941     -840720.570 8   -643556.12545  23443867.129    23443871.9074
  22387857.167    -5169529.352 8  -4008957.06146  22387857.248    22387860.2114
 01  7 17 17 33 30.0000000  0  9 23 18 17 06 21 15 03 22 26
  20717758.448    -6015285.333 9  -4676255.45647  20717757.875    20717760.4014
  20280659.092   -15225538.811 8 -11845562.62547  20280658.512    20280659.8024
  20532241.750    -3718985.703 8  -2889995.34547  20532241.075    20532243.8034
  22676975.461    10848009.791 8   8452778.85546  22676975.166    22676979.0814
  22411433.992    -9007973.892 7  -7001321.64645  22411433.307    22411437.5444
  20265785.320    -9851737.072 9  -7665585.44847  20265784.519    20265787.2484
  22818399.565   -10054961.534 8  -7799019.88546  22818399.100    22818402.7204
  23454403.911     -785354.136 8   -600413.49845  23454403.094    23454407.9664
  22396641.327    -5123368.564 8  -3972987.64346  22396641.377    22396644.3164
 01  7 17 17 34  0.0000000  0  9 23 18 17 06 21 15 03 22 26
  20722820.685    -5988683.321 9  -4655526.62847  20722820.090    20722822.5884
  20277632.109   -15241445.495 8 -11857957.43947  20277631.538    20277632.8684
  20535666.279    -3700989.691 8  -2875972.48747  20535665.595    20535668.3604
  22695625.652    10946016.692 8   8529147.75946  22695625.325    22695629.3334
  22398292.514    -9077032.750 7  -7055133.73145  22398291.845    22398296.0264
  20264050.137    -9860855.847 9  -7672690.98747  20264049.351    20264052.0234
  22802167.517   -10140262.859 8  -7865488.40446  22802166.809    22802170.3524
  23465010.896     -729614.550 7   -556980.16645  23465009.821    23465014.7414
  22405537.877    -5076617.205 8  -3936558.03946  22405537.949    22405540.8404
 01  7 17 17 34 30.0000000  0  9 23 18 17 06 21 15 03 22 26
  20727953.553    -5961710.433 9  -4634508.79647  20727952.917    20727955.3864
  20274695.207   -15256879.035 8 -11869983.56747  20274694.651    20274696.0014
  20539142.829    -3682720.825 8  -2861737.02447  20539142.078    20539144.8064
  22714327.454    11044292.821 8   8605726.40046  22714326.998    22714330.7364
  22385203.565    -9145817.015 7  -7108731.84845  22385202.837    22385206.4774
  20262371.712    -9869675.905 9  -7679563.75847  20262370.912    20262373.5884
  22785991.767   -10225264.309 8  -7931723.28046  22785991.426    22785994.9664
  23475688.662     -673503.659 8   -513257.39845  23475687.579    23475692.1634
  22414546.482    -5029276.428 8  -3899669.13546  22414546.702    22414549.4894
 01  7 17 17 35  0.0000000  0  9 23 18 17 06 21 15 03 22 26
  20733156.337    -5934369.231 9  -4613203.97147  20733155.725    20733158.2274
  20271848.120   -15271840.518 8 -11881641.86347  20271847.572    20271848.8724
  20542670.994    -3664179.710 8  -2847289.41147  20542670.316    20542673.0494
  22733079.513    11142835.059 8   8682512.45846  22733079.027    22733082.9274
  22372166.300    -9214327.035 7  -7162116.18745  22372165.472    22372169.4394
  20260750.165    -9878197.440 9  -7686203.92147  20260749.345    20260752.0054
  22769874.070   -10309964.164 8  -7997723.13246  22769873.794    22769877.2114
  23486436.165     -617025.483 8   -469248.47245  23486435.099    23486439.6024
  22423666.971    -4981348.731 8  -3862322.90746  22423667.118    22423669.8474
 01  7 17 17 35 30.0000000  0  9 23 18 17 06 21 15 03 22 26
  20738429.034    -5906660.759 9  -4591612.96747  20738428.455    20738431.0044
  20269090.826   -15286329.912 8 -11892932.30247  20269090.301    20269091.6614
  20546251.255    -3645365.790 8  -2832629.23747  20546250.517    20546253.2264
  22751881.992    11241642.062 8   8759504.79446  22751881.560    22751885.3974
  22359181.894    -9282562.214 7  -7215286.37345  22359180.792    22359184.7194
  20259185.478    -9886419.779 9  -7692610.93647  20259184.668    20259187.3564
  22753814.217   -10394359.513 8  -8063485.70946  22753813.674    22753817.1264
  23497252.883     -560182.235 7   -424955.13945  23497251.821    23497256.5834
  22432899.269    -4932835.316 8  -3824520.29146  22432899.096    22432901.6764
 01  7 17 17 36  0.0000000  0  9 23 18 17 06 21 15 03 22 26
  20743771.389    -5878586.414 8  -4569736.86647  20743770.836    20743773.4014
  20266423.336   -15300347.892 8 -11903855.38847  20266422.768    20266424.0674
  20549883.408    -3626278.595 8  -2817756.10947  20549882.712    20549885.4024
  22770734.558    11340711.910 8   8836701.93546  22770734.029    22770737.9504
  22346249.317    -9350521.75917  -7268241.77945  22346248.454    22346252.3314
  20257677.862    -9894342.378 9  -7698784.38947  20257677.042    20257679.6764
  22737812.764   -10478447.889 8  -8129009.06546  22737812.459    22737815.7004
  23508138.589     -502976.206 8   -380379.07345  23508137.694    23508142.6104
  22442242.118    -4883737.837 8  -3786262.49946  22442242.039    22442244.6514
 01  7 17 17 36 30.0000000  0  9 23 18 17 06 21 15 03 22 26
  20749183.166    -5850147.805 8  -4547576.92747  20749182.570    20749185.0774
  20263845.396   -15313894.775 8 -11914411.40547  20263844.842    20263846.1914
  20553567.665    -3606917.939 8  -2802669.88747  20553566.952    20553569.6454
  22789636.766    11440042.343 8   8914102.13046  22789636.093    22789639.8864
  22333369.583    -9418205.210 7  -7320982.11445  22333368.720    22333372.8454
  20256227.333    -9901964.833 9  -7704723.96547  20256226.526    20256229.1664
  22721870.383   -10562226.714 8  -8194291.21646  22721869.867    22721873.1064
  23519093.755     -445409.666 8   -335522.05045  23519092.770    23519097.0564
  22451695.755    -4834057.978 8  -3747550.94246  22451695.684    22451698.4264
 01  7 17 17 37  0.0000000  0  9 23 18 17 06 21 15 03 22 26
  20754664.012    -5821345.940 9  -4525133.92147  20754663.406    20754665.8414
  20261357.175   -15326970.571 8 -11924600.33747  20261356.635    20261357.9694
  20557304.056    -3587282.894 8  -2787369.86347  20557303.365    20557306.1064
  22808587.785    11539631.939 8   8991704.28646  22808587.283    22808591.1594
  22320542.456    -9485611.762 7  -7373506.67745  22320541.621    22320545.7764
  20254834.140    -9909286.376 9  -7710429.06747  20254833.341    20254835.9594
  22705987.043   -10645693.132 8  -8259329.97646  22705986.772    22705990.1604
  23530116.490     -387484.866 7   -290385.88945  23530115.530    23530119.7124
  22461260.085    -4783796.918 8  -3708386.51646  22461259.843    22461262.7854
 01  7 17 17 37 30.0000000  0  9 23 18 17 06 21 15 03 22 26
  20760213.578    -5792182.768 9  -4502409.37347  20760212.964    20760215.4184
  20258958.499   -15339575.868 8 -11934422.63747  20258957.955    20258959.2824
  20561092.729    -3567373.568 8  -2771856.11547  20561092.042    20561094.7284
  22827587.810    11639478.514 8   9069506.67346  22827587.439    22827591.4934
  22307768.259    -9552739.591 8  -7425814.04945  22307767.464    22307771.7744
  20253498.152    -9916306.961 9  -7715899.65247  20253497.366    20253499.9814
  22690164.294   -10728844.817 8  -8324123.42246  22690163.608    22690166.7294
  23541206.427     -329205.074 7   -244973.17245  23541205.663    23541210.0504
  22470934.683    -4732956.825 8  -3668770.90346  22470934.516    22470937.3744
 01  7 17 17 38  0.0000000  0  9 23 18 17 06 21 15 03 22 26
  20765831.615    -5762659.827 8  -4479404.49647  20765830.994    20765833.4944
  20256649.176   -15351711.630 8 -11943879.07147  20256648.624    20256649.9254
  20564933.520    -3547189.859 8  -2756128.56947  20564932.843    20564935.5244
  22846636.770    11739579.817 7   9147507.54845  22846636.253    22846640.2214
  22295047.244    -9619589.749 8  -7477905.04145  22295046.510    22295050.3024
  20252219.516    -9923026.184 9  -7721135.41747  20252218.741    20252221.3594
  22674400.931   -10811679.170 8  -8388669.65446  22674400.648    22674403.7944
  23552363.364     -270573.264 8   -199286.08845  23552362.718    23552367.4674
  22480719.009    -4681539.643 8  -3628705.57546  22480718.952    22480721.8964
 01  7 17 17 38 30.0000000  0  9 23 18 17 06 21 15 03 22 26
  20771517.674    -5732779.499 9  -4456121.13447  20771517.048    20771519.5754
  20254428.965   -15363379.048 8 -11952970.56547  20254428.411    20254429.7194
  20568826.622    -3526732.200 8  -2740187.55447  20568825.858    20568828.5234
  22865733.482    11839933.106 8   9225704.78345  22865732.992    22865737.0174
  22282378.862    -9686162.599 8  -7529779.94445  22282378.111    22282382.0024
  20250998.191    -9929444.341 9  -7726136.57947  20250997.396    20250999.9934
  22658699.030   -10894194.668 8  -8452967.40646  22658698.550    22658701.5384
  23563587.285     -211592.324 8   -153326.96545  23563586.479    23563591.4944
  22490613.211    -4629547.889 8  -3588192.56246  22490612.913    22490615.7394
 01  7 17 17 39  0.0000000  0  9 23 18 17 06 21 15 03 22 26
  20777271.526    -5702542.896 8  -4432560.16247  20777270.885    20777273.4284
  20252297.781   -15374578.241 8 -11961697.20347  20252297.246    20252298.5004
  20572771.811    -3505999.859 8  -2724032.49247  20572771.097    20572773.7764
  22884877.936    11940536.909 7   9304097.23545  22884877.399    22884881.3484
  22269763.306    -9752456.845 8  -7581437.78045  22269762.684    22269766.4664
  20249834.284    -9935560.471 8  -7730902.39547  20249833.522    20249836.1434
  22643057.948   -10976388.578 8  -8517014.56546  22643057.458    22643060.4434
  23574877.164     -152263.986 7   -107097.17845  23574876.283    23574881.4594
  22500615.826    -4576982.820 8  -3547232.78646  22500615.698    22500618.6264
 01  7 17 17 39 30.0000000  0  9 23 18 17 06 21 15 03 22 26
  20783092.948    -5671951.036 9  -4408722.35847  20783092.345    20783094.8754
  20250255.764   -15385309.248 8 -11970059.02147  20250255.250    20250256.5144
  20576769.507    -3484991.865 8  -2707662.63647  20576768.809    20576771.5004
  22904069.530    12041389.610 8   9382683.60445  22904069.142    22904073.1514
  22257201.247    -9818471.379 8  -7632877.62545  22257200.591    22257204.3114
  20248728.152    -9941373.668 9  -7735432.15647  20248727.318    20248729.9034
  22627478.650   -11058257.615 8  -8580808.59546  22627478.252    22627481.1864
  23586232.464      -92590.946 7    -60598.82845  23586231.322    23586236.7394
  22510727.256    -4523845.572 8  -3505827.15046  22510727.278    22510730.4224
 01  7 17 17 40  0.0000000  0  9 23 18 17 06 21 15 03 22 26
  20788981.661    -5641005.880 9  -4384609.26447  20788981.018    20788983.5454
  20248302.695   -15395572.854 8 -11978056.63847  20248302.112    20248303.3754
  20580819.645    -3463708.336 8  -2691078.08147  20580818.946    20580821.6294
  22923307.903    12142488.957 8   9461462.17645  22923307.614    22923311.9624
  22244692.239    -9884205.958 8  -7684099.30946  22244691.621    22244695.4004
  20247679.605    -9946883.763 9  -7739725.73847  20247678.803    20247681.3804
  22611961.805   -11139799.673 8  -8644347.82246  22611961.176    22611964.4114
  23597652.868      -32576.720 7    -13834.58245  23597651.825    23597656.8074
  22520947.286    -4470138.645 8  -3463977.62646  22520947.253    22520950.4394
 01  7 17 17 40 30.0000000  0  9 23 18 17 06 21 15 03 22 26
  20794937.277    -5609709.210 9  -4360222.25447  20794936.615    20794939.1644
  20246438.292   -15405370.067 8 -11985690.82147  20246437.723    20246438.9964
  20584922.182    -3442149.150 8  -2674278.72347  20584921.496    20584924.2764
  22942592.783    12243832.665 8   9540431.14645  22942592.623    22942597.2254
  22232236.544    -9949660.541 8  -7735102.84246  22232236.013    22232240.0294
  20246688.811    -9952090.596 9  -7743783.00347  20246687.990    20246690.5724
  22596507.403   -11221012.364 8  -8707630.38946  22596506.834    22596510.1114
  23609138.114       27776.397 8     33193.82145  23609136.893    23609141.5004
  22531275.417    -4415864.050 8  -3421685.74346  22531275.342    22531278.5664
 01  7 17 17 41  0.0000000  0  9 23 18 17 06 21 15 03 22 26
  20800959.261    -5578063.474 9  -4335563.25547  20800958.586    20800961.1844
  20244662.431   -15414702.356 8 -11992962.73747  20244661.862    20244663.1144
  20589077.082    -3420315.115 8  -2657265.20847  20589076.409    20589079.1824
  22961924.017    12345417.822 8   9619588.26545  22961923.800    22961928.3514
  22219834.281   -10014835.552 8  -7785888.54946  22219833.610    22219837.4684
  20245755.565    -9956994.754 8  -7747604.44247  20245754.776    20245757.3224
  22581115.900   -11301894.255 8  -8770655.20546  22581115.409    22581118.6394
  23620686.999       88464.957 7     80483.56945  23620685.839    23620690.3524
  22541711.024    -4361024.560 8  -3378953.70146  22541710.958    22541714.1264
 01  7 17 17 41 30.0000000  0  9 23 18 17 06 21 15 03 22 26
  20807047.446    -5546069.551 8  -4310632.92447  20807046.811    20807049.3994
  20242975.048   -15423569.538 8 -11999872.22947  20242974.490    20242975.7654
  20593284.436    -3398205.109 8  -2640036.63647  20593283.776    20593286.6054
  22981300.878    12447243.103 8   9698932.48445  22981300.586    22981305.2774
  22207485.202   -10079729.927 8  -7836455.54746  22207484.589    22207488.4054
  20244880.122    -9961594.868 8  -7751188.94647  20244879.332    20244882.0244
  22565787.982   -11382442.322 8  -8833419.88946  22565787.451    22565790.7974
  23632298.990      149487.172 7    128033.20945  23632297.741    23632302.9774
  22552254.082    -4305621.373 8  -3335782.41146  22552253.939    22552256.9964
 01  7 17 17 42  0.0000000  0  9 23 18 17 06 21 15 03 22 26
  20813201.778    -5513728.825 8  -4285432.35947  20813201.101    20813203.6094
  20241376.134   -15431972.037 8 -12006419.62547  20241375.577    20241376.8234
  20597544.439    -3375818.609 8  -2622592.63047  20597543.777    20597546.5864
  23000723.087    12549306.492 7   9778462.22945  23000722.781    23000727.3704
  22195189.702   -10144342.927 8  -7886803.30046  22195189.100    22195192.7714
  20244062.742    -9965890.428 9  -7754536.14547  20244061.957    20244064.6014
  22550524.201   -11462653.767 8  -8895922.26546  22550523.847    22550527.0174
  23643973.914      210839.783 8    175840.35645  23643972.898    23643978.0774
  22562904.048    -4249656.327 8  -3292173.31246  22562903.896    22562906.8894
 01  7 17 17 42 30.0000000  0  9 23 18 17 06 21 15 03 22 26
  20819421.624    -5481043.120 8  -4259962.98747  20819420.955    20819423.4774
  20239865.433   -15439910.700 8 -12012605.59847  20239864.883    20239866.1314
  20601857.104    -3353155.627 8  -2604933.18647  20601856.471    20601859.2384
  23020190.033    12651605.548 8   9858175.60645  23020189.744    23020194.4514
  22182947.796   -10208674.303 8  -7936931.62246  22182947.265    22182951.0154
  20243303.307    -9969881.170 9  -7757645.81047  20243302.493    20243305.1814
  22535325.034   -11542525.995 8  -8958160.33946  22535324.619    22535327.7914
  23655711.806      272519.905 7    223902.75645  23655710.562    23655715.0834
  22573660.073    -4193131.691 8  -3248128.15346  22573660.110    22573663.1094
 01  7 17 17 43  0.0000000  0  9 23 18 17 06 21 15 03 22 26
  20825706.907    -5448013.711 9  -4234225.80047  20825706.243    20825708.7944
  20238442.924   -15447385.968 8 -12018430.48147  20238442.388    20238443.6904
  20606222.430    -3330215.519 8  -2587057.78047  20606221.780    20606224.5854
  23039701.618    12754138.742 8   9938071.46445  23039701.246    23039705.8174
  22170759.760   -10272722.850 8  -7986839.52346  22170759.153    22170762.9024
  20242602.066    -9973566.544 9  -7760517.52747  20242601.259    20242603.8554
  22520190.686   -11622056.523 8  -9020132.13746  22520190.276    22520193.6124
  23667511.151      334525.735 7    272218.93345  23667509.934    23667514.4714
  22584522.442    -4136048.919 8  -3203648.11745  22584522.451    22584525.4514
 01  7 17 17 43 30.0000000  0  9 23 18 17 06 21 15 03 22 26
  20832057.225    -5414642.780 9  -4208222.48747  20832056.537    20832059.1004
  20237108.364   -15454399.101 8 -12023895.25747  20237107.832    20237109.1024
  20610640.423    -3306998.627 8  -2568966.69747  20610639.821    20610642.6564
  23059257.757    12856903.454 8  10018147.67045  23059257.077    23059261.3094
  22158625.233   -10336489.121 8  -8036527.50346  22158624.753    22158628.5224
  20241958.860    -9976946.891 9  -7763151.56247  20241958.034    20241960.5774
  22505121.995   -11701243.400 8  -9081836.15646  22505121.519    22505124.8184
  23679371.486      396853.984 7    320786.30245  23679370.503    23679375.3284
  22595490.986    -4078410.696 8  -3158735.27245  22595490.597    22595493.5814
 01  7 17 17 44  0.0000000  0  9 23 18 17 06 21 15 03 22 26
  20838472.011    -5380932.666 9  -4181954.87447  20838471.336    20838473.9364
  20235861.465   -15460951.399 8 -12029000.93947  20235860.955    20235862.2264
  20615111.159    -3283505.255 8  -2550660.19547  20615110.486    20615113.3044
  23078856.788    12959896.921 7  10098402.18145  23078856.240    23078860.4284
  22146544.656   -10399972.933 8  -8085995.36846  22146544.077    22146547.8144
  20241373.669    -9980022.196 9  -7765547.90347  20241372.839    20241375.3914
  22490118.864   -11780084.686 8  -9143270.90146  22490118.445    22490121.7384
  23691292.884      459501.066 8    369602.12445  23691291.919    23691296.9354
  22606564.234    -4020219.587 8  -3113391.53046  22606563.921    22606567.0264
 01  7 17 17 44 30.0000000  0  9 23 18 17 06 21 15 03 22 26
  20844951.287    -5346883.767 9  -4155423.27547  20844950.621    20844953.1724
  20234702.417   -15467042.391 8 -12033747.16647  20234701.907    20234703.2174
  20619634.637    -3259733.919 8  -2532137.09547  20619633.994    20619636.8094
  23098499.271    13063118.270 7  10178834.21645  23098498.782    23098502.9904
  22134518.120   -10463172.991 8  -8135242.13546  22134517.502    22134521.3274
  20240846.766    -9982790.834 9  -7767705.29647  20240845.974    20240848.5314
  22475182.330   -11858576.882 8  -9204433.59846  22475181.786    22475185.0654
  23703274.760      522464.825 8    418664.71945  23703273.804    23703278.8194
  22617742.661    -3961476.576 8  -3067617.81146  22617742.452    22617745.3874
 01  7 17 17 45  0.0000000  0  9 23 18 17 06 21 15 03 22 26
  20851494.742    -5312497.637 9  -4128628.90147  20851494.121    20851496.6614
  20233631.017   -15472672.738 8 -12038134.44347  20233630.459    20233631.7214
  20624211.227    -3235684.305 8  -2513397.16147  20624210.526    20624213.2824
  23118184.656    13166565.340 7  10259442.18345  23118184.104    23118188.3864
  22122545.317   -10526089.221 8  -8184267.72046  22122544.821    22122548.7604
  20240378.376    -9985252.267 9  -7769623.30547  20240377.548    20240380.1434
  22460312.563   -11936717.466 8  -9265322.33846  22460312.090    22460315.3924
  23715316.830      585743.095 7    467972.36645  23715315.698    23715320.4534
  22629025.920    -3902183.673 8  -3021415.56846  22629025.611    22629028.4964
 01  7 17 17 45 30.0000000  0  9 23 18 17 06 21 15 03 22 26
  20858101.901    -5277776.948 9  -4101573.83247  20858101.277    20858103.8344
  20232646.921   -15477844.212 8 -12042164.15947  20232646.350    20232647.6464
  20628840.436    -3211357.193 8  -2494440.98247  20628839.801    20628842.5664
  23137912.047    13270234.958 7  10340223.52845  23137911.666    23137916.4264
  22110626.704   -10588722.346 8  -8233072.69346  22110626.172    22110630.0324
  20239968.217    -9987407.438 9  -7771302.66847  20239967.382    20239969.9954
  22445510.124   -12014505.273 8  -9325936.16646  22445509.637    22445512.7584
  23727417.441      649332.272 7    517522.29145  23727416.521    23727420.9184
  22640412.949    -3842343.978 8  -2974787.24446  22640412.808    22640415.6744
 01  7 17 17 46  0.0000000  0  9 23 18 17 06 21 15 03 22 26
  20864772.660    -5242721.762 9  -4074258.11347  20864772.009    20864774.6404
  20231750.203   -15482555.933 8 -12045835.63547  20231749.701    20231751.0214
  20633522.980    -3186750.751 8  -2475267.13847  20633522.300    20633525.0474
  23157682.229    13374126.589 8  10421177.84845  23157681.840    23157686.6194
  22098762.318   -10651069.603 8  -8281654.95346  22098761.845    22098765.6214
  20239616.728    -9989254.266 9  -7772741.75947  20239615.896    20239618.5234
  22430775.462   -12091935.919 8  -9386271.69746  22430775.038    22430778.1484
  23739577.023      713231.230 7    567313.63945  23739576.074    23739580.2444
  22651903.769    -3781958.079 8  -2927733.34246  22651903.773    22651906.7384
 01  7 17 17 46 30.0000000  0  9 23 18 17 06 21 15 03 22 26
  20871506.520    -5207334.703 9  -4046683.79647  20871505.917    20871508.5574
  20230940.731   -15486809.782 8 -12049150.31047  20230940.221    20230941.5224
  20638258.448    -3161865.809 8  -2455876.29147  20638257.771    20638260.5094
  23177493.994    13478236.976 8  10502302.65045  23177493.664    23177498.4404
  22086952.265   -10713131.826 8  -8330015.09946  22086951.782    22086955.6854
  20239323.933    -9990793.257 9  -7773940.97447  20239323.068    20239325.6774
  22416108.982   -12169008.027 8  -9446327.83846  22416108.751    22416111.7034
  23751793.846      777435.690 7    617343.03745  23751793.217    23751797.9374
  22663498.636    -3721029.023 8  -2880256.18346  22663498.227    22663501.2814
 01  7 17 17 47  0.0000000  0  9 23 18 17 06 21 15 03 22 26
  20878303.323    -5171617.701 9  -4018852.37247  20878302.702    20878305.3024
  20230218.209   -15490606.731 8 -12052108.97447  20230217.672    20230219.0154
  20643047.007    -3136702.206 8  -2436268.31447  20643046.286    20643049.0264
  23197346.841    13582563.852 8  10583596.15545  23197346.441    23197351.3414
  22075196.616   -10774908.875 8  -8378153.01246  22075196.020    22075199.8174
  20239089.646    -9992024.220 9  -7774900.16547  20239088.830    20239091.4494
  22401511.336   -12245719.607 8  -9506103.06746  22401510.926    22401514.1454
  23764069.331      841942.382 7    667607.84245  23764068.307    23764073.3964
  22675195.921    -3659559.354 8  -2832357.78846  22675195.678    22675198.5384
 01  7 17 17 47 30.0000000  0  9 23 18 17 06 21 15 03 22 26
  20885162.524    -5135572.504 9  -3990765.22247  20885161.863    20885164.4844
  20229582.466   -15493947.702 8 -12054712.32847  20229581.912    20229583.2014
  20647888.432    -3111259.870 8  -2416443.12547  20647887.755    20647890.5424
  23217240.409    13687105.013 7  10665056.60745  23217240.090    23217244.9344
  22063495.006   -10836400.857 8  -8426068.81346  22063494.411    22063498.2434
  20238914.169    -9992946.961 9  -7775619.18147  20238913.292    20238915.9044
  22386982.616   -12322068.036 8  -9565595.30046  22386982.305    22386985.3834
  23776401.585      906748.883 7    718106.35045  23776400.769    23776405.8214
  22686995.672    -3597551.294 8  -2784039.82546  22686995.430    22686998.2554
 01  7 17 17 48  0.0000000  0  9 23 18 17 06 21 15 03 22 26
  20892084.136    -5099199.373 9  -3962422.54247  20892083.492    20892086.0844
  20229033.659   -15496832.048 8 -12056959.86747  20229033.082    20229034.3694
  20652783.349    -3085536.987 9  -2396399.34147  20652782.686    20652785.4714
  23237174.685    13791859.767 7  10746683.49545  23237174.418    23237179.3814
  22051847.923   -10897606.249 8  -8473761.29546  22051847.434    22051851.1804
  20238797.543    -9993559.349 9  -7776096.37047  20238796.742    20238799.3944
  22372523.921   -12398049.530 8  -9624801.61146  22372523.475    22372526.6434
  23788790.879      971854.123 7    768837.63245  23788790.153    23788794.8854
  22698897.944    -3535005.478 8  -2735302.85046  22698897.570    22698900.3724
 01  7 17 17 48 30.0000000  0  9 23 18 17 06 21 15 03 22 26
  20899067.341    -5062502.566 9  -3933827.62947  20899066.667    20899069.2084
  20228570.943   -15499263.428 8 -12058854.45347  20228570.402    20228571.6924
  20657731.236    -3059535.973 8  -2376138.82547  20657730.521    20657733.3294
  23257148.475    13896823.107 8  10828472.93645  23257148.260    23257153.1564
  22040255.149   -10958526.876 8  -8521231.88047  22040254.620    22040258.4224
  20238739.660    -9993863.924 9  -7776333.69747  20238738.833    20238741.4404
  22358134.592   -12473664.398 8  -9683722.26946  22358134.325    22358137.5004
  23801235.685     1037252.456 7    819797.26745  23801234.848    23801239.6324
  22710901.462    -3471926.823 8  -2686150.68346  22710901.081    22710903.7854
 01  7 17 17 49  0.0000000  0  9 23 18 17 06 21 15 03 22 26
  20906112.273    -5025481.363 9  -3904979.94747  20906111.570    20906114.1134
  20228194.776   -15501240.179 8 -12060394.77047  20228194.203    20228195.5204
  20662732.462    -3033254.230 8  -2355659.55547  20662731.779    20662734.6434
  23277162.400    14001995.263 7  10910425.07245  23277162.056    23277166.9494
  22028716.827   -11019160.751 8  -8568479.01747  22028716.357    22028720.1214
  20238740.781    -9993857.861 9  -7776328.97147  20238739.972    20238742.5964
  22343816.464   -12548908.072 8  -9742353.66246  22343815.868    22343819.1384
  23813736.269     1102942.746 8    870984.41245  23813735.453    23813740.1214
  22723006.145    -3408315.308 8  -2636583.30146  22723006.001    22723008.6704
 01  7 17 17 49 30.0000000  0  9 23 18 17 06 21 15 03 22 26
  20913218.356    -4988138.236 9  -3875881.42047  20913217.671    20913220.2914
  20227904.814   -15502763.786 8 -12061582.00047  20227904.263    20227905.6044
  20667786.953    -3006692.536 8  -2334962.13347  20667786.279    20667789.1214
  23297215.135    14107373.175 7  10992537.56245  23297214.854    23297219.8184
  22017233.335   -11079507.474 9  -8615502.39547  22017232.827    22017236.4764
  20238800.992    -9993541.771 9  -7776082.66247  20238800.100    20238802.7064
  22329569.056   -12623778.790 8  -9800694.43846  22329568.552    22329571.7364
  23826292.118     1168921.578 8    922396.43945  23826291.311    23826295.5484
  22735211.630    -3344174.089 8  -2586603.15246  22735211.611    22735214.4334
 01  7 17 17 50  0.0000000  0  9 23 18 17 06 21 15 03 22 26
  20920385.313    -4950475.238 9  -3846533.63847  20920384.709    20920387.3414
  20227700.831   -15503835.522 8 -12062417.11447  20227700.314    20227701.6014
  20672894.847    -2979850.555 8  -2314046.31447  20672894.153    20672897.0064
  23317306.733    14212954.644 7  11074808.63245  23317306.455    23317311.3494
  22005804.318   -11139567.482 8  -8662302.35647  22005803.689    22005807.3674
  20238920.097    -9992915.179 9  -7775594.41647  20238919.308    20238921.9454
  22315392.926   -12698274.522 8  -9858743.02346  22315392.346    22315395.6154
  23838902.276     1235186.383 7    974031.28945  23838901.382    23838905.7414
  22747517.764    -3279505.522 8  -2536212.09546  22747517.631    22747520.5774
 01  7 17 17 50 30.0000000  0  9 23 18 17 06 21 15 03 22 26
  20927613.245    -4912492.949 9  -3816937.06247  20927612.565    20927615.1574
  20227582.871   -15504455.526 8 -12062900.23947  20227582.336    20227583.6004
  20678056.238    -2952727.272 8  -2292911.30547  20678055.550    20678058.4194
  23337436.472    14318738.308 7  11157237.29845  23337436.310    23337441.4754
  21994429.989   -11199339.477 9  -8708877.91147  21994429.423    21994433.0954
  20239098.722    -9991976.817 9  -7774863.22847  20239097.844    20239100.5394
  22301288.837   -12772391.870 8  -9916496.75846  22301288.340    22301291.5234
  23851565.886     1301735.445 7   1025887.55745  23851565.066    23851569.8864
  22759924.182    -3214310.952 8  -2485411.17746  22759923.853    22759926.7584
 01  7 17 17 51  0.0000000  0  9 23 18 17 06 21 15 03 22 26
  20934901.296    -4874193.764 9  -3787093.54947  20934900.640    20934903.2584
  20227550.533   -15504625.317 8 -12063032.53747  20227550.009    20227551.3014
  20683271.111    -2925323.101 8  -2271557.42247  20683270.400    20683273.2644
  23357604.438    14424721.281 8  11239821.23745  23357604.347    23357609.7444
  21983110.447   -11258824.336 9  -8755229.70447  21983109.840    21983113.4504
  20239336.480    -9990727.090 9  -7773889.42347  20239335.669    20239338.3724
  22287256.927   -12846128.911 8  -9973954.15946  22287256.563    22287259.8884
  23864282.798     1368564.500 7   1077962.00145  23864282.041    23864287.1604
  22772429.610    -3148593.399 8  -2434202.71346  22772429.465    22772432.3444
 01  7 17 17 51 30.0000000  0  9 23 18 17 06 21 15 03 22 26
  20942249.398    -4835579.183 9  -3757004.26947  20942248.793    20942251.3994
  20227603.802   -15504345.476 8 -12062814.48147  20227603.282    20227604.5634
  20688539.516    -2897637.479 8  -2249984.21347  20688538.843    20688541.6844
  23377809.979    14530901.716 8  11322558.99545  23377809.937    23377815.6084
  21971845.533   -11318021.335 8  -8801357.20247  21971844.988    21971848.6364
  20239633.636    -9989165.426 9  -7772672.54247  20239632.814    20239635.5484
  22273298.010   -12919483.114 8 -10031113.25146  22273297.647    22273301.0314
  23877052.986     1435670.795 8   1130252.55845  23877052.200    23877057.1894
  22785034.513    -3082354.914 8  -2382588.33646  22785034.279    22785037.1584
 01  7 17 17 52  0.0000000  0  9 23 18 17 06 21 15 03 22 26
  20949657.126    -4796651.770 9  -3726671.23247  20949656.465    20949659.0774
  20227742.254   -15503617.759 8 -12062247.43447  20227741.716    20227743.0384
  20693861.356    -2869671.004 8  -2228192.16947  20693860.669    20693863.5434
  23398052.751    14637276.377 7  11405448.16945  23398052.525    23398058.4404
  21960635.217   -11376931.161 8  -8847260.91747  21960634.739    21960638.3914
  20239990.124    -9987292.184 9  -7771212.88847  20239989.327    20239992.0114
  22259412.351   -12992452.987 8 -10087972.85346  22259411.990    22259415.1894
  23889875.244     1503051.077 7   1182756.62045  23889874.495    23889879.3904
  22797737.850    -3015598.884 8  -2330570.67446  22797737.555    22797740.5174
 01  7 17 17 52 30.0000000  0  9 23 18 17 06 21 15 03 22 26
  20957124.197    -4757411.815 9  -3696094.65047  20957123.555    20957126.1974
  20227966.012   -15502441.994 8 -12061331.25447  20227965.461    20227966.7834
  20699236.844    -2841422.300 8  -2206180.20647  20699236.217    20699239.0614
  23418332.118    14743844.192 7  11488487.80345  23418331.996    23418337.7144
  21949480.130   -11435551.616 8  -8892939.14547  21949479.602    21949483.3104
  20240406.217    -9985105.948 9  -7769509.32747  20240405.349    20240408.0604
  22245600.367   -13065035.031 8 -10144530.27246  22245599.992    22245603.3314
  23902749.007     1570704.048 7   1235473.13145  23902748.013    23902753.6344
  22810539.493    -2948326.334 8  -2278150.52746  22810539.023    22810542.2144
 01  7 17 17 53  0.0000000  0  9 23 18 17 06 21 15 03 22 26
  20964650.249    -4717862.034 9  -3665276.65847  20964649.615    20964652.2834
  20228274.685   -15500819.886 8 -12060067.27547  20228274.147    20228275.4614
  20704665.876    -2812892.115 8  -2183948.91247  20704665.298    20704668.1984
  23438647.884    14850602.016 7  11571675.48645  23438647.611    23438653.2804
  21938379.801   -11493884.021 8  -8938392.92447  21938379.276    21938382.9654
  20240881.737    -9982607.227 9  -7767562.27547  20240880.890    20240883.5304
  22231862.354   -13137227.834 8 -10200784.35046  22231862.063    22231865.2134
  23915674.045     1638625.492 7   1288398.84045  23915673.104    23915678.6464
  22823438.599    -2880540.498 8  -2225330.40645  22823438.223    22823441.4144
 01  7 17 17 53 30.0000000  0  9 23 18 17 06 21 15 03 22 26
  20972235.000    -4678003.991 9  -3634218.45947  20972234.374    20972237.0354
  20228668.208   -15498752.075 8 -12058455.99647  20228667.655    20228668.9664
  20710148.849    -2784079.710 8  -2161497.70347  20710148.143    20710151.0524
  23458999.307    14957548.037 7  11655009.81145  23458998.892    23459004.3904
  21927334.529   -11551927.408 8  -8983621.49347  21927334.002    21927337.6614
  20241416.797    -9979795.315 9  -7765371.17547  20241415.950    20241418.6344
  22218199.096   -13209028.831 8 -10256733.14646  22218198.811    22218202.0734
  23928649.562     1706812.243 8   1341531.28945  23928648.691    23928654.3604
  22836435.160    -2812243.494 8  -2172112.02445  22836434.814    22836437.8654
 01  7 17 17 54  0.0000000  0  9 23 18 17 06 21 15 03 22 26
  20979878.152    -4637838.933 9  -3602921.02547  20979877.523    20979880.2264
  20229146.386   -15496239.310 8 -12056497.99447  20229145.824    20229147.1114
  20715685.289    -2754984.672 8  -2138826.25447  20715684.740    20715687.6424
  23479385.998    15064680.420 7  11738489.40345  23479385.720    23479391.1744
  21916344.389   -11609680.915 8  -9028624.17847  21916343.811    21916347.4394
  20242011.649    -9976669.297 9  -7762935.33147  20242010.827    20242013.4814
  22204611.140   -13280435.333 8 -10312374.54046  22204610.638    22204613.7744
  23941675.422     1775262.286 7   1394868.89045  23941674.603    23941680.1474
  22849528.327    -2743437.354 8  -2118496.86845  22849528.071    22849531.3224
 01  7 17 17 54 30.0000000  0  9 23 18 17 06 21 15 03 22 26
  20987579.393    -4597368.350 8  -3571385.52147  20987578.801    20987581.5144
  20229709.063   -15493282.435 8 -12054193.94247  20229708.494    20229709.8014
  20721275.880    -2725606.463 8  -2115934.16347  20721275.270    20721278.1234
  23499807.637    15171997.050 7  11822112.55245  23499807.441    23499813.0194
  21905409.368   -11667144.925 8  -9073401.28647  21905408.791    21905412.3934
  20242666.360    -9973228.730 8  -7760254.36847  20242665.534    20242668.2124
  22191098.398   -13351444.812 8 -10367706.57946  22191097.972    22191101.1724
  23954750.735     1843973.258 7   1448409.80945  23954749.873    23954755.3264
  22862718.394    -2674124.413 7  -2064486.81045  22862717.910    22862721.0994
 01  7 17 17 55  0.0000000  0  9 23 18 17 06 21 15 03 22 26
  20995338.355    -4556595.117 9  -3539614.17647  20995337.750    20995340.3954
  20230355.837   -15489883.543 8 -12051545.45147  20230355.287    20230356.5774
  20726920.130    -2695945.896 8  -2092822.04847  20726919.492    20726922.3414
  23520263.731    15279494.782 7  11905876.79745  23520263.660    23520269.3194
  21894529.225   -11724320.515 8  -9117953.65647  21894528.683    21894532.1854
  20243380.919    -9969474.255 9  -7757328.81147  20243380.049    20243382.6764
  22177661.602   -13422055.890 8 -10422728.17646  22177661.214    22177664.3464
  23967875.157     1912941.170 7   1502150.91245  23967874.095    23967879.4834
  22876003.731    -2604308.149 8  -2010084.55546  22876003.512    22876006.8684
 01  7 17 17 55 30.0000000  0  9 23 18 17 06 21 15 03 22 26
  21003154.925    -4515519.054 8  -3507606.86647  21003154.279    21003156.9404
  20231086.901   -15486041.624 8 -12048551.74847  20231086.371    20231087.6704
  20732618.456    -2666001.035 8  -2069488.41447  20732617.807    20732620.6664
  23540754.318    15387173.078 7  11989781.75245  23540754.184    23540760.2924
  21883704.377   -11781205.159 8  -9162279.32547  21883703.837    21883707.3004
  20244155.454    -9965403.727 9  -7754156.97147  20244154.603    20244157.2674
  22164301.382   -13492264.471 8 -10477436.12946  22164301.063    22164304.0514
  23981048.222     1982164.401 8   1556091.02045  23981047.206    23981052.2894
  22889385.030    -2533989.322 8  -1955290.69546  22889385.008    22889388.1304
 01  7 17 17 56  0.0000000  0  9 23 18 17 06 21 15 03 22 26
  21011028.416    -4474143.490 8  -3475366.17147  21011027.788    21011030.4304
  20231901.802   -15481759.390 8 -12045214.93847  20231901.266    20231902.5734
  20738370.593    -2635773.320 8  -2045934.36347  20738369.915    20738372.8544
  23561278.896    15495028.121 7  12073824.39545  23561278.606    23561284.3314
  21872934.566   -11837800.811 8  -9206379.80347  21872934.013    21872937.5254
  20244990.006    -9961018.508 8  -7750739.92247  20244989.146    20244991.7394
  22151017.959   -13562069.893 8 -10531829.92446  22151017.410    22151020.5254
  23994268.993     2051638.127 7   1610226.33545  23994267.863    23994272.8124
  22902861.543    -2463171.931 8  -1900108.34846  22902861.259    22902864.2614
 01  7 17 17 56 30.0000000  0  9 23 18 17 06 21 15 03 22 26
  21018958.604    -4432470.192 9  -3442893.48247  21018957.968    21018960.5824
  20232800.167   -15477038.446 8 -12041536.28447  20232799.614    20232800.9514
  20744176.558    -2605262.740 8  -2022159.88547  20744175.856    20744178.8264
  23581836.512    15603057.360 7  12158002.79245  23581836.223    23581841.9264
  21862219.890   -11894106.839 8  -9250254.59847  21862219.330    21862222.7724
  20245884.322    -9956318.515 9  -7747077.58547  20245883.487    20245886.1014
  22137811.468   -13631470.075 8 -10585907.94246  22137811.033    22137813.9734
  24007536.461     2121359.712 7   1664554.78545  24007535.499    24007540.4674
  22916431.821    -2391858.706 8  -1844539.60646  22916431.665    22916434.6204
 01  7 17 17 57  0.0000000  0  9 23 18 17 06 21 15 03 22 26
  21026945.457    -4390499.178 9  -3410188.80547  21026944.809    21026947.4404
  20233782.196   -15471877.895 8 -12037515.07247  20233781.604    20233782.9724
  20750036.757    -2574467.211 8  -1998163.40447  20750036.139    20750039.0154
  23602426.639    15711260.322 7  12242316.54745  23602426.520    23602432.5654
  21851560.563   -11950121.797 8  -9293902.56847  21851559.980    21851563.4844
  20246839.104    -9951301.317 9  -7743168.08947  20246838.276    20246840.8274
  22124682.803   -13700460.910 8 -10639667.01146  22124682.381    22124685.4174
  24020850.730     2191328.379 7   1719075.72445  24020849.853    24020855.3784
  22930096.561    -2320050.303 8  -1788585.07345  22930096.544    22930099.2694
 01  7 17 17 57 30.0000000  0  9 23 18 17 06 21 15 03 22 26
  21034988.519    -4348232.469 9  -3377253.71547  21034987.891    21034990.5374
  20234847.630   -15466278.843 8 -12033152.18047  20234847.107    20234848.4534
  20755951.273    -2543386.803 8  -1973944.92547  20755950.594    20755953.4334
  23623049.956    15819634.458 7  12326763.64745  23623049.693    23623055.7914
  21840956.595   -12005845.723 8  -9337323.76447  21840955.981    21840959.5174
  20247854.125    -9945967.131 9  -7739011.57547  20247853.303    20247855.9264
  22111632.679   -13769040.621 8 -10693105.70146  22111632.116    22111635.1614
  24034211.788     2261540.693 7   1773786.44945  24034210.751    24034216.3614
  22943854.918    -2247749.689 8  -1732246.97445  22943854.800    22943857.6484
 01  7 17 17 58  0.0000000  0  9 23 18 17 06 21 15 03 22 26
  21043087.252    -4305673.538 9  -3344090.93047  21043086.614    21043089.2494
  20235996.038   -15460244.041 8 -12028449.72947  20235995.492    20235996.8114
  20761919.497    -2512023.007 8  -1949505.59647  20761918.863    20761921.8374
  23643705.267    15928175.684 7  12411341.00445  23643704.703    23643710.2974
  21830407.664   -12061280.464 8  -9380519.66147  21830407.124    21830410.6364
  20248929.328    -9940316.989 9  -7734608.87547  20248928.538    20248931.1174
  22098660.679   -13837208.441 8 -10746223.46546  22098660.296    22098663.3724
  24047618.432     2331991.421 7   1828683.04345  24047617.360    24047622.5274
  22957706.329    -2174961.032 8  -1675528.57345  22957706.071    22957708.9014
 01  7 17 17 58 30.0000000  0  9 23 18 17 06 21 15 03 22 26
  21051241.477    -4262822.776 9  -3310700.73847  21051240.849    21051243.4294
  20237227.349   -15453773.575 8 -12023407.80947  20237226.780    20237228.1334
  20767942.076    -2480374.416 8  -1924844.36347  20767941.443    20767944.4004
  23664391.516    16036883.252 7  12496047.93245  23664391.043    23664397.1094
  21819914.246   -12116423.775 8  -9423488.42047  21819913.598    21819917.1584
  20250064.902    -9934349.420 9  -7729958.81747  20250064.083    20250066.7094
  22085767.924   -13904960.716 8 -10799017.41946  22085767.371    22085770.4034
  24061069.875     2402679.058 7   1883764.25445  24061068.708    24061073.9854
  22971650.053    -2101685.551 8  -1618430.82445  22971649.908    22971652.7854
 01  7 17 17 59  0.0000000  0  9 23 18 17 06 21 15 03 22 26
  21059451.035    -4219681.404 8  -3277084.10047  21059450.406    21059453.0434
  20238541.442   -15446868.016 8 -12018026.86047  20238540.880    20238542.2454
  20774019.029    -2448440.336 8  -1899960.70647  20774018.366    20774021.2524
  23685109.434    16145755.086 7  12580882.87445  23685108.850    23685114.6654
  21809476.345   -12171274.906 8  -9466229.53647  21809475.734    21809479.2834
  20251261.067    -9928063.607 9  -7725060.78947  20251260.274    20251262.8684
  22072954.628   -13972295.146 8 -10851485.77246  22072954.132    22072957.1904
  24074566.199     2473601.563 7   1939028.46145  24074564.996    24074570.2234
  22985685.974    -2027925.539 8  -1560955.54545  22985685.991    22985688.7594
 01  7 17 17 59 30.0000000  0  9 23 18 17 06 21 15 03 22 26
  21067715.494    -4176251.459 9  -3243242.60147  21067714.855    21067717.4484
  20239938.053   -15439528.623 8 -12012307.84547  20239937.503    20239938.8464
  20780150.188    -2416220.831 8  -1874854.60447  20780149.522    20780152.4224
  23705858.007    16254788.789 7  12665843.95645  23705857.616    23705863.3124
  21799093.943   -12225835.253 8  -9508744.06547  21799093.312    21799096.8414
  20252517.763    -9921459.465 9  -7719914.70047  20252516.944    20252519.5894
  22060221.248   -14039209.266 8 -10903626.60446  22060220.797    22060223.7614
  24088106.253     2544755.749 7   1994473.16145  24088105.211    24088110.5774
  22999814.035    -1953683.627 7  -1503104.71045  22999813.731    22999816.6764
 01  7 17 18  0  0.0000000  0  9 23 18 17 06 21 15 03 22 26
  21076034.563    -4132534.558 9  -3209177.49047  21076033.935    21076036.4954
  20241417.051   -15431756.425 8 -12006251.59347  20241416.509    20241417.8654
  20786335.748    -2383715.383 8  -1849525.69047  20786335.120    20786338.0194
  23726636.626    16363982.317 7  12750929.58045  23726636.330    23726642.1464
  21788766.845   -12280103.930 8  -9551031.31947  21788766.261    21788769.7584
  20253835.095    -9914536.573 9  -7714520.23847  20253834.322    20253837.0084
  22047568.370   -14105700.762 8 -10955438.13346  22047567.817    22047570.9664
  24101689.829     2616138.584 7   2050096.04845  24101689.087    24101694.1794
  23014032.536    -1878962.338 8  -1444880.36245  23014032.487    23014035.6954
 01  7 17 18  0 30.0000000  0  9 23 18 17 06 21 15 03 22 26
  21084407.799    -4088532.796 9  -3174890.41647  21084407.178    21084409.7534
  20242978.090   -15423553.356 8 -11999859.58947  20242977.518    20242978.8364
  20792575.819    -2350924.322 8  -1823974.23447  20792575.120    20792577.9914
  23747446.079    16473332.873 7  12836137.51945  23747445.575    23747451.7784
  21778495.215   -12334081.696 8  -9593091.88247  21778494.642    21778498.1414
  20255213.144    -9907294.942 9  -7708877.41547  20255212.308    20255215.0484
  22034996.074   -14171768.099 8 -11006919.12546  22034995.670    22034998.5854
  24115316.469     2687746.249 7   2105894.10945  24115315.794    24115320.7114
  23028342.357    -1803764.654 8  -1386284.81245  23028342.070    23028345.4124
 01  7 17 18  1  0.0000000  0  9 23 18 17 06 21 15 03 22 26
  21092834.957    -4044247.703 8  -3140382.55747  21092834.355    21092836.9524
  20244621.073   -15414919.413 8 -11993131.84647  20244620.491    20244621.8254
  20798870.102    -2317847.189 8  -1798199.84647  20798869.413    20798872.3294
  23768285.021    16582838.293 7  12921466.17045  23768284.477    23768289.9234
  21768279.137   -12387767.659 8  -9634925.06947  21768278.515    21768282.0024
  20256651.870    -9899734.106 9  -7702985.86047  20256651.112    20256653.8414
  22022504.957   -14237408.678 8 -11058067.62546  22022504.617    22022507.8504
  24128985.295     2759576.595 7   2161865.71845  24128984.442    24128989.4604
  23042742.151    -1728093.056 7  -1327319.93545  23042742.022    23042745.4094
 01  7 17 18  1 30.0000000  0  9 23 18 17 06 21 15 03 22 26
  21101315.586    -3999681.792 8  -3105655.88547  21101314.983    21101317.5964
  20246345.603   -15405857.011 8 -11986070.22847  20246345.047    20246346.3614
  20805218.766    -2284484.353 8  -1772202.86047  20805218.157    20805221.0504
  23789152.529    16692495.580 7  13006913.07145  23789151.822    23789158.0384
  21758118.387   -12441162.441 8  -9676531.36547  21758117.789    21758121.2854
  20258151.336    -9891854.354 9  -7696845.79347  20258150.574    20258153.3284
  22010095.565   -14302620.989 8 -11108882.36546  22010095.039    22010098.2794
  24142696.241     2831626.150 7   2218008.13845  24142695.180    24142699.9274
  23057231.515    -1651950.727 7  -1267988.31645  23057231.460    23057234.9724
 01  7 17 18  2  0.0000000  0  9 23 18 17 06 21 15 03 22 26
  21109849.539    -3954835.893 8  -3070711.03347  21109848.936    21109851.5004
  20248151.628   -15396366.632 8 -11978675.13247  20248151.007    20248152.2774
  20811622.008    -2250835.204 8  -1745982.75447  20811621.384    20811624.2974
  23810048.231    16802303.081 7  13092477.19245  23810047.478    23810053.6444
  21748013.172   -12494265.695 8  -9717910.49447  21748012.564    21748015.9694
  20259711.776    -9883654.389 9  -7690456.21747  20259711.004    20259713.6804
  21997768.004   -14367402.104 8 -11159361.13546  21997767.663    21997770.9784
  24156447.855     2903892.512 7   2274319.49245  24156447.050    24156452.1744
  23071810.266    -1575339.769 7  -1208291.50345  23071810.168    23071813.6054
 01  7 17 18  2 30.0000000  0  9 23 18 17 06 21 15 03 22 26
  21118436.497    -3909711.129 8  -3035548.88647  21118435.871    21118438.4804
  20250038.926   -15386448.712 8 -11970946.88647  20250038.340    20250039.5824
  20818080.030    -2216898.766 8  -1719538.77947  20818079.294    20818082.2584
  23830971.740    16912259.215 7  13178156.96145  23830971.311    23830978.4284
  21737963.531   -12547076.699 8  -9759061.88847  21737962.932    21737966.3344
  20261333.199    -9875133.511 9  -7683816.56247  20261332.461    20261335.1594
  21985522.928   -14431748.997 8 -11209501.54346  21985522.659    21985525.9734
  24170240.684     2976372.890 7   2330797.57845  24170239.731    24170245.1404
  23086477.888    -1498262.250 7  -1148231.13145  23086477.675    23086480.9204
 01  7 17 18  3  0.0000000  0  9 23 18 17 06 21 15 03 22 26
  21127075.883    -3864310.573 9  -3000171.84047  21127075.320    21127077.9704
  20252007.084   -15376105.917 8 -11962887.55647  20252006.518    20252007.7464
  20824592.329    -2182676.085 8  -1692871.77947  20824591.715    20824594.6244
  23851924.094    17022360.682 7  13263950.02145  23851923.466    23851930.0644
  21727969.294   -12599596.533 8  -9799986.40147  21727968.750    21727972.1694
  20263015.664    -9866292.518 9  -7676927.48247  20263014.897    20263017.5154
  21973360.987   -14495661.008 8 -11259303.08146  21973360.570    21973363.9744
  24184073.101     3049063.016 7   2387439.10945  24184072.135    24184077.6774
  23101233.405    -1420721.867 8  -1087810.13045  23101233.229    23101236.2794
 01  7 17 18  3 30.0000000  0  9 23 18 17 06 21 15 03 22 26
  21135767.874    -3818634.476 8  -2964580.07847  21135767.193    21135769.8294
  20254056.145   -15365337.828 8 -11954496.84047  20254055.589    20254056.8754
  20831159.461    -2148165.647 8  -1665980.53547  20831158.819    20831161.7014
  23872903.268    17132606.196 7  13349855.35145  23872902.854    23872909.6514
  21718030.831   -12651823.781 8  -9840682.93147  21718030.190    21718033.5304
  20264759.262    -9857129.829 9  -7669787.71847  20264758.500    20264761.1654
  21961282.103   -14559134.601 8 -11308762.98046  21961281.830    21961285.1204
  24197945.466     3121961.743 7   2444243.21845  24197944.432    24197949.7584
  23116076.509    -1342720.255 7  -1027029.69245  23116076.364    23116079.2244
 01  7 17 18  4  0.0000000  0  9 23 18 17 06 21 15 03 22 26
  21144511.758    -3772684.852 8  -2928775.19347  21144511.119    21144513.7604
  20256185.851   -15354145.957 8 -11945775.90547  20256185.324    20256186.6224
  20837781.269    -2113367.498 8  -1638865.09747  20837780.654    20837783.5924
  23893908.117    17242993.576 7  13435871.18745  23893908.111    23893915.8164
  21708147.971   -12703758.435 8  -9881151.46347  21708147.382    21708150.7234
  20266564.127    -9847645.183 9  -7662397.08747  20266563.370    20266566.0424
  21949287.400   -14622167.859 8 -11357879.80046  21949286.886    21949290.4464
  24211856.709     3195065.914 7   2501207.41945  24211855.791    24211860.8374
  23131006.782    -1264260.194 7   -965892.01745  23131006.798    23131009.9314
 01  7 17 18  4 30.0000000  0  9 23 18 17 06 21 15 03 22 26
  21153307.494    -3726462.871 8  -2892758.06647  21153306.850    21153309.4994
  20258396.157   -15342530.812 8 -11936725.13747  20258395.605    20258396.8884
  20844458.051    -2078280.898 8  -1611524.90147  20844457.432    20844460.3444
  23914941.664    17353520.786 7  13521996.00245  23914941.221    23914948.7604
  21698320.980   -12755399.678 8  -9921391.34847  21698320.385    21698323.6854
  20268430.394    -9837837.743 8  -7654754.92247  20268429.638    20268432.3054
  21937376.745   -14684758.029 8 -11406651.31746  21937376.440    21937379.6984
  24225806.597     3268373.038 7   2558329.75545  24225805.574    24225810.9374
  23146023.919    -1185343.759 7   -904398.71045  23146023.962    23146027.3174
 01  7 17 18  5  0.0000000  0  9 23 18 17 06 21 15 03 22 26
  21162154.470    -3679972.005 8  -2856531.41747  21162153.796    21162156.4664
  20260686.339   -15330495.575 8 -11927347.03147  20260685.809    20260687.0894
  20851189.454    -2042907.394 8  -1583961.15447  20851188.762    20851191.7034
  23936000.109    17464183.676 7  13608226.49345  23935999.931    23936006.9144
  21688549.383   -12806749.783 8  -9961404.39847  21688548.810    21688552.1354
  20270357.845    -9827709.005 8  -7646862.39747  20270357.064    20270359.7524
  21925550.563   -14746904.868 8 -11455077.42046  21925550.317    21925553.5054
  24239794.042     3341877.718 7   2615606.00645  24239793.030    24239798.8574
  23161127.551    -1105975.524 7   -842553.39245  23161127.395    23161130.8444
 01  7 17 18  5 30.0000000  0  9 23 18 17 06 21 15 03 22 26
  21171052.397    -3633213.092 8  -2820095.91147  21171051.726    21171054.3694
  20263056.405   -15318040.730 8 -11917641.95847  20263055.898    20263057.2184
  20857975.579    -2007245.951 8  -1556173.00547  20857974.914    20857977.8444
  23957084.411    17574980.941 7  13694561.71645  23957084.025    23957091.4754
  21678833.300   -12857807.870 8 -10001189.88447  21678832.657    21678836.0354
  20272346.717    -9817257.615 9  -7638718.46147  20272345.917    20272348.5884
  21913809.586   -14808605.330 8 -11503155.68046  21913809.126    21913812.1684
  24253819.050     3415578.275 7   2673034.87445  24253818.070    24253823.6834
  23176316.366    -1026157.454 8   -780357.54445  23176316.320    23176319.5644
 01  7 17 18  6  0.0000000  0  9 23 18 17 06 21 15 03 22 26
  21180000.842    -3586188.099 8  -2783453.06647  21180000.241    21180002.9324
  20265506.085   -15305167.746 8 -11907611.05747  20265505.572    20265506.9244
  20864816.546    -1971296.772 8  -1528160.68547  20864815.878    20864818.7624
  23978193.568    17685909.957 7  13780999.60445  23978193.443    23978201.1114
  21669172.721   -12908574.469 8 -10040748.22347  21669172.074    21669175.5374
  20274396.947    -9806483.741 9  -7630323.24047  20274396.128    20274398.7894
  21902153.668   -14869857.588 8 -11550884.68146  21902153.296    21902156.1614
  24267880.150     3489471.734 7   2730614.08945  24267879.368    24267885.4824
  23191590.539     -945892.380 7   -717813.36245  23191590.296    23191593.6634
 01  7 17 18  6 30.0000000  0  9 23 18 17 06 21 15 03 22 26
  21189000.143    -3538896.672 8  -2746602.61447  21188999.501    21189002.2174
  20268035.504   -15291875.649 8 -11897253.57947  20268034.961    20268036.3054
  20871712.606    -1935057.469 8  -1499922.26647  20871711.984    20871714.9414
  23999327.782    17796970.463 7  13867539.91745  23999327.659    23999335.6704
  21659568.040   -12959047.220 8 -10080077.61447  21659567.374    21659570.7374
  20276508.999    -9795384.783 8  -7621674.70647  20276508.166    20276510.8404
  21890583.822   -14930657.414 8 -11598261.13346  21890583.425    21890586.3544
  24281977.982     3563557.175 7   2788342.91945  24281976.829    24281983.5224
  23206949.121     -865181.016 8   -654921.40245  23206949.143    23206952.7044
 01  7 17 18  7  0.0000000  0  9 23 18 17 06 21 15 03 22 26
  21198049.261    -3491342.998 8  -2709547.81247  21198048.646    21198051.3604
  20270643.992   -15278168.008 8 -11886572.29547  20270643.456    20270644.7394
  20878663.433    -1898530.352 8  -1471459.57347  20878662.842    20878665.8244
  24020486.088    17908157.713 7  13954178.97845  24020486.135    24020494.0064
  21650018.754   -13009228.727 8 -10119180.06147  21650018.164    21650021.5014
  20278682.425    -9783962.889 8  -7612774.52947  20278681.641    20278684.3494
  21879099.877   -14991004.918 8 -11645285.14046  21879099.615    21879102.4744
  24296111.516     3637828.851 7   2846216.85945  24296110.282    24296117.1604
  23222392.454     -784028.510 7   -591685.77445  23222392.202    23222395.3814
 01  7 17 18  7 30.0000000  0  9 23 18 17 06 21 15 03 22 26
  21207148.156    -3443528.618 8  -2672289.86247  21207147.477    21207150.1434
  20273331.352   -15264046.099 8 -11875568.21247  20273330.795    20273332.1004
  20885669.229    -1861715.052 8  -1442772.34947  20885668.652    20885671.5564
  24041668.168    18019469.473 7  14040915.15045  24041668.368    24041676.0344
  21640524.984   -13059118.433 8 -10158055.13047  21640524.367    21640527.7874
  20280917.454    -9772217.712 8  -7603622.45147  20280916.683    20280919.3614
  21867702.902   -15050898.001 8 -11691955.05646  21867702.365    21867705.2764
  24310280.303     3712283.687 7   2904233.50245  24310278.873    24310285.3654
  23237918.590     -702437.591 7   -528108.45645  23237918.414    23237921.5574
 01  7 17 18  8  0.0000000  0  9 23 18 17 06 21 15 03 22 26
  21216296.517    -3395453.871 8  -2634829.02447  21216295.804    21216298.5224
  20276097.525   -15249509.831 8 -11864241.25747  20276096.960    20276098.2344
  20892730.059    -1824610.106 8  -1413859.41147  20892729.455    20892732.3714
  24062874.437    18130905.080 7  14127747.63345  24062874.139    24062882.5644
  21631087.040   -13108715.093 8 -10196701.84647  21631086.430    21631089.8254
  20283214.311    -9760147.577 8  -7594217.15147  20283213.534    20283216.2064
  21856392.446   -15110333.067 8 -11738268.08746  21856392.204    21856395.1764
  24324483.329     3786920.549 7   2962391.97645  24324482.221    24324488.2814
  23253527.828     -620409.558 7   -464190.53445  23253527.857    23253531.2304
 01  7 17 18  8 30.0000000  0  9 23 18 17 06 21 15 03 22 26
  21225493.825    -3347121.399 8  -2597167.36747  21225493.157    21225495.8824
  20278942.091   -15234561.402 8 -11852593.12447  20278941.541    20278942.7904
  20899845.768    -1787216.080 8  -1384721.21447  20899845.278    20899848.2644
  24084103.296    18242460.712 7  14214673.86445  24084102.702    24084110.3194
  21621704.723   -13158019.791 8 -10235121.07147  21621704.056    21621707.4004
  20285572.924    -9747753.066 8  -7584559.09047  20285572.121    20285574.8324
  21845169.825   -15169309.200 8 -11784223.48746  21845169.344    21845172.3964
  24338720.271     3861735.701 7   3020689.39645  24338719.154    24338725.0534
  23269219.718     -537948.262 7   -399935.01545  23269219.465    23269222.9974
 01  7 17 18  9  0.0000000  0  9 23 18 17 06 21 15 03 22 26
  21234739.988    -3298532.657 8  -2559306.00747  21234739.316    21234741.9664
  20281864.897   -15219201.659 8 -11840624.48847  20281864.378    20281865.6264
  20907016.895    -1749532.694 8  -1355357.54947  20907016.214    20907019.1304
  24105354.599    18354134.718 7  14301692.18445  24105353.940    24105362.0254
  21612377.854   -13207032.234 8 -10273312.55447  21612377.263    21612380.5784
  20287993.423    -9735033.471 9  -7574647.71347  20287992.605    20287995.3054
  21834034.857   -15227824.087 8 -11829819.47946  21834034.463    21834037.5004
  24352990.983     3936726.300 7   3079123.51345  24352989.835    24352995.4614
  23284993.621     -455056.081 7   -335343.75045  23284993.285    23284996.7144
 01  7 17 18  9 30.0000000  0  9 23 18 17 06 21 15 03 22 26
  21244034.555    -3249689.245 9  -2521246.22047  21244033.872    21244036.5924
  20284865.698   -15203432.022 8 -11828336.45547  20284865.220    20284866.5164
  20914242.926    -1711559.714 8  -1325768.21547  20914242.191    20914245.1314
  24126627.957    18465924.847 7  14388800.96445  24126627.533    24126635.0424
  21603106.628   -13255752.425 8 -10311276.29547  21603106.041    21603109.4414
  20290475.749    -9721988.557 9  -7564482.84047  20290474.946    20290477.6634
  21822988.059   -15285875.445 8 -11875054.27746  21822987.580    21822990.5864
  24367294.060     4011888.711 7   3137691.48445  24367292.924    24367298.5594
  23300848.985     -371735.729 8   -270418.85145  23300848.658    23300851.9504
 01  7 17 18 10  0.0000000  0  9 23 18 17 06 21 15 03 22 26
  21253377.333    -3200592.550 9  -2482989.06247  21253376.693    21253379.4134
  20287944.380   -15187253.395 8 -11815729.73447  20287943.879    20287945.1944
  20921524.067    -1673296.637 8  -1295952.83247  20921523.431    20921526.3764
  24147923.096    18577828.870 7  14475998.60445  24147922.550    24147929.4814
  21593891.126   -13304180.327 8 -10349012.27547  21593890.491    21593893.9194
  20293020.274    -9708617.474 9  -7554063.82147  20293019.425    20293022.1384
  21812029.987   -15343460.990 8 -11919926.10946  21812029.476    21812032.5484
  24381629.186     4087220.665 7   3196391.62645  24381627.980    24381633.9454
  23316785.225     -287989.849 8   -205162.34645  23316785.136    23316788.4004
 01  7 17 18 10 30.0000000  0  9 23 18 17 06 21 15 03 22 26
  21262768.033    -3151244.320 8  -2444535.90247  21262767.343    21262770.0514
  20291100.674   -15170666.939 8 -11802805.22847  20291100.184    20291101.4784
  20928860.684    -1634743.103 8  -1265911.14147  20928859.972    20928862.8554
  24169239.278    18689844.911 7  14563283.39845  24169238.574    24169246.4904
  21584731.258   -13352315.756 8 -10386520.36847  21584730.672    21584734.0664
  20295626.777    -9694919.820 9  -7543390.32747  20295625.991    20295628.6804
  21801160.773   -15400578.553 8 -11964433.27546  21801160.331    21801163.3104
  24395996.623     4162719.791 7   3255221.98945  24395995.223    24396001.2004
  23332802.313     -203821.043 7   -139576.31845  23332802.077    23332805.0854
 01  7 17 18 11  0.0000000  0  9 23 18 17 06 21 15 03 22 26
  21272206.239    -3101645.895 8  -2405887.78647  21272205.618    21272208.2764
  20294334.401   -15153673.742 8 -11789563.77347  20294333.885    20294335.1584
  20936252.483    -1595898.752 8  -1235642.78947  20936251.755    20936254.7274
  24190576.453    18801970.516 7  14650653.66345  24190575.614    24190583.3394
  21575627.102   -13400158.577 8 -10423800.45947  21575626.515    21575629.8184
  20298295.598    -9680895.076 9  -7532461.96147  20298294.803    20298297.5344
  21790381.052   -15457225.877 8 -12008574.05246  21790380.723    21790383.7564
  24410395.031     4238383.236 7   3314180.35345  24410393.826    24410399.4164
  23348899.100     -119231.864 7    -73662.71145  23348898.934    23348902.0184
 01  7 17 18 11 30.0000000  0  9 23 18 17 06 21 15 03 22 26
  21281691.757    -3051799.193 8  -2367046.20447  21281691.122    21281693.8234
  20297645.240   -15136275.322 8 -11776006.55547  20297644.723    20297645.9734
  20943699.607    -1556763.821 8  -1205148.07047  20943698.939    20943701.8534
  24211933.820    18914203.420 7  14738107.47245  24211932.896    24211940.7114
  21566578.445   -13447708.708 8 -10460852.48947  21566577.909    21566581.3154
  20301026.833    -9666543.124 8  -7521278.63247  20301025.942    20301028.6754
  21779691.310   -15513401.294 8 -12052347.05846  21779690.834    21779693.7764
  24424823.277     4314207.141 7   3373263.83745  24424822.258    24424828.2624
  23365075.437      -34225.516 7     -7424.02545  23365075.055    23365078.4504
 01  7 17 18 12  0.0000000  0 10 23 18 17 14 06 21 15 03 22 26
  21291224.272    -3001705.389 8  -2328012.08447  21291223.633    21291226.3244
  20301033.000   -15118472.758 8 -11762134.42447  20301032.478    20301033.7344
  20951202.062    -1517337.831 8  -1174426.52647  20951201.415    20951204.3694
  24354533.388     -230407.47954                  24354532.268    24354536.9164
  24233311.425    19026541.447 7  14825643.24445  24233310.638    24233318.5174
  21557585.777   -13494966.027 8 -10497676.33047  21557585.145    21557588.4574
  20303820.064    -9651863.526 8  -7509839.97647  20303819.278    20303822.0704
  21769091.773   -15569102.229 8 -12095750.37246  21769091.392    21769094.2504
  24439282.237     4390188.982 7   3432470.30345  24439281.208    24439287.2114
  23381330.672       51195.560 7     59137.83745  23381330.121    23381333.7284
 01  7 17 18 12 30.0000000  0 10 23 18 17 14 06 21 15 03 22 26
  21300803.610    -2951366.217 8  -2288786.76047  21300802.951    21300805.5124
  20304497.420   -15100267.416 8 -11747948.45247  20304496.819    20304498.0954
  20958760.013    -1477620.313 8  -1143477.81047  20958759.353    20958762.4074
  24332710.699     -446455.58017   -319773.18445  24332710.015    24332718.4114
  24254708.368    19138982.536 7  14913259.18044  24254707.345    24254715.7164
  21548648.547   -13541930.952 8 -10534272.34447  21548648.001    21548651.3364
  20306676.001    -9636855.880 8  -7498145.70847  20306675.201    20306677.9304
  21758582.665   -15624327.087 8 -12138782.70546  21758582.377    21758585.1254
  24453770.541     4466326.100 7   3491797.77945  24453769.948    24453775.7544
  23397663.712      137028.45117    126020.54845  23397663.555    23397666.8774
 01  7 17 18 13  0.0000000  0 10 23 18 17 14 06 21 15 03 22 26
  21310429.230    -2900783.303 8  -2249371.51547  21310428.527    21310431.1634
  20308038.144   -15081660.394 8 -11733449.47147  20308037.578    20308038.8914
  20966373.624    -1437611.073 8  -1112301.80947  20966372.972    20966375.8994
  24310894.265     -561103.713 7   -409109.06745  24310891.960    24310900.8024
  24276124.603    19251524.125 7  15000953.65645  24276124.038    24276131.6724
  21539767.034   -13588603.375 8 -10570640.43247  21539766.490    21539769.7784
  20309594.460    -9621519.458 8  -7486195.24747  20309593.621    20309596.3604
  21748164.742   -15679073.588 8 -12181442.30646  21748164.359    21748167.1754
  24468287.628     4542616.061 7   3551244.38545  24468287.467    24468293.1594
  23414074.802      223270.642 7    193222.20945  23414074.743    23414078.1684
 01  7 17 18 13 30.0000000  0 10 23 18 17 14 06 21 15 03 22 26
  21320100.547    -2849959.854 8  -2209768.84347  21320099.892    21320102.5414
  20311654.875   -15062654.366 8 -11718639.57947  20311654.324    20311655.6444
  20974042.434    -1397311.528 8  -1080899.56547  20974041.673    20974044.6654
  24289083.863     -675712.136 7   -498413.97245  24289081.098    24289091.6374
  24297559.253    19364162.560 7  15088723.25445  24297558.669    24297567.3654
  21530941.013   -13634984.604 8 -10606781.61247  21530940.400    21530943.7284
  20312575.124    -9605855.524 9  -7473989.58447  20312574.357    20312577.1184
  21737837.950   -15733341.430 8 -12223728.89746  21737837.578    21737840.2954
  24482833.184     4619054.059 7   3610806.33745  24482833.137    24482838.7694
  23430563.122      309917.747 7    260739.39245  23430563.159    23430566.6744
 01  7 17 18 14  0.0000000  0 10 23 18 17 14 06 21 15 03 22 26
  21329817.452    -2798897.351 8  -2169979.89147  21329816.795    21329819.4014
  20315347.256   -15043250.836 8 -11703519.94347  20315346.718    20315348.0244
  20981766.424    -1356721.366 8  -1049270.88647  20981765.746    20981768.7394
  24267282.729     -790278.124 7   -587685.87045  24267280.901    24267289.8184
  24319011.750    19476895.495 7  15176566.77444  24319011.239    24319018.6124
  21522170.230   -13681074.771 8 -10642695.99447  21522169.742    21522173.0134
  20315618.315    -9589863.987 9  -7461528.65447  20315617.471    20315620.2414
  21727602.596   -15787128.160 8 -12265640.62346  21727602.214    21727605.2054
  24497406.758     4695636.694 7   3670481.03545  24497406.459    24497412.2394
  23447127.997      396967.059 8    328569.96745  23447128.121    23447131.7824
 01  7 17 18 14 30.0000000  0 10 23 18 17 14 06 21 15 03 22 26
  21339579.851    -2747595.508 8  -2130004.44247  21339579.207    21339581.8014
  20319115.410   -15023449.077 8 -11688090.00647  20319114.850    20319116.1694
  20989546.105    -1315838.565 8  -1017414.14547  20989545.460    20989548.5454
  24245490.165     -904797.069 7   -676921.01945  24245488.529    24245497.2414
  24340481.748    19589722.761 7  15264483.66145  24340481.504    24340490.0264
  21513455.228   -13726872.321 8 -10678382.37647  21513454.685    21513457.9004
  20318724.206    -9573542.501 9  -7448810.61747  20318723.370    20318726.0824
  21717459.648   -15840429.964 8 -12307174.46546  21717459.226    21717462.1814
  24512007.468     4772363.154 7   3730267.74745  24512007.049    24512013.1864
  23463769.276      484417.573 8    396713.17145  23463769.500    23463773.0814
 01  7 17 18 15  0.0000000  0 10 23 18 17 14 06 21 15 03 22 26
  21349387.334    -2696057.161 8  -2089844.70847  21349386.677    21349389.2884
  20322958.870   -15003251.593 8 -11672351.71647  20322958.339    20322959.6214
  20997381.399    -1274664.060 8   -985330.12247  20997380.715    20997383.7494
  24223705.995    -1019267.660 7   -766118.51045  24223704.790    24223713.9334
  24361970.072    19702640.614 7  15352471.07045  24361969.568    24361978.4054
  21504795.802   -13772377.724 8 -10713841.09547  21504795.250    21504798.5614
  20321892.653    -9556891.744 8  -7435835.99747  20321891.867    20321894.5814
  21707409.168   -15893246.090 8 -12348329.86446  21707408.694    21707411.6504
  24526635.365     4849229.789 7   3790163.66145  24526634.633    24526640.3794
  23480486.335      572265.281 8    465165.88245  23480486.517    23480490.0364
 01  7 17 18 15 30.0000000  0 10 23 18 17 14 06 21 15 03 22 26
  21359239.590    -2644283.101 8  -2049501.30547  21359238.936    21359241.5524
  20326877.543   -14982658.775 8 -11656305.36147  20326876.986    20326878.2924
  21005272.551    -1233196.749 8   -953017.95947  21005271.803    21005274.7374
  24201932.459    -1133686.414 7   -855275.64445  24201931.642    24201940.6514
  24383474.612    19815647.931 7  15440528.34444  24383474.302    24383482.5934
  21496192.146   -13817590.013 8 -10749071.42547  21496191.606    21496194.9554
  20325124.138    -9539910.568 8  -7422603.92147  20325123.300    20325125.9874
  21697451.294   -15945573.880 8 -12389104.75046  21697450.997    21697454.0274
  24541288.870     4926234.581 7   3850167.26045  24541288.310    24541294.0774
  23497278.688      660508.132 8    533926.49545  23497278.772    23497282.2524
 01  7 17 18 16  0.0000000  0 10 23 18 17 14 06 21 15 03 22 26
  21369136.146    -2592276.186 8  -2008976.44347  21369135.505    21369138.1124
  20330870.874   -14961673.298 8 -11639953.04347  20330870.381    20330871.7174
  21013218.997    -1191437.796 8   -920478.52547  21013218.252    21013221.2264
  24180169.469    -1248051.577 7   -944390.96145  24180168.528    24180177.3174
  24404996.124    19928741.084 7  15528652.34445  24404995.642    24405004.4294
  21487643.986   -13862510.854 8 -10784074.64347  21487643.434    21487646.6534
  20328418.264    -9522599.655 9  -7409114.89547  20328417.459    20328420.1474
  21687586.686   -15997412.559 8 -12429498.50346  21687586.336    21687589.3764
  24555968.245     5003372.978 7   3910274.97545  24555967.386    24555973.4484
  23514145.387      749142.34617    602992.06845  23514145.156    23514148.9434
 01  7 17 18 16 30.0000000  0  9 23 18 17 14 06 21 15 03 22
  21379076.549    -2540038.946 8  -1968272.11647  21379075.904    21379078.5814
  20334938.599   -14940297.276 8 -11623296.40247  20334938.115    20334939.4334
  21021220.772    -1149387.874 8   -887712.36447  21021220.042    21021223.0154
  24158416.487    -1362361.653 7  -1033463.38045  24158415.698    24158424.4574
  24426532.834    20041916.631 7  15616840.64345  24426532.702    24426541.3354
  21479151.029   -13907141.552 8 -10818851.78847  21479150.474    21479153.7954
  20331774.989    -9504959.724 9  -7395369.49747  20331774.196    20331776.9144
  21677815.500   -16048761.056 8 -12469510.29446  21677815.011    21677818.2124
  24570672.220     5080640.740 7   3970483.45045  24570671.148    24570677.4584
 01  7 17 18 17  0.0000000  0  9 23 18 17 14 06 21 15 03 22
  21389061.099    -2487569.981 9  -1927387.21847  21389060.422    21389063.0974
  20339080.915   -14918529.380 8 -11606334.40947  20339080.397    20339081.7154
  21029278.500    -1107043.755 8   -854716.97847  21029277.864    21029280.8364
  24136675.247    -1476610.717 7  -1122488.25845  24136674.540    24136683.3734
  24448085.782    20155175.659 7  15705093.96344  24448085.391    24448094.1644
  21470713.773   -13951479.677 8 -10853400.94247  21470713.225    21470716.4814
  20335195.080    -9486987.470 9  -7381365.14347  20335194.218    20335196.9374
  21668138.413   -16099614.530 8 -12509136.34447  21668137.920    21668140.9824
  24585399.946     5158038.577 7   4030793.33944  24585398.944    24585405.8874
 01  7 17 18 17 30.0000000  0  9 23 18 17 14 06 21 15 03 22
  21399089.605    -2434869.947 8  -1886322.27247  21399088.889    21399091.5874
  20343297.701   -14896369.927 8 -11589067.30247  20343297.198    20343298.5114
  21037392.397    -1064404.604 8   -821491.63347  21037391.757    21037394.9034
  24114945.794    -1590795.401 7  -1211463.00945  24114945.590    24114954.5134
  24469654.120    20268516.440 7  15793410.96345  24469653.890    24469662.6524
  21462332.166   -13995524.555 8 -10887721.58847  21462331.667    21462334.9904
  20338678.528    -9468681.720 9  -7367100.92547  20338677.666    20338680.4164
  21658555.971   -16149970.087 8 -12548374.44247  21658555.504    21658558.7014
  24600152.190     5235564.554 7   4091202.97845  24600151.598    24600158.8574
 01  7 17 18 18  0.0000000  0  9 23 18 17 14 06 21 15 03 22
  21409161.008    -2381944.428 8  -1845081.62047  21409160.327    21409163.0514
  20347588.087   -14873823.992 8 -11571499.04647  20347587.568    20347588.8854
  21045562.087    -1021473.751 8   -788039.04447  21045561.371    21045564.3774
  24093229.238    -1704916.836 7  -1300388.44145  24093228.846    24093237.5454
  24491236.405    20381933.00416  15881787.06744  24491236.212    24491245.6764
  21454005.996   -14039279.202 8 -10921816.10047  21454005.451    21454008.7804
  20342224.657    -9450045.975 9  -7352579.57347  20342223.881    20342226.6824
  21649068.025   -16199829.883 8 -12587226.19747  21649067.492    21649070.5414
  24614928.940     5313211.706 7   4151707.05045  24614928.139    24614934.6504
 01  7 17 18 18 30.0000000  0  9 23 18 17 14 06 21 15 03 22
  21419275.306    -2328793.484 8  -1803665.31047  21419274.605    21419277.3194
  20351952.013   -14850891.451 8 -11553629.53347  20351951.457    20351952.7924
  21053787.349     -978249.875 8   -754358.11547  21053786.567    21053789.5574
  24071525.300    -1818970.814 7  -1389261.25445  24071524.452    24071533.1834
  24512832.942    20495424.65817  15970221.55144  24512833.027    24512843.2334
  21445734.986   -14082743.055 8 -10955684.00847  21445734.497    21445737.7344
  20345834.157    -9431078.377 9  -7337799.63947  20345833.323    20345836.0404
  21639675.081   -16249190.463 8 -12625688.96747  21639674.505    21639677.4754
  24629727.254     5390978.086 7   4212304.15545  24629726.516    24629732.9454
 01  7 17 18 19  0.0000000  0  8 23 18 17 14 21 15 03 22
  21429432.275    -2275417.775 8  -1762073.86247  21429431.653    21429434.4224
  20356389.409   -14827572.677 8 -11535459.06047  20356388.885    20356390.2024
  21062068.464     -934731.725 8   -720447.88547  21062067.784    21062070.8034
  24049834.348    -1932953.708 7  -1478078.74445  24049834.048    24049842.5394
  21437519.616   -14125915.197 8 -10989324.62047  21437519.054    21437522.4374
  20349506.953    -9411777.738 9  -7322760.18547  20349506.120    20349508.8334
  21630377.448   -16298049.136 8 -12663760.64347  21630377.051    21630379.8574
  24644548.144     5468861.861 7   4272992.65345  24644547.274    24644553.9494
 01  7 17 18 19 30.0000000  0  8 23 18 17 14 21 15 03 22
  21439631.754    -2221819.803 8  -1720309.21247  21439631.062    21439633.8094
  20360899.856   -14803870.295 8 -11516989.67047  20360899.293    20360900.6084
  21070405.571     -890920.131 8   -686309.00047  21070404.892    21070407.8384
  24028157.703    -2046863.540 7  -1566839.29745  24028157.454    24028166.0954
  21429359.534   -14168796.419 8 -11022738.53547  21429359.004    21429362.2674
  20353242.942    -9392144.704 9  -7307461.71347  20353242.174    20353244.9024
  21621175.653   -16346405.077 8 -12701440.58947  21621175.172    21621178.0764
  24659391.285     5546859.754 7   4333770.06945  24659390.379    24659396.6844
 01  7 17 18 20  0.0000000  0  8 23 18 17 14 21 15 03 22
  21449872.891    -2168001.822 8  -1678373.14147  21449872.272    21449875.0654
  20365482.898   -14779785.944 8 -11498222.65447  20365482.370    20365483.7004
  21078798.592     -846815.488 8   -651941.75547  21078797.752    21078800.6694
  24006495.283    -2160698.746 7  -1655541.68545  24006494.999    24006503.4544
  21421254.916   -14211386.569 8 -11055925.62547  21421254.385    21421257.6594
  20357042.306    -9372179.432 8  -7291904.36647  20357041.503    20357044.1794
  21612069.745   -16394256.936 8 -12738727.71347  21612069.266    21612072.0734
  24674254.758     5624968.244 7   4394633.70445  24674253.940    24674260.4454
 01  7 17 18 20 30.0000000  0  8 23 18 17 14 21 15 03 22
  21460156.010    -2113964.214 8  -1636265.92347  21460155.324    21460158.0954
  20370138.673   -14755319.920 8 -11479158.22147  20370138.127    20370139.4794
  21087247.402     -802416.370 8   -617345.04447  21087246.683    21087249.6724
  23984848.018    -2274454.996 7  -1744182.51445  23984847.796    23984856.2244
  21413205.582   -14253685.552 8 -11088885.84647  21413205.106    21413208.4504
  20360905.131    -9351880.343 8  -7276086.89947  20360904.309    20360906.9914
  21603060.283   -16441601.631 8 -12775619.66947  21603059.863    21603062.7904
  24689138.732     5703185.221 7   4455581.81544  24689137.955    24689144.6634
 01  7 17 18 21  0.0000000  0  8 23 18 17 14 21 15 03 22
  21470480.485    -2059708.601 8  -1593988.82847  21470479.816    21470482.5884
  20374866.772   -14730473.698 8 -11459797.52547  20374866.204    20374867.5774
  21095752.346     -757722.873 8   -582518.93447  21095751.555    21095754.6064
  23963216.112    -2388129.605 7  -1832759.79545  23963215.882    23963224.4114
  21405211.740   -14295694.062 8 -11121619.71947  21405211.151    21405214.4374
  20364831.491    -9331247.128 9  -7260009.07247  20364830.701    20364833.3844
  21594147.660   -16488437.357 8 -12812115.01347  21594147.263    21594150.2604
  24704043.070     5781507.385 7   4516611.90044  24704042.486    24704048.7224
 01  7 17 18 21 30.0000000  0  8 23 18 17 14 21 15 03 22
  21480846.000    -2005237.822 8  -1551544.06947  21480845.290    21480848.0264
  20379666.656   -14705249.981 8 -11440142.68447  20379666.131    20379667.4664
  21104313.092     -712735.890 8   -547464.16446  21104312.289    21104315.2224
  23941600.102    -2501721.251 7  -1921272.42745  23941600.005    23941608.3374
  21397272.740   -14337413.425 8 -11154128.30647  21397272.217    21397275.5234
  20368821.274    -9310280.836 9  -7243671.71147  20368820.449    20368823.1194
  21585332.191   -16534763.762 8 -12848213.47047  21585331.666    21585334.5624
  24718966.865     5859930.850 7   4577720.91945  24718966.136    24718972.7564
 01  7 17 18 22  0.0000000  0  8 23 18 17 14 21 15 03 22
  21491252.127    -1950553.378 8  -1508932.81647  21491251.406    21491254.1724
  20384538.164   -14679650.218 8 -11420194.82047  20384537.608    20384538.9594
  21112929.697     -667455.331 8   -512180.64947  21112928.933    21112931.9164
  23920000.627    -2615226.953 7  -2009718.03245  23920000.479    23920008.3994
  21389389.030   -14378842.928 8 -11186410.99847  21389388.435    21389391.6804
  20372874.511    -9288981.086 9  -7227074.50147  20372873.683    20372876.3574
  21576613.825   -16580578.854 8 -12883913.53947  21576613.341    21576616.2094
  24733909.275     5938453.347 7   4638907.11444  24733908.591    24733915.4444
 01  7 17 18 22 30.0000000  0  8 23 18 17 14 21 15 03 22
  21501698.650    -1895656.816 8  -1466156.28147  21501697.934    21501700.6704
  20389480.998   -14653675.429 8 -11399954.72447  20389480.446    20389481.8004
  21121602.238     -621881.035 8   -476668.22247  21121601.410    21121604.3274
  23898417.555    -2728644.386 7  -2098094.95645  23898417.480    23898425.3534
  21381560.367   -14419982.789 8 -11218468.03447  21381559.804    21381563.0184
  20376991.140    -9267347.659 8  -7210217.28247  20376990.383    20376993.0964
  21567993.076   -16625881.282 8 -12919214.11347  21567992.659    21567995.3504
  24748869.921     6017071.668 7   4700167.96144  24748868.845    24748876.1294
 01  7 17 18 23  0.0000000  0  8 23 18 17 14 21 15 03 22
  21512185.420    -1840548.252 8  -1423214.54447  21512184.714    21512187.4324
  20394495.192   -14627325.750 8 -11379422.51047  20394494.615    20394495.9424
  21130330.780     -576011.512 8   -440925.73847  21130330.107    21130333.0484
  23876852.925    -2841969.368 7  -2186399.77445  23876852.499    23876859.4644
  21373787.035   -14460831.920 8 -11250298.49147  21373786.396    21373789.6384
  20381171.663    -9245378.825 9  -7193098.72547  20381170.909    20381173.6214
  21559470.669   -16670667.533 8 -12954112.47547  21559470.080    21559472.8194
  24763848.328     6095783.798 7   4761501.93444  24763847.196    24763854.4934
 01  7 17 18 23 30.0000000  0  8 23 18 17 14 21 15 03 22
  21522712.157    -1785230.227 8  -1380109.60847  21522711.417    21522714.1764
  20399580.194   -14600603.663 8 -11358600.10447  20399579.675    20399580.9844
  21139115.507     -529847.585 8   -404953.85647  21139114.755    21139117.8124
  23855305.756    -2955200.024 7  -2274631.10845  23855305.027    23855312.0374
  21366068.826   -14501391.318 8 -11281903.19447  21366068.239    21366071.4464
  20385416.022    -9223075.073 8  -7175719.19547  20385415.211    20385417.8734
  21551046.268   -16714936.970 8 -12988608.12047  21551045.911    21551048.6004
  24778844.055     6174586.020 7   4822906.06744  24778842.934    24778850.2744
 01  7 17 18 24  0.0000000  0  8 23 18 17 14 21 15 03 22
  21533278.307    -1729704.460 8  -1336842.79247  21533277.602    21533280.3404
  20404735.882   -14573510.887 8 -11337488.85147  20404735.306    20404736.5614
  21147956.234     -483389.062 8   -368752.45547  21147955.575    21147958.5514
  23833776.658    -3068333.572 7  -2362786.76645  23833776.101    23833782.6034
  21358405.587   -14541661.652 8 -11313282.65947  21358405.054    21358408.2834
  20389723.978    -9200436.394 9  -7158078.65747  20389723.169    20389725.8404
  21542720.711   -16758687.909 8 -13022699.72847  21542720.295    21542723.0724
  24793857.108     6253475.901 7   4884378.50444  24793855.770    24793862.9144
 01  7 17 18 24 30.0000000  0  8 23 18 17 14 21 15 03 22
  21543883.831    -1673972.170 8  -1293415.04247  21543883.140    21543885.8254
  20409961.859   -14546047.867 8 -11316089.10347  20409961.338    20409962.6044
  21156853.128     -436635.613 8   -332321.20947  21156852.416    21156855.4204
  23812266.781    -3181367.193 7  -2450864.56645  23812266.362    23812272.7234
  21350797.330   -14581643.222 8 -11344437.11647  21350796.781    21350799.9634
  20394095.951    -9177462.052 9  -7140176.57747  20394095.082    20394097.7044
  21534494.189   -16801918.363 8 -13056385.79447  21534493.720    21534496.6884
  24808885.597     6332450.798 7   4945917.22344  24808884.267    24808891.5044
 01  7 17 18 25  0.0000000  0  8 23 18 17 14 21 15 03 22
  21554528.352    -1618035.158 8  -1249827.76847  21554527.601    21554530.3274
  20415258.027   -14518216.554 8 -11294402.37547  20415257.481    20415258.7584
  21165806.254     -389587.295 8   -295660.17147  21165805.458    21165808.4904
  23790776.605    -3294298.272 7  -2538862.44345  23790776.070    23790782.7724
  21343244.140   -14621335.701 8 -11375366.30647  21343243.490    21343246.7704
  20398531.615    -9154152.049 9  -7122012.95047  20398530.811    20398533.4604
  21526366.917   -16844627.058 8 -13089665.26147  21526366.517    21526369.3784
  24823929.246     6411507.274 7   5007519.50944  24823928.052    24823935.5284
 01  7 17 18 25 30.0000000  0  8 23 18 17 14 21 15 03 22
  21565211.456    -1561894.617 8  -1206081.90547  21565210.735    21565213.5284
  20420624.040   -14490018.033 8 -11272429.49747  20420623.487    20420624.7914
  21174815.397     -342243.683 8   -258769.07346  21174814.661    21174817.6674
  23769306.009    -3407123.674 7  -2626777.99545  23769305.752    23769312.3204
  21335746.008   -14660738.715 9 -11406069.91647  21335745.421    21335748.5804
  20403031.269    -9130505.905 9  -7103587.38547  20403030.496    20403033.1604
  21518339.446   -16886811.768 8 -13122536.44347  21518339.164    21518341.9004
  24838988.509     6490642.459 7   5069183.08345  24838987.427    24838994.3324
 01  7 17 18 26  0.0000000  0  7 23 18 17 14 21 15 03
  21575934.856    -1505542.640 8  -1162171.28647  21575934.182    21575936.9454
  20426061.401   -14461444.236 8 -11250164.18647  20426060.862    20426062.1634
  21183882.635     -294595.415 8   -221640.59246  21183881.794    21183884.7664
  23747858.510    -3519831.322 7  -2714601.79745  23747857.931    23747864.6164
  21328304.616   -14699843.072 9 -11436540.83647  21328304.062    21328307.2114
  20407596.930    -9106513.715 9  -7084892.17447  20407596.085    20407598.7224
  21510413.736   -16928461.622 8 -13154990.86947  21510413.341    21510416.0854
 01  7 17 18 26 30.0000000  0  7 23 18 17 14 21 15 03
  21586695.848    -1448993.660 8  -1118107.15447  21586695.142    21586697.8454
  20431567.453   -14432509.718 8 -11227617.80347  20431566.901    20431568.2174
  21193005.283     -246655.079 8   -184284.47647  21193004.548    21193007.6624
  23726430.933    -3632431.411 7  -2802341.80645  23726430.445    23726437.2214
  21320917.565   -14738662.674 9 -11466789.86347  21320916.946    21320920.1524
  20412225.966    -9082188.090 9  -7065937.14247  20412225.081    20412227.7464
  21502587.614   -16969588.120 8 -13187037.46947  21502587.159    21502589.8454
 01  7 17 18 27  0.0000000  0  7 23 18 17 14 21 15 03
  21597494.131    -1392247.802 8  -1073889.63047  21597493.486    21597496.2514
  20437142.109   -14403214.404 8 -11204790.29147  20437141.581    20437142.9294
  21202183.984     -198421.095 8   -146699.57647  21202183.234    21202186.3424
  23705024.970    -3744919.984 7  -2889994.91245  23705024.404    23705031.0904
  21313584.863   -14777195.954 8 -11496815.76547  21313584.263    21313587.3914
  20416918.615    -9057527.346 9  -7046720.97647  20416917.822    20416920.5934
  21494861.512   -17010187.992 8 -13218673.71747  21494861.168    21494863.8434
 01  7 17 18 27 30.0000000  0  7 23 18 17 14 21 15 03
  21608329.791    -1335305.873 8  -1029519.29647  21608329.195    21608331.9814
  20442785.356   -14373559.193 8 -11181682.33247  20442784.785    20442786.1044
  21211418.568     -149892.802 8   -108885.36746  21211417.860    21211420.8084
  23683640.561    -3857293.152 7  -2977558.12645  23683640.067    23683646.6974
  21306306.750   -14815442.690 8 -11526618.39647  21306306.181    21306309.3474
  20421675.460    -9032530.358 9  -7027242.81547  20421674.639    20421677.3134
  21487236.135   -17050258.896 8 -13249897.77747  21487235.846    21487238.5504
 01  7 17 18 28  0.0000000  0  7 23 18 17 14 21 15 03
  21619202.456    -1278169.958 9   -984997.80947  21619201.808    21619204.5234
  20448496.645   -14343546.048 9 -11158295.47047  20448496.091    20448497.4074
  21220709.138     -101070.697 8    -70842.16846  21220708.379    21220711.3454
  23662278.932    -3969549.220 8  -3065030.07545  23662278.407    23662285.1364
  21299082.932   -14853403.410 9 -11556198.14547  21299082.432    21299085.6054
  20426496.211    -9007197.518 9  -7007502.95847  20426495.352    20426497.9904
  21479711.964   -17089799.923 9 -13280708.96847  21479711.555    21479714.3374
 01  7 17 18 28 30.0000000  0  7 23 18 17 14 21 15 03
  21630111.745    -1220840.974 8   -940325.89447  21630111.165    21630113.8934
  20454275.898   -14313175.720 8 -11134630.28147  20454275.380    20454276.6914
  21230055.713      -51953.938 8    -32569.37346  21230054.999    21230058.1314
  23640939.784    -4081684.771 7  -3152408.15545  23640939.379    23640945.8824
  21291913.782   -14891077.757 9 -11585554.78647  21291913.245    21291916.3574
  20431380.956    -8981528.164 8  -6987500.86047  20431380.050    20431382.7314
  21472289.000   -17128809.058 8 -13311105.66447  21472288.544    21472291.0894
 01  7 17 18 29  0.0000000  0  7 23 18 17 14 21 15 03
  21641057.786    -1163319.703 8   -895504.13347  21641057.128    21641059.8664
  20460123.067   -14282448.697 8 -11110687.14647  20460122.532    20460123.8794
  21239458.666       -2541.785 8      5933.56246  21239457.899    21239460.9434
  23619624.366    -4193696.113 8  -3239689.44245  23619624.134    23619630.9584
  21284799.293   -14928464.809 8 -11614687.52747  21284798.681    21284801.8644
  20436329.793    -8955521.034 9  -6967235.54047  20436328.994    20436331.7414
  21464967.411   -17167283.528 8 -13341085.76447  21464966.973    21464969.7204
 01  7 17 18 29 30.0000000  0  7 23 18 17 14 21 15 03
  21652039.989    -1105607.566 8   -850533.65747  21652039.345    21652042.0874
  20466037.817   -14251366.587 9 -11086467.31847  20466037.287    20466038.6234
  21248917.703       47165.876 8     44666.78546  21248916.961    21248920.1264
  23598333.666    -4305580.435 7  -3326871.77145  23598333.275    23598340.0954
  21277739.344   -14965565.292 9 -11643596.96147  21277738.728    21277741.7974
  20441343.156    -8929175.745 9  -6946706.77047  20441342.363    20441345.0484
  21457747.846   -17205222.166 8 -13370648.32447  21457747.381    21457750.2174
 01  7 17 18 30  0.0000000  0  7 23 18 17 14 21 15 03
  21663058.558    -1047704.854 8   -805414.67447  21663057.927    21663060.6034
  20472020.160   -14219929.382 8 -11061970.79447  20472019.596    20472020.8864
  21258433.302       97170.410 8     83631.35246  21258432.473    21258435.6694
  23577067.420    -4417334.048 7  -3413952.25145  23577066.996    23577073.8604
  21270733.987   -15002378.323 9 -11672282.44147  21270733.397    21270736.5414
  20446421.189    -8902490.993 8  -6925913.45447  20446420.278    20446422.9614
  21450630.739   -17242622.170 8 -13399791.15147  21450630.447    21450633.1404
 01  7 17 18 30 30.0000000  0  7 23 18 17 14 21 15 03
  21674112.651     -989615.326 8   -760150.13047  21674112.015    21674114.7534
  20478069.210   -14188141.294 8 -11037200.86147  20478068.648    20478069.9294
  21268004.932      147469.544 8    122825.43246  21268004.107    21268007.1904
  23555826.534    -4528956.578 8  -3500930.57545  23555826.060    23555832.6304
  21263782.964   -15038906.308 9 -11700745.78647  21263782.350    21263785.4104
  20451563.216    -8875468.809 9  -6904857.19547  20451562.418    20451565.1494
  21443616.174   -17279484.551 8 -13428515.10247  21443615.743    21443618.5174
 01  7 17 18 31  0.0000000  0  7 23 18 17 14 21 15 03
  21685202.081     -931339.909 8   -714740.72747  21685201.447    21685204.1804
  20484185.001   -14156002.801 8 -11012157.88447  20484184.424    20484185.6644
  21277632.701      198064.047 8    162249.70646  21277631.902    21277635.0104
  23534610.961    -4640444.403 8  -3587803.94445  23534610.369    23534617.0314
  21256886.311   -15075148.308 9 -11728986.29547  21256885.694    21256888.8034
  20456769.830    -8848108.485 9  -6883537.46747  20456769.013    20456771.6654
  21436704.321   -17315807.190 8 -13456818.43247  21436703.779    21436706.4854
 01  7 17 18 31 30.0000000  0  7 23 18 17 14 21 15 03
  21696326.861     -872879.061 8   -669186.84047  21696326.216    21696328.9324
  20490367.297   -14123514.488 8 -10986842.32047  20490366.774    20490367.9754
  21287317.091      248954.986 8    201904.96746  21287316.218    21287319.3544
  23513421.684    -4751793.759 7  -3674569.43445  23513421.168    23513427.5414
  21250044.199   -15111103.954 8 -11757003.65647  21250043.621    21250046.6314
  20462040.954    -8820408.622 9  -6861953.16447  20462040.134    20462042.7904
  21429895.541   -17351587.315 8 -13484699.02747  21429895.053    21429897.7884
 01  7 17 18 32  0.0000000  0  7 23 18 17 14 21 15 03
  21707486.994     -814232.575 8   -623488.28547  21707486.280    21707488.9804
  20496616.255   -14090676.019 8 -10961253.90847  20496615.728    20496616.9464
  21297057.924      300144.085 8    241792.55746  21297057.124    21297060.2324
  23492259.210    -4863000.301 7  -3761223.62645  23492258.778    23492265.3254
  21243256.737   -15146771.855 9 -11784796.81447  21243256.190    21243259.2474
  20467377.109    -8792367.091 9  -6840102.62847  20467376.270    20467378.8994
  21423190.099   -17386822.070 8 -13512154.68847  21423189.884    21423192.9114
 01  7 17 18 32 30.0000000  0  7 23 18 17 14 21 15 03
  21718681.734     -755403.465 8   -577647.44047  21718681.070    21718683.8674
  20502931.309   -14057490.450 9 -10935395.02547  20502930.776    20502931.9604
  21306855.455      351629.826 8    281911.29246  21306854.591    21306857.6794
  23471124.744    -4974062.834 8  -3847765.59745  23471124.129    23471130.3834
  21236523.796   -15182153.957 9 -11812367.27247  21236523.161    21236526.2144
  20472777.851    -8763985.568 9  -6817987.14647  20472777.061    20472779.7814
  21416589.024   -17421511.470 8 -13539185.36347  21416588.725    21416591.6834
 01  7 17 18 33  0.0000000  0  7 23 18 17 14 21 15 03
  21729910.613     -696395.264 8   -531667.03247  21729909.986    21729912.7544
  20509311.703   -14023961.412 9 -10909268.50047  20509311.139    20509312.2864
  21316708.851      403410.210 8    322259.63746  21316708.050    21316711.1784
  23450017.476    -5084980.783 7  -3934194.89945  23450016.922    23450022.7664
  21229844.763   -15217252.443 8 -11839716.71647  21229844.165    21229847.1934
  20478243.053    -8735265.727 9  -6795608.04647  20478242.228    20478244.9614
  21410091.438   -17455656.297 8 -13565791.71147  21410091.222    21410094.1954
 01  7 17 18 33 30.0000000  0  7 23 18 17 14 21 15 03
  21741173.788     -637207.056 8   -485546.36547  21741173.159    21741175.8984
  20515757.642   -13990087.886 8 -10882873.55447  20515757.057    20515758.1954
  21326618.907      455487.722 8    362839.48746  21326618.099    21326621.1774
  23428938.701    -5195748.842 8  -4020507.46445  23428938.193    23428944.0104
  21223220.156   -15252064.918 8 -11866843.29647  21223219.551    21223222.6284
  20483773.194    -8706204.821 9  -6772963.21147  20483772.379    20483774.9834
  21403698.307   -17489252.705 8 -13591970.72347  21403698.157    21403700.8824
 01  7 17 18 34  0.0000000  0  7 23 18 17 14 21 15 03
  21752470.388     -577843.123 8   -439288.77647  21752469.768    21752472.5614
  20522268.267   -13955874.224 8 -10856213.55547  20522267.700    20522268.8894
  21336584.999      507859.530 8    403648.68246  21336584.180    21336587.2304
  23407889.189    -5306367.107 7  -4106703.20945  23407888.357    23407893.4954
  21216649.193   -15286595.137 9 -11893749.93947  21216648.669    21216651.6564
  20489367.644    -8676805.605 9  -6750054.71747  20489366.836    20489369.4954
  21397409.257   -17522302.299 8 -13617723.66347  21397408.862    21397411.8494
 01  7 17 18 34 30.0000000  0  7 23 18 17 14 21 15 03
  21763800.595     -518302.456 8   -392893.46547  21763799.985    21763802.8314
  20528843.837   -13921319.461 9 -10829287.77847  20528843.268    20528844.4914
  21346607.537      560528.186 8    444689.15546  21346606.701    21346609.8534
  23386868.315    -5416830.482 8  -4192778.32545  23386867.648    23386872.6254
  21210132.472   -15320840.616 9 -11920434.71947  21210131.851    21210134.9844
  20495027.036    -8647065.341 9  -6726880.48647  20495026.199    20495028.9494
  21391224.871   -17554801.619 8 -13643047.78047  21391224.464    21391227.2534
 01  7 17 18 35  0.0000000  0  7 23 18 17 14 21 15 03
  21775163.995     -458587.622 8   -346362.45047  21775163.368    21775166.1884
  20535483.816   -13886426.099 8 -10802098.15747  20535483.221    20535484.4484
  21356686.417      613492.426 8    485959.96447  21356685.554    21356688.5884
  23365877.823    -5527137.431 7  -4278731.50645  23365876.891    23365881.8514
  21203669.804   -15354802.374 9 -11946898.40047  21203669.235    21203672.2764
  20500751.147    -8616984.956 9  -6703441.24547  20500750.336    20500753.0044
  21385145.365   -17586750.063 8 -13667942.67047  21385144.912    21385147.7144
 01  7 17 18 35 30.0000000  0  7 23 18 17 14 21 15 03
  21786560.467     -398699.138 8   -299696.13447  21786559.798    21786562.5854
  20542188.064   -13851194.827 8 -10774645.22747  20542187.490    20542188.7204
  21366821.460      666753.431 8    527462.02047  21366820.738    21366823.8114
  23344917.105    -5637284.056 7  -4364559.78545  23344916.192    23344921.2854
  21197260.963   -15388480.711 9 -11973141.23547  21197260.422    21197263.3734
  20506540.261    -8586563.305 9  -6679736.05947  20506539.398    20506542.0644
  21379171.063   -17618145.474 8 -13692406.62847  21379170.548    21379173.3014
 01  7 17 18 36  0.0000000  0  7 23 18 17 14 21 15 03
  21797989.862     -338637.689 8   -252895.01647  21797989.166    21797991.9774
  20548956.483   -13815626.259 9 -10746929.46347  20548955.944    20548957.1994
  21377013.325      720311.909 8    569195.89247  21377012.602    21377015.6994
  23323987.648    -5747267.093 7  -4450260.58445  23323986.881    23323992.2304
  21190906.434   -15421874.548 9 -11999162.40147  21190905.861    21190908.8874
  20512394.409    -8555799.445 9  -6655764.21947  20512393.585    20512396.3034
  21373302.248   -17648985.773 8 -13716438.01747  21373301.871    21373304.5674
 01  7 17 18 36 30.0000000  0  7 23 18 17 14 21 15 03
  21809451.758     -278404.877 8   -205960.37847  21809451.131    21809453.9734
  20555788.864   -13779722.078 9 -10718952.18247  20555788.294    20555789.5284
  21387261.698      774167.689 8    611161.41747  21387261.037    21387264.1514
  23303089.793    -5857083.798 8  -4535831.76345  23303089.138    23303094.3714
  21184605.657   -15454984.894 8 -12024962.64547  21184605.083    21184608.0384
  20518313.734    -8524693.004 9  -6631525.44747  20518312.908    20518315.5664
  21367539.096   -17679270.003 8 -13740036.11047  21367538.880    21367541.6524
 01  7 17 18 37  0.0000000  0  7 23 18 17 14 21 15 03
  21820945.844     -218002.896 8   -158893.92147  21820945.214    21820948.0894
  20562684.600   -13743484.559 9 -10690715.16847  20562684.080    20562685.2964
  21397566.599      828319.967 8    653357.96347  21397565.933    21397569.0364
  23282224.230    -5966732.447 8  -4621271.98345  23282223.383    23282229.0254
  21178358.854   -15487812.271 9 -12050542.40947  21178358.248    21178361.2734
  20524298.075    -8493244.986 9  -6607020.49947  20524297.235    20524299.9364
  21361882.186   -17708997.852 8 -13763200.66847  21361881.927    21361884.7014
 01  7 17 18 37 30.0000000  0  7 23 18 17 14 21 15 03
  21832471.696     -157434.159 8   -111697.52347  21832471.075    21832473.8944
  20569643.387   -13706916.238 9 -10662220.37147  20569642.853    20569644.0194
  21407927.668      882767.700 8    695784.76547  21407927.001    21407930.1444
  23261390.741    -6076211.046 7  -4706579.71345  23261390.035    23261395.5964
  21172165.451   -15520358.429 9 -12075903.02547  21172164.915    21172167.8854
  20530347.283    -8461456.229 9  -6582250.04347  20530346.477    20530349.2064
  21356331.208   -17738169.063 8 -13785931.47047  21356331.009    21356333.5694
 01  7 17 18 38  0.0000000  0  7 23 18 17 14 21 15 03
  21844029.179      -96699.214 8    -64371.60747  21844028.524    21844031.3594
  20576664.926   -13670017.747 8 -10633468.30747  20576664.352    20576665.5794
  21418345.177      937511.755 8    738442.46146  21418344.538    21418347.5634
  23240590.444    -6185516.163 7  -4791752.21545  23240589.646    23240595.3484
  21166025.860   -15552622.430 8 -12101043.79647  21166025.246    21166028.1864
  20536461.588    -8429325.610 9  -6557213.20347  20536460.764    20536463.4514
  21350886.576   -17766781.309 8 -13808226.73347  21350886.229    21350889.0104
 01  7 17 18 38 30.0000000  0  7 23 18 17 14 21 15 03
  21855617.821      -35800.594 8    -16918.15847  21855617.091    21855619.9594
  20583748.783   -13632791.671 9 -10604460.97847  20583748.228    20583749.4864
  21428818.928      992551.167 8    781330.29946  21428818.208    21428821.1904
  23219823.396    -6294646.444 8  -4876788.50345  23219822.611    23219828.4784
  21159939.623   -15584605.878 9 -12125965.94047  21159939.009    21159942.0024
  20542640.705    -8396854.103 9  -6531910.74847  20542639.926    20542642.5294
  21345548.163   -17794834.801 8 -13830086.56947  21345547.775    21345550.5944
 01  7 17 18 39  0.0000000  0  7 23 18 17 14 21 15 03
  21867237.541       25262.278 8     30663.28347  21867236.887    21867239.8114
  20590895.085   -13595237.758 9 -10575198.19347  20590894.560    20590895.7744
  21439349.150     1047887.718 8    824449.69746  21439348.398    21439351.5124
  23199090.781    -6403597.009 8  -4961684.77045  23199090.094    23199095.5114
  21153907.102   -15616307.090 8 -12150668.15747  21153906.436    21153909.3814
  20548885.056    -8364039.597 9  -6506340.99947  20548884.323    20548886.9694
  21340316.631   -17822326.498 8 -13851508.66947  21340316.366    21340319.2114
 01  7 17 18 39 30.0000000  0  7 23 18 17 14 21 15 03
  21878888.149       86486.167 8     78370.20147  21878887.431    21878890.3974
  20598103.174   -13557359.023 9 -10545682.30047  20598102.640    20598103.8744
  21449935.694     1103519.718 8    867799.24746  21449934.839    21449937.8154
  23178392.234    -6512366.646 8  -5046440.02345  23178391.554    23178397.1214
  21147927.765   -15647728.680 9 -12175152.51147  21147927.155    21147930.1114
  20555194.364    -8330883.538 9  -6480505.11047  20555193.646    20555196.3774
  21335191.914   -17849257.036 8 -13872493.51847  21335191.604    21335194.3604
 01  7 17 18 40  0.0000000  0  7 23 18 17 14 21 15 03
  21890569.357      147871.265 8    126202.73147  21890568.684    21890571.6144
  20605373.053   -13519155.263 9 -10515913.14447  20605372.557    20605373.8194
  21460578.426     1159448.695 8    911380.23846  21460577.721    21460580.7934
  23157728.812    -6620951.075 8  -5131050.97345  23157728.409    23157733.6974
  21142002.038   -15678868.410 9 -12199417.21247  21142001.407    21142004.3794
  20561569.144    -8297384.374 9  -6454401.89647  20561568.382    20561571.0134
  21330174.667   -17875623.655 8 -13893038.91247  21330174.228    21330177.0044
 01  7 17 18 40 30.0000000  0  7 23 18 17 14 21 15 03
  21902280.974      209415.978 8    174159.63347  21902280.346    21902283.1634
  20612704.554   -13480628.378 8 -10485892.19947  20612703.962    20612705.3034
  21471277.834     1215674.418 8    955192.46346  21471277.174    21471280.1494
  23137101.377    -6729348.025 8  -5215515.86645  23137100.949    23137106.2304
  21136129.759   -15709727.572 9 -12223463.30147  21136129.062    21136132.1064
  20568009.139    -8263542.173 9  -6428031.34847  20568008.304    20568010.9824
  21325264.448   -17901425.652 8 -13913144.35347  21325264.077    21325266.9154
 01  7 17 18 41  0.0000000  0  7 23 18 17 14 21 15 03
  21914022.441      271116.954 8    222238.28847  21914021.758    21914024.4544
  20620096.772   -13441781.773 8 -10455622.12547  20620096.234    20620097.5384
  21482033.454     1272194.761 8    999234.26446  21482032.648    21482035.6234
  23116509.837    -6837556.799 7  -5299834.10545  23116509.324    23116514.3994
  21130310.435   -15740308.297 9 -12247292.41147  21130309.761    21130312.6984
  20574514.045    -8229358.464 9  -6401394.69447  20574513.281    20574515.9344
  21320461.967   -17926663.852 8 -13932810.49347  21320461.412    21320464.3594
 01  7 17 18 41 30.0000000  0  7 23 18 17 14 21 15 03
  21925793.531      332974.258 8    270438.76347  21925792.780    21925795.4824
  20627550.057   -13402614.902 8 -10425102.48547  20627549.455    20627550.7604
  21492845.308     1329011.315 8   1043506.91446  21492844.503    21492847.6314
  23095954.782    -6945572.791 8  -5384002.14445  23095954.394    23095959.3184
  21124544.152   -15770609.612 9 -12270903.81647  21124543.592    21124546.5964
  20581084.249    -8194831.628 9  -6374490.68647  20581083.512    20581086.1674
  21315767.113   -17951335.571 9 -13952035.19247  21315766.751    21315769.4084
 01  7 17 18 42  0.0000000  0  8 23 18 17 14 31 21 15 03
  21937594.080      394987.165 8    318760.48247  21937593.450    21937596.1584
  20635063.877   -13363129.244 9 -10394334.44547  20635063.333    20635064.6414
  21503713.429     1386124.622 8   1088010.79646  21503712.690    21503715.8714
  23075437.212    -7053392.990 8  -5468017.60945  23075436.569    23075441.4804
  23296865.078    -1194768.97817   -908371.66755  23296864.236    23296871.5304
  21118831.210   -15800631.230 9 -12294297.27147  21118830.618    21118833.6084
  20587719.999    -8159960.838 9  -6347318.65547  20587719.229    20587721.8664
  21311180.145   -17975439.426 8 -13970817.43247  21311179.797    21311182.5744
 01  7 17 18 42 30.0000000  0  8 23 18 17 14 31 21 15 03
  21949424.270      457154.535 8    367202.57347  21949423.560    21949426.2654
  20642638.124   -13323326.060 8 -10363318.98747  20642637.589    20642638.8824
  21514638.115     1443534.852 8   1132745.99946  21514637.496    21514640.6924
  23054957.232    -7161014.348 8  -5551878.17145  23054956.756    23054961.6334
  23281410.033    -1275993.935 7   -971663.85345  23281407.687    23281410.7804
  21113171.620   -15830373.083 9 -12317472.71847  21113170.956    21113173.9274
  20594421.233    -8124745.888 9  -6319878.43047  20594420.409    20594423.1054
  21306701.576   -17998974.301 8 -13989156.27247  21306701.238    21306703.9724
 01  7 17 18 43  0.0000000  0  8 23 18 17 14 31 21 15 03
  21961282.168      519469.074 8    415759.33847  21961281.521    21961284.3654
  20650271.448   -13283212.867 8 -10332061.95847  20650270.885    20650272.2094
  21525618.380     1501236.054 8   1177707.91746  21525617.795    21525620.9144
  23034514.618    -7268440.425 8  -5635586.56245  23034514.079    23034518.8644
  23266024.481    -1356839.526 8  -1034660.37245  23266024.066    23266026.9734
  21107563.847   -15859841.919 9 -12340435.43747  21107563.258    21107566.1924
  20601186.701    -8089192.776 9  -6292174.72547  20601185.926    20601188.6354
  21302330.461   -18021945.070 8 -14007055.56847  21302330.093    21302332.8994
 01  7 17 18 43 30.0000000  0  8 23 18 17 14 31 21 15 03
  21973168.646      581932.681 8    464432.26947  21973167.953    21973170.8864
  20657963.970   -13242787.940 8 -10300562.02447  20657963.499    20657964.8014
  21536654.490     1559231.293 8   1222898.95646  21536653.904    21536656.9964
  23014110.317    -7375665.067 8  -5719138.01445  23014109.733    23014114.5374
  23250714.429    -1437299.876 7  -1097356.66345  23250713.617    23250716.0944
  21102008.567   -15889034.670 9 -12363183.02947  21102007.954    21102010.9244
  20608017.324    -8053297.870 9  -6264204.67947  20608016.487    20608019.1514
  21298067.476   -18044347.427 8 -14024511.96247  21298067.025    21298069.8104
 01  7 17 18 44  0.0000000  0  8 23 18 17 14 31 21 15 03
  21985083.509      644545.900 8    513221.77747  21985082.854    21985085.8314
  20665716.114   -13202050.799 8 -10268818.80247  20665715.573    20665716.8854
  21547746.997     1617522.525 8   1268320.70546  21547746.406    21547749.5894
  22993745.032    -7482683.696 8  -5802528.95245  22993744.522    22993749.2714
  23235477.386    -1517370.528 8  -1159749.36045  23235476.504    23235479.6774
  21096506.243   -15917949.764 8 -12385714.26247  21096505.573    21096508.5724
  20614913.257    -8017059.228 9  -6235966.77647  20614912.463    20614915.2254
  21293913.188   -18066178.766 8 -14041523.37547  21293912.691    21293915.4444
 01  7 17 18 44 30.0000000  0  9 23 18 17 14 31 21 15 03 09
  21997026.704      707307.042 8    562126.54647  21997025.976    21997028.9144
  20673527.169   -13161003.341 9 -10236833.78347  20673526.635    20673527.9544
  21558895.581     1676109.178 8   1313972.62346  21558895.087    21558898.2284
  22973419.653    -7589493.849 8  -5885757.43345  22973419.014    22973423.7974
  23220315.072    -1597049.374 8  -1221836.72845  23220314.341    23220317.4744
  21091056.615   -15946587.855 9 -12408029.64947  21091055.976    21091058.8794
  20621874.717    -7980477.168 9  -6207461.29347  20621873.874    20621876.5764
  21289867.559   -18087438.504 9 -14058089.40747  21289867.131    21289869.7644
  24412167.365    -1616587.63617  -1250329.99855  24412166.438    24412171.7494
 01  7 17 18 45  0.0000000  0  9 23 18 17 14 31 21 15 03 09
  22008997.952      770217.105 8    611147.35147  22008997.288    22009000.3464
  20681397.569   -13119644.681 9 -10204606.26447  20681396.957    20681398.2734
  21570101.119     1734993.501 8   1359856.49846  21570100.440    21570103.5374
  22953134.707    -7696090.629 8  -5968819.70445  22953134.166    22953138.8214
  23205228.465    -1676331.477 8  -1283614.94245  23205227.555    23205230.5844
  21085660.009   -15974947.257 9 -12430127.87647  21085659.362    21085662.2554
  20628901.874    -7943549.245 9  -6178686.29647  20628901.019    20628903.7474
  21285931.469   -18108123.299 8 -14074207.43347  21285930.887    21285933.6474
  24400693.343    -1676884.918 7  -1297314.83645  24400692.552    24400697.4774
 01  7 17 18 45 30.0000000  0  9 23 18 17 14 31 21 15 03 09
  22020997.502      833274.481 8    660282.95847  22020996.821    22020999.7614
  20689326.725   -13077976.483 9 -10172137.54647  20689326.157    20689327.4784
  21581363.075     1794175.217 8   1405972.08546  21581362.334    21581365.4374
  22932891.307    -7802471.532 8  -6051713.73045  22932890.561    22932894.7634
  23190217.139    -1755214.562 7  -1345082.24945  23190216.397    23190219.9204
  21080316.338   -16003028.185 9 -12452009.11447  21080315.711    21080318.6364
  20635994.778    -7906275.463 9  -6149641.79747  20635993.969    20635996.7134
  21282104.704   -18128232.596 8 -14089876.98747  21282104.286    21282107.0504
  24389282.755    -1736847.580 7  -1344038.92044  24389281.911    24389286.5094
 01  7 17 18 46  0.0000000  0  9 23 18 17 14 31 21 15 03 09
  22033024.702      896477.514 8    709532.05947  22033024.035    22033026.8514
  20697314.474   -13036000.721 9 -10139429.17347  20697313.878    20697315.1544
  21592681.403     1853653.817 8   1452319.01046  21592680.738    21592683.9044
  22912689.151    -7908634.253 8  -6134437.74145  22912688.406    22912692.4124
  23175282.229    -1833696.725 8  -1406237.16045  23175281.486    23175285.2564
  21075025.519   -16030831.965 8 -12473674.39347  21075024.854    21075027.7524
  20643153.548    -7868656.310 9  -6120328.17947  20643152.663    20643155.3654
  21278387.409   -18147765.779 8 -14105097.66747  21278387.029    21278389.9534
  24377936.473    -1796472.886 7  -1390500.08845  24377935.676    24377940.1774
 01  7 17 18 46 30.0000000  0  9 23 18 17 14 31 21 15 03 09
  22045079.288      959824.559 8    758893.38247  22045078.580    22045081.3724
  20705360.362   -12993719.359 9 -10106482.66247  20705359.798    20705361.0704
  21604056.277     1913428.905 8   1498896.95546  21604055.633    21604058.7074
  22892528.855    -8014576.384 8  -6216989.92246  22892528.122    22892532.1594
  23160424.344    -1911775.979 8  -1467078.09045  23160423.613    23160427.2074
  21069787.185   -16058359.184 9 -12495124.16347  21069786.610    21069789.4894
  20650377.860    -7830691.979 9  -6090745.58747  20650377.071    20650379.7924
  21274780.234   -18166722.652 8 -14119869.24347  21274779.827    21274782.4484
  24366654.921    -1855758.244 7  -1436696.44045  24366654.197    24366658.3024
 01  7 17 18 47  0.0000000  0  9 23 18 17 14 31 21 15 03 09
  22057160.715     1023313.190 8    808365.01046  22057159.966    22057162.8684
  20713463.911   -12951134.772 9 -10073299.88047  20713463.328    20713464.6084
  21615487.284     1973499.228 8   1545705.00146  21615486.620    21615489.8414
  22872411.095    -8120296.363 8  -6299368.97146  22872410.400    22872414.1624
  23145643.169    -1989450.629 8  -1527603.74845  23145642.395    23145646.1824
  21064601.453   -16085610.534 9 -12516358.96947  21064600.840    21064603.6654
  20657667.764    -7792383.400 9  -6060894.75647  20657666.955    20657669.6794
  21271282.438   -18185103.420 8 -14134191.92947  21271281.968    21271284.6184
  24355438.355    -1914701.824 7  -1482626.45145  24355437.461    24355441.7534
 01  7 17 18 47 30.0000000  0  9 23 18 17 14 31 21 15 03 09
  22069268.999     1086942.894 8    857946.56946  22069268.353    22069271.2754
  20721625.112   -12908247.645 9 -10039881.34347  20721624.548    20721625.7764
  21626974.527     2033865.599 8   1592743.68446  21626974.017    21626977.0534
  22852335.831    -8225790.497 8  -6381572.08846  22852335.108    22852339.2034
  23130939.940    -2066717.472 7  -1587811.61345  23130939.035    23130942.7934
  21059468.064   -16112586.182 9 -12537378.95647  21059467.494    21059470.4464
  20665023.456    -7753729.698 9  -6030774.99947  20665022.582    20665025.2624
  21267894.834   -18202906.525 8 -14148064.47847  21267894.313    21267896.8954
  24344288.050    -1973299.806 7  -1528287.24545  24344286.621    24344291.0014
 01  7 17 18 48  0.0000000  0  9 23 18 17 14 31 21 15 03 09
  22081403.859     1150711.901 8    907636.67647  22081403.143    22081406.1094
  20729843.459   -12865060.027 9 -10006228.65847  20729842.908    20729844.0994
  21638518.064     2094527.276 8   1640012.53046  21638517.506    21638520.7954
  22832304.181    -8331056.750 8  -6463597.61646  22832303.366    22832307.5154
  23116314.028    -2143574.306 8  -1647700.01745  23116313.360    23116317.3394
  21054386.982   -16139287.444 9 -12558185.10947  21054386.382    21054389.2784
  20672444.538    -7714731.267 9  -6000386.61847  20672443.715    20672446.4564
  21264616.760   -18220131.895 9 -14161486.83047  21264616.383    21264618.9544
  24333203.271    -2031549.704 7  -1573676.70545  24333201.807    24333206.2634
 01  7 17 18 48 30.0000000  0  9 23 18 17 14 31 21 15 03 09
  22093565.057     1214619.482 8    957434.77547  22093564.334    22093567.3924
  20738118.845   -12821572.896 9  -9972342.58547  20738118.250    20738119.4624
  21650117.815     2155484.771 8   1687511.83046  21650117.306    21650120.5114
  22812316.454    -8436091.987 8  -6545443.14646  22812315.682    22812319.7584
  23101767.254    -2220017.968 8  -1707266.47845  23101766.630    23101770.3864
  21049358.268   -16165713.373 9 -12578776.74047  21049357.703    21049360.6244
  20679931.261    -7675387.622 9  -5969729.22847  20679930.502    20679933.2414
  21261449.079   -18236777.905 9 -14174457.77647  21261448.655    21261451.3764
  24322184.914    -2089448.142 7  -1618792.33745  24322183.802    24322188.4734
 01  7 17 18 49  0.0000000  0  9 23 18 17 14 31 21 15 03 09
  22105752.195     1278663.363 8   1007339.07247  22105751.507    22105754.5634
  20746450.691   -12777788.646 9  -9938224.99147  20746450.141    20746451.2984
  21661773.886     2216736.949 8   1735240.76946  21661773.206    21661776.4484
  22792373.037    -8540894.455 8  -6627107.27446  22792372.200    22792376.3934
  23087299.519    -2296047.433 8  -1766510.19245  23087298.765    23087302.3774
  21044381.645   -16191865.613 9 -12599155.10247  21044381.088    21044384.0254
  20687483.652    -7635699.458 9  -5938803.40347  20687482.944    20687485.6424
  21258391.707   -18252845.159 8 -14186977.69047  21258391.222    21258393.8614
  24311234.492    -2146993.089 7  -1663632.47545  24311233.584    24311238.0074
 01  7 17 18 49 30.0000000  0  9 23 18 17 14 31 21 15 03 09
  22117964.959     1342841.610 8   1057348.07547  22117964.322    22117967.2674
  20754838.670   -12733709.463 9  -9903877.58347  20754838.105    20754839.3444
  21673485.743     2278283.007 8   1783198.69146  21673485.058    21673488.3474
  22772474.003    -8645462.157 8  -6708588.51446  22772473.405    22772477.7644
  23072911.108    -2371661.056 8  -1825429.85145  23072910.186    23072913.6914
  21039456.804   -16217745.646 9 -12619321.34147  21039456.238    21039459.1404
  20695101.365    -7595667.579 9  -5907609.72847  20695100.660    20695103.5074
  21255444.204   -18268333.701 9 -14199046.69047  21255443.812    21255446.6874
  24300351.246    -2204182.458 7  -1708195.55645  24300350.547    24300355.4984
 01  7 17 18 50  0.0000000  0 10 23 18 17 14 31 29 21 15 03 09
  22130203.132     1407153.486 8   1107461.21547  22130202.470    22130205.3454
  20763282.554   -12689336.407 9  -9869301.17347  20763281.999    20763283.2844
  21685253.590     2340123.220 8   1831385.85446  21685252.942    21685256.2104
  22752620.767    -8749791.983 8  -6789884.34846  22752620.059    22752624.2934
  23058602.083    -2446855.583 8  -1884022.95145  23058601.182    23058604.6494
  23646583.838    -1167993.63117   -861715.68355  23646584.130    23646589.2704
  21034583.804   -16243353.361 9 -12639275.39047  21034583.281    21034586.2304
  20702784.864    -7555291.212 9  -5876147.64547  20702784.111    20702786.8594
  21252607.339   -18283241.999 8 -14210663.55647  21252606.896    21252609.6354
  24289536.634    -2261012.581 7  -1752478.67545  24289536.173    24289540.9874
 01  7 17 18 50 30.0000000  0 10 23 18 17 14 31 29 21 15 03 09
  22142466.406     1471597.741 8   1157677.51246  22142465.830    22142468.6794
  20771782.081   -12644671.136 9  -9834497.06947  20771781.515    20771782.8184
  21697077.386     2402257.464 8   1879802.13246  21697076.706    21697080.0154
  22732812.972    -8853881.128 8  -6870992.68146  22732812.452    22732816.7764
  23044373.366    -2521628.984 8  -1942287.88345  23044372.273    23044375.9734
  23626065.316    -1275820.228 7   -945735.96945  23626066.005    23626072.0724
  21029762.524   -16268689.110 8 -12659017.52447  21029761.959    21029764.8774
  20710533.805    -7514570.663 9  -5844417.33847  20710532.986    20710535.7864
  21249880.995   -18297569.729 8 -14221828.01347  21249880.564    21249883.0194
  24278791.238    -2317480.782 7  -1796479.84245  24278790.804    24278795.3134
 01  7 17 18 51  0.0000000  0 10 23 18 17 14 31 29 21 15 03 09
  22154754.721     1536172.981 8   1207995.88346  22154754.023    22154757.0384
  20780336.907   -12599714.923 9  -9799466.26147  20780336.392    20780337.7164
  21708957.117     2464685.652 8   1928447.42746  21708956.462    21708959.8514
  22713051.805    -8957727.002 8  -6951911.42346  22713051.272    22713055.4594
  23030225.052    -2595978.697 8  -2000222.67745  23030223.869    23030227.5144
  23605571.255    -1383518.707 7  -1029656.41645  23605570.534    23605577.3394
  21024992.998   -16293753.125 8 -12678547.90647  21024992.441    21024995.4294
  20718348.213    -7473505.777 9  -5812418.74347  20718347.426    20718350.1174
  21247264.984   -18311316.306 8 -14232539.64747  21247264.525    21247267.1864
  24268114.864    -2373584.123 7  -1840196.74645  24268114.375    24268119.0374
 01  7 17 18 51 30.0000000  0 10 23 18 17 14 31 29 21 15 03 09
  22167067.733     1600878.142 8   1258415.45246  22167067.019    22167070.1394
  20788946.952   -12554469.084 9  -9764209.76547  20788946.392    20788947.6914
  21720892.544     2527407.838 8   1977321.80946  21720891.999    21720895.4674
  22693337.313    -9061326.690 8  -7032638.35046  22693336.809    22693341.0404
  23016157.573    -2669902.052 8  -2057825.26645  23016156.516    23016160.6274
  23585101.230    -1491086.470 7  -1113475.03945  23585100.276    23585108.1244
  21020275.110   -16318545.582 9 -12697866.70147  21020274.627    21020277.5154
  20726228.072    -7432096.274 9  -5780151.60147  20726227.312    20726230.0574
  21244759.752   -18324481.028 8 -14242797.85247  21244759.359    21244762.0574
  24257508.636    -2429319.601 7  -1883627.06745  24257508.365    24257513.2264
 01  7 17 18 52  0.0000000  0 10 23 18 17 14 31 29 21 15 03 09
  22179405.363     1665712.869 8   1308936.00246  22179404.688    22179407.8574
  20797611.932   -12508934.283 9  -9728728.10347  20797611.373    20797612.6574
  21732884.385     2590424.622 8   2026425.79646  21732883.747    21732887.2414
  22673670.715    -9164676.809 8  -7113170.79746  22673670.155    22673674.1214
  23002172.205    -2743395.755 8  -2115093.03545  23002171.248    23002174.6644
  23564657.125    -1598520.171 7  -1197189.21245  23564656.677    23564663.6364
  21015609.041   -16343066.096 8 -12716973.57947  21015608.497    21015611.4694
  20734173.919    -7390341.104 9  -5747615.11347  20734173.120    20734175.8554
  21242365.649   -18337062.457 8 -14252601.59947  21242365.216    21242367.8914
  24246973.368    -2484683.388 7  -1926767.62345  24246973.041    24246977.1124
 01  7 17 18 52 30.0000000  0 10 23 18 17 14 31 29 21 15 03 09
  22191767.180     1730674.679 8   1359555.58646  22191766.500    22191769.5774
  20806331.490   -12463113.093 9  -9693023.26747  20806330.897    20806332.1664
  21744932.042     2653734.655 8   2075758.26146  21744931.247    21744934.6684
  22654051.613    -9267775.526 8  -7193507.34846  22654051.107    22654054.9624
  22988268.769    -2816458.723 8  -2172025.20345  22988267.783    22988271.0444
  23544238.976    -1705818.785 7  -1280798.11745  23544238.422    23544245.5254
  21010994.377   -16367316.286 9 -12735869.82147  21010993.822    21010996.7004
  20742185.317    -7348241.632 9  -5714810.34547  20742184.445    20742187.1504
  21240082.480   -18349061.085 8 -14261951.14547  21240081.988    21240084.6194
  24236509.020    -2539673.621 7  -1969617.13845  24236508.664    24236512.9094
 01  7 17 18 53  0.0000000  0 10 23 18 17 14 31 29 21 15 03 09
  22204153.136     1795763.457 8   1410274.10346  22204152.515    22204155.5074
  20815105.357   -12417005.905 9  -9657095.59547  20815104.793    20815106.1014
  21757035.594     2717338.990 8   2125320.03746  21757034.888    21757038.2414
  22634481.291    -9370619.464 8  -7273645.37446  22634480.596    22634484.4484
  22974447.996    -2889087.354 8  -2228618.89445  22974447.091    22974450.1824
  23523847.062    -1812978.729 7  -1364299.00145  23523846.581    23523853.5714
  21006431.265   -16391295.747 9 -12754555.10247  21006430.721    21006433.5944
  20750262.092    -7305796.630 9  -5681736.32147  20750261.373    20750264.1694
  21237910.200   -18360475.457 8 -14270845.49847  21237909.811    21237912.6404
  24226116.669    -2594286.773 7  -2012172.81445  24226116.279    24226120.6214
 01  7 17 18 53 30.0000000  0 10 23 18 17 14 31 29 21 15 03 09
  22216563.042     1860978.225 8   1461090.78646  22216562.464    22216565.4644
  20823933.445   -12370614.225 9  -9620946.22747  20823932.842    20823934.1184
  21769195.029     2781237.336 8   2175110.91946  21769194.280    21769197.7324
  22614959.576    -9473205.716 8  -7353582.60746  22614958.920    22614962.8794
  22960710.300    -2961279.497 8  -2284872.47345  22960709.443    22960712.2974
  23503481.775    -1919997.451 7  -1447689.86045  23503481.289    23503488.3044
  21001919.587   -16415004.726 9 -12773029.62347  21001919.014    21001921.8744
  20758405.058    -7263005.999 9  -5648392.99347  20758404.246    20758406.9684
  21235849.734   -18371304.876 8 -14279283.97947  21235849.208    21235851.8094
  24215796.642    -2648519.777 7  -2054432.25245  24215796.033    24215800.4704
 01  7 17 18 54  0.0000000  0 10 23 18 17 14 31 29 21 15 03 09
  22228996.723     1926317.148 8   1512004.20846  22228996.136    22228999.1074
  20832815.156   -12323940.295 9  -9584576.93947  20832814.583    20832815.8744
  21781410.371     2845429.018 8   2225130.40246  21781409.624    21781413.1194
  22595487.169    -9575532.386 8  -7433317.56246  22595486.541    22595490.5134
  22947055.904    -3033033.033 8  -2340784.28945  22947055.174    22947057.9914
  23483143.684    -2026873.360 7  -1530969.45745  23483143.348    23483150.2664
  20997459.213   -16438444.337 9 -12791294.24347  20997458.662    20997461.5244
  20766613.384    -7219870.231 9  -5614780.71947  20766612.643    20766615.4104
  21233899.946   -18381549.644 9 -14287266.94747  21233899.567    21233902.2744
  24205549.315    -2702370.591 7  -2096393.88545  24205548.597    24205553.0734
 01  7 17 18 54 30.0000000  0 10 23 18 17 14 31 29 21 15 03 09
  22241453.879     1991779.187 8   1563013.56846  22241453.222    22241456.2094
  20841750.390   -12276985.145 9  -9547988.51147  20841749.837    20841751.1164
  21793681.382     2909913.912 8   2275378.32346  21793680.699    21793684.1564
  22576064.567    -9677596.643 8  -7512848.06046  22576064.156    22576068.3444
  22933484.969    -3104345.587 8  -2396352.50445  22933484.489    22933487.7254
  23462833.455    -2133603.584 7  -1614135.51545  23462833.109    23462839.6834
  20993050.004   -16461614.689 9 -12809349.05547  20993049.434    20993052.3184
  20774887.634    -7176389.329 9  -5580899.50347  20774886.825    20774889.6224
  21232061.991   -18391209.205 8 -14294793.86947  21232061.490    21232064.1014
  24195374.562    -2755836.40417  -2138055.43145  24195374.192    24195378.7704
 01  7 17 18 55  0.0000000  0 10 23 18 17 14 31 29 21 15 03 09
  22253934.310     2057364.232 8   1614118.77246  22253933.612    22253936.5904
  20850739.130   -12229749.250 9  -9511181.32847  20850738.564    20850739.8414
  21806008.318     2974692.865 8   2325855.40346  21806007.805    21806011.2234
  22556693.090    -9779394.685 8  -7592171.10346  22556692.537    22556696.5064
  22919999.299    -3175214.001 8  -2451574.56245  22919998.626    22920002.0274
  23442551.281    -2240184.854 7  -1697185.54345  23442550.870    23442557.4174
  20988692.210   -16484515.233 9 -12827193.61447  20988691.611    20988694.5024
  20783227.492    -7132562.513 9  -5546748.74047  20783226.741    20783229.6144
  21230335.375   -18400282.052 9 -14301863.62447  21230334.945    21230337.6584
  24185274.333    -2808912.689 7  -2179413.46945  24185273.982    24185278.7454
 01  7 17 18 55 30.0000000  0 10 23 18 17 14 31 29 21 15 03 09
  22266437.682     2123069.775 8   1665317.88346  22266436.917    22266439.9154
  20859780.665   -12182235.421 9  -9474157.57247  20859780.155    20859781.3834
  21818391.091     3039764.421 8   2376560.48346  21818390.513    21818393.9314
  22537372.318    -9880925.325 8  -7671285.77246  22537371.772    22537375.6704
  22906597.907    -3245636.863 8  -2506449.48446  22906597.503    22906601.3204
  23422298.032    -2346616.008 7  -1780118.61045  23422297.821    23422303.9784
  20984385.363   -16507147.634 9 -12844829.24747  20984384.773    20984387.6724
  20791633.044    -7088390.803 9  -5512329.26447  20791632.303    20791635.1574
  21228720.327   -18408769.181 8 -14308476.99347  21228719.873    21228722.5134
  24175248.645    -2861598.132 7  -2220467.05845  24175248.653    24175253.5304
 01  7 17 18 56  0.0000000  0 10 23 18 17 14 31 29 21 15 03 09
  22278963.492     2188893.877 8   1716609.37046  22278962.845    22278965.8364
  20868874.835   -12134445.883 9  -9436918.97847  20868874.219    20868875.4514
  21830829.505     3105127.732 8   2427492.89346  21830828.802    21830832.0984
  22518103.005    -9982186.488 8  -7750190.46046  22518102.432    22518106.0434
  22893281.823    -3315612.550 8  -2560975.97046  22893281.471    22893285.4474
  23402073.675    -2452895.375 8  -1862933.44845  23402073.282    23402079.2494
  20980129.430   -16529512.816 9 -12862256.63947  20980128.819    20980131.6964
  20800104.207    -7043874.876 9  -5477641.53147  20800103.448    20800106.3364
  21227216.825   -18416670.694 8 -14314634.01647  21227216.384    21227218.8444
  24165297.701    -2913890.919 7  -2261214.61145  24165297.812    24165301.9484
 01  7 17 18 56 30.0000000  0 10 23 18 17 14 31 29 21 15 03 09
  22291511.932     2254835.751 8   1767992.63046  22291511.277    22291514.2664
  20878021.059   -12086381.600 9  -9399466.29747  20878020.557    20878021.7524
  21843323.148     3170782.971 8   2478652.78446  21843322.553    21843325.9244
  22498885.380   -10083175.243 8  -7828882.87446  22498884.717    22498888.3534
  22880051.571    -3385138.518 8  -2615152.03046  22880051.140    22880054.8784
  23381878.674    -2559020.124 7  -1945627.76945  23381878.233    23381884.0964
  20975924.239   -16551611.307 9 -12879476.22847  20975923.640    20975926.5284
  20808641.023    -6999014.181 9  -5442685.16847  20808640.178    20808643.0514
  21225824.793   -18423985.742 8 -14320334.05747  21225824.298    21225827.0344
  24155422.112    -2965787.929 7  -2301653.86745  24155422.259    24155426.6054
 01  7 17 18 57  0.0000000  0 10 23 18 17 14 31 29 21 15 03 09
  22304082.569     2320894.295 8   1819466.77546  22304081.845    22304084.9514
  20887219.350   -12038044.198 9  -9361800.79547  20887218.819    20887220.0194
  21855872.152     3236729.822 8   2530039.91046  21855871.764    21855875.1664
  22479719.873   -10183888.948 8  -7907360.98046  22479719.394    22479722.9994
  22866907.375    -3454212.740 8  -2668976.05946  22866906.890    22866910.3304
  23361713.154    -2664987.848 7  -2028199.79245  23361713.043    23361719.1294
  20971769.678   -16573443.479 9 -12896488.30647  20971769.096    20971771.9584
  20817243.299    -6953808.963 9  -5407460.32847  20817242.453    20817245.3254
  21224544.423   -18430714.179 8 -14325576.99647  21224543.914    21224546.6914
  24145622.110    -3017286.097 7  -2341782.28844  24145622.413    24145625.7164
 01  7 17 18 57 30.0000000  0 10 23 18 17 14 31 29 21 15 03 09
  22316675.252     2387069.806 8   1871032.07746  22316674.587    22316677.7754
  20896469.675   -11989433.423 9  -9323922.27647  20896469.146    20896470.3164
  21868477.061     3302969.742 8   2581655.41346  21868476.739    21868480.3024
  22460607.706   -10284323.306 8  -7985621.42246  22460607.236    22460610.7764
  22853849.835    -3522831.235 8  -2722444.97846  22853849.380    22853852.4974
  23341578.306    -2770794.473 7  -2110646.31945  23341578.202    23341584.5264
  20967666.132   -16595007.728 9 -12913291.59947  20967665.577    20967668.3954
  20825911.572    -6908257.530 9  -5371965.73447  20825910.662    20825913.5204
  21223376.026   -18436854.068 9 -14330361.33147  21223375.533    21223378.1484
  24135898.683    -3068381.467 7  -2381596.81444  24135899.164    24135902.1564
 01  7 17 18 58  0.0000000  0 10 23 18 17 14 31 29 21 15 03 09
  22329289.667     2453359.484 8   1922686.37446  22329289.045    22329292.1794
  20905771.400   -11940552.308 9  -9285833.09347  20905770.916    20905772.1404
  21881137.585     3369500.830 8   2633497.75746  21881137.284    21881140.7334
  22441549.061   -10384477.536 8  -8063663.56946  22441548.559    22441552.0514
  22840878.566    -3590993.268 8  -2775558.22045  22840878.299    22840881.6734
  23321474.505    -2876439.482 7  -2192966.85145  23321474.350    23321480.4744
  20963613.046   -16616307.115 9 -12929888.50747  20963612.383    20963615.2634
  20834645.002    -6862361.927 9  -5336202.91247  20834644.206    20834647.2524
  21222319.183   -18442406.963 9 -14334688.26947  21222318.794    21222321.5234
  24126252.074    -3119072.93817  -2421096.57244  24126252.423    24126256.3594
 01  7 17 18 58 30.0000000  0 10 23 18 17 14 31 29 21 15 03 09
  22341926.013     2519762.818 8   1974429.22846  22341925.317    22341928.1924
  20915124.519   -11891401.666 8  -9247533.91147  20915123.961    20915125.2114
  21893853.732     3436323.369 8   2685567.25146  21893853.320    21893856.7264
  22422544.294   -10484348.527 8  -8141484.98446  22422543.547    22422547.0724
  22827994.824    -3658696.067 8  -2828313.61945  22827994.659    22827997.9664
  23301402.008    -2981919.610 7  -2275158.96245  23301401.865    23301408.4104
  20959610.517   -16637340.567 8 -12946278.21247  20959609.884    20959612.7054
  20843444.391    -6816121.267 9  -5300171.26047  20843443.564    20843446.5364
  21221374.585   -18447371.872 8 -14338557.02647  21221374.118    21221376.7104
  24116683.969    -3169356.929 7  -2460278.81144  24116683.958    24116688.0574
 01  7 17 18 59  0.0000000  0 10 23 18 17 14 31 29 21 15 03 09
  22354583.544     2586278.194 8   2026259.36346  22354582.845    22354585.6624
  20924528.400   -11841983.815 8  -9209026.49647  20924527.831    20924529.1454
  21906624.975     3503436.501 8   2737863.16146  21906624.379    21906627.8934
  22403593.534   -10583933.931 8  -8219083.92546  22403593.055    22403596.4784
  22815199.573    -3725937.854 8  -2880709.76646  22815199.107    22815202.3554
  23281361.300    -3087233.171 8  -2357221.30745  23281361.299    23281367.5654
  20955658.330   -16658109.548 9 -12962461.80347  20955657.680    20955660.4584
  20852309.241    -6769536.244 9  -5263871.25447  20852308.397    20852311.3514
  21220541.450   -18451749.221 8 -14341967.96747  21220541.025    21220543.6854
  24107192.891    -3219231.319 7  -2499141.91045  24107192.887    24107197.0654
 01  7 17 18 59 30.0000000  0 10 23 18 17 14 31 29 21 15 03 09
  22367261.916     2652904.218 8   2078175.71146  22367261.177    22367264.2574
  20933982.841   -11792300.271 8  -9170312.04747  20933982.326    20933983.5994
  21919451.450     3570839.657 8   2790385.07746  21919450.870    21919454.4384
  22384697.975   -10683231.700 8  -8296458.69646  22384697.416    22384700.6994
  22802491.650    -3792716.786 8  -2932745.26346  22802491.494    22802494.6504
  23261353.184    -3192378.164 7  -2439152.26645  23261353.041    23261359.0434
  20951756.324   -16678614.372 9 -12978439.59047  20951755.672    20951758.5554
  20861239.423    -6722607.088 9  -5227303.09447  20861238.675    20861241.7324
  21219820.245   -18455539.034 8 -14344921.05547  21219819.844    21219822.7074
  24097780.763    -3268693.840 7  -2537684.10645  24097780.453    24097784.5294
 01  7 17 19  0  0.0000000  0 10 23 18 17 14 31 29 21 15 03 09
  22379961.296     2719640.143 8   2130177.72246  22379960.666    22379963.7574
  20943487.706   -11742352.035 8  -9131391.34447  20943487.126    20943488.4044
  21932333.084     3638533.308 8   2843133.31846  21932332.572    21932336.1314
  22365857.533   -10782238.420 8  -8373606.69246  22365856.891    22365860.3034
  22789872.495    -3859029.946 8  -2984417.83746  22789872.439    22789876.0634
  23241377.269    -3297351.481 7  -2520949.47545  23241377.180    23241383.0884
  20947904.576   -16698855.353 9 -12994211.76847  20947903.958    20947906.7464
  20870235.358    -6675333.442 9  -5190466.50447  20870234.587    20870237.5474
  21219210.990   -18458740.731 9 -14347415.90247  21219210.596    21219213.4914
  24088447.652    -3317741.339 7  -2575902.90745  24088447.036    24088451.5554
 01  7 17 19  0 30.0000000  0 10 23 18 17 14 31 29 21 15 03 09
  22392681.814     2786485.590 8   2182265.05746  22392681.059    22392683.9724
  20953042.739   -11692140.008 8  -9092265.09147  20953042.211    20953043.4554
  21945270.128     3706517.441 8   2896107.93046  21945269.656    21945273.1384
  22347072.640   -10880951.139 8  -8450525.58346  22347072.235    22347075.9384
  22777342.763    -3924874.589 8  -3035725.31646  22777342.693    22777346.2444
  23221434.366    -3402150.184 7  -2602610.63545  23221434.416    23221440.6084
  20944103.025   -16718832.366 8 -13009778.26847  20944102.410    20944105.2604
  20879296.898    -6627715.010 8  -5153361.25947  20879296.074    20879298.9654
  21218713.876   -18461353.641 8 -14349451.93547  21218713.460    21218716.1584
  24079193.606    -3366370.608 7  -2613795.82944  24079193.261    24079197.0474
 01  7 17 19  1  0.0000000  0 10 23 18 17 14 31 29 21 15 03 09
  22405422.474     2853438.830 8   2234436.38446  22405421.720    22405424.7174
  20962647.645   -11641666.046 9  -9052934.74247  20962647.111    20962648.3544
  21958261.962     3774791.566 8   2949308.52146  21958261.701    21958265.2774
  22328344.275   -10979367.839 8  -8527213.82546  22328343.859    22328347.8644
  22764902.580    -3990248.936 8  -3086666.35946  22764902.406    22764906.1884
  23201525.645    -3506772.478 8  -2684134.33845  23201525.489    23201531.4954
  20940351.615   -16738545.991 9 -13025139.51647  20940351.027    20940353.8494
  20888423.884    -6579752.123 9  -5115987.58347  20888423.125    20888426.0684
  21218328.696   -18463377.935 9 -14351029.33447  21218328.277    21218330.9664
  24070019.483    -3414579.206 7  -2651360.98144  24070019.482    24070023.5434
 01  7 17 19  1 30.0000000  0 10 23 18 17 14 31 29 21 15 03 09
  22418183.241     2920498.189 8   2286690.41146  22418182.565    22418185.7194
  20972302.030   -11590932.059 9  -9013401.77447  20972301.518    20972302.7154
  21971309.403     3843354.709 8   3002734.30146  21971308.969    21971312.4154
  22309672.914   -11077486.533 8  -8603669.86446  22309672.555    22309676.5824
  22752552.448    -4055151.524 8  -3137239.75246  22752551.877    22752555.3194
  23181650.294    -3611216.564 7  -2765519.19245  23181650.008    23181656.1564
  20936650.170   -16757997.406 9 -13040296.45947  20936649.559    20936652.3654
  20897616.457    -6531445.401 8  -5078346.01047  20897615.592    20897618.4664
  21218055.428   -18464814.104 9 -14352148.41447  21218054.986    21218057.7174
  24060926.262    -3462365.233 7  -2688596.80344  24060925.738    24060929.8534
 01  7 17 19  2  0.0000000  0 10 23 18 17 14 31 29 21 15 03 09
  22430964.440     2987663.470 8   2339026.96946  22430963.856    22430966.9634
  20982005.691   -11539938.943 9  -8973666.88847  20982005.180    20982006.3874
  21984411.619     3912207.378 8   3056385.69246  21984411.179    21984414.6864
  22291058.986   -11175303.589 8  -8679890.86146  22291058.481    22291062.3064
  22740292.078    -4119579.272 8  -3187443.16646  22740291.644    22740295.0414
  23161809.923    -3715479.240 7  -2846762.66445  23161809.403    23161815.4044
  20932998.632   -16777186.538 9 -13055249.01347  20932997.997    20933000.7804
  20906874.349    -6482794.335 8  -5040436.09247  20906873.602    20906876.5154
  21217894.212   -18465661.512 8 -14352808.75147  21217893.778    21217896.4664
  24051913.544    -3509725.258 7  -2725500.60644  24051913.366    24051917.5384
 01  7 17 19  2 30.0000000  0 10 23 18 17 14 31 29 21 15 03 09
  22443765.807     3054933.738 8   2391445.34446  22443765.055    22443768.0844
  20991758.448   -11488687.858 8  -8933730.99247  20991757.908    20991759.1104
  21997569.152     3981349.553 8   3110262.66046  21997568.589    21997572.0254
  22272503.169   -11272816.681 8  -8755874.97746  22272502.598    22272506.0204
  22728122.284    -4183530.046 8  -3237274.90846  22728122.019    22728125.3604
  23142004.235    -3819557.942 7  -2927862.79045  23142003.665    23142009.4234
  20929396.979   -16796113.210 9 -13069997.06447  20929396.321    20929399.0834
  20916197.954    -6433798.826 8  -5002257.79347  20916197.158    20916199.9644
  21217845.178   -18465919.475 9 -14353009.76847  21217844.712    21217847.4584
  24042983.278    -3556656.539 7  -2762070.39245  24042982.709    24042987.2834
 01  7 17 19  3  0.0000000  0 10 23 18 17 14 31 29 21 15 03 09
  22456586.435     3122306.782 8   2443943.80346  22456585.759    22456588.7284
  21001559.830   -11437181.244 9  -8893595.96847  21001559.313    21001560.5064
  22010781.575     4050779.817 8   3164364.16146  22010780.734    22010784.2614
  22254005.053   -11370023.857 8  -8831620.75046  22254004.484    22254008.0124
  22716043.791    -4247002.558 8  -3286733.97246  22716043.649    22716047.0254
  23122233.783    -3923451.234 8  -3008818.43245  23122233.351    23122238.9424
  20925845.016   -16814778.984 9 -13084541.81147  20925844.380    20925847.1724
  20925586.853    -6384459.839 8  -4963811.83747  20925586.068    20925588.8744
  21217907.844   -18465589.460 9 -14352752.60247  21217907.458    21217910.3534
  24034135.051    -3603157.512 7  -2798304.90245  24034134.065    24034138.4044
 01  7 17 19  3 30.0000000  0 10 23 18 17 14 31 29 21 15 03 09
  22469426.559     3189781.993 8   2496521.87846  22469425.910    22469428.8954
  21011409.738   -11385420.059 9  -8853262.59247  21011409.184    21011410.3484
  22024048.721     4120498.223 8   3218690.11946  22024047.869    22024051.2584
  22235565.801   -11466922.405 8  -8907125.99246  22235565.199    22235568.7074
  22704057.045    -4309994.151 8  -3335818.30946  22704056.679    22704059.9804
  23102499.375    -4027156.408 7  -3089627.48445  23102498.953    23102503.9634
  20922342.503   -16833184.538 9 -13098883.79847  20922341.914    20922344.6374
  20935041.058    -6334777.219 8  -4925098.12047  20935040.353    20935043.2914
  21218082.769   -18464670.948 9 -14352036.90747  21218082.347    21218085.1014
  24025369.060    -3649224.997 7  -2834201.64645  24025367.553    24025372.3874
 01  7 17 19  4  0.0000000  0 10 23 18 17 14 31 29 21 15 03 09
  22482285.796     3257358.021 8   2549178.49246  22482285.188    22482288.2324
  21021307.671   -11333405.922 9  -8812732.11247  21021307.102    21021308.3544
  22037370.295     4190504.313 8   3273240.30046  22037369.506    22037372.9354
  22217185.747   -11563510.025 8  -8982388.98746  22217185.192    22217188.4404
  22692162.351    -4372503.082 8  -3384526.52346  22692161.745    22692164.9454
  23082801.038    -4130671.490 8  -3170288.41745  23082800.550    23082805.6864
  20918889.575   -16851329.688 9 -13113022.85747  20918889.014    20918891.7494
  20944560.725    -6284751.259 9  -4886116.88947  20944560.013    20944562.8144
  21218369.503   -18463164.002 8 -14350862.66647  21218369.059    21218371.7744
  24016685.612    -3694856.853 7  -2869758.88145  24016684.126    24016688.5554
 01  7 17 19  4 30.0000000  0 10 23 18 17 14 31 29 21 15 03 09
  22495164.276     3325035.428 8   2601914.11146  22495163.643    22495166.8824
  21031253.737   -11281138.857 8  -8772004.53747  21031253.177    21031254.4164
  22050746.844     4260799.235 8   3328015.51346  22050746.276    22050749.7064
  22198865.908   -11659782.631 8  -9057406.49746  22198865.196    22198868.3874
  22680359.775    -4434525.788 8  -3432855.87446  22680359.284    22680362.2994
  23063139.329    -4233992.355 8  -3250798.05945  23063139.051    23063144.3164
  20915486.344   -16869213.891 8 -13126958.59447  20915485.711    20915488.4654
  20954146.041    -6234380.586 8  -4846867.01347  20954145.227    20954148.1484
  21218768.527   -18461067.196 8 -14349228.78847  21218768.053    21218770.8684
  24008085.500    -3740048.961 7  -2904973.51345  24008084.249    24008088.4694
